[[{"header":{"parameterUnit":"m.s-1","parameterCategory":1,"la1":30.6,"la2":28.766,"lo1":-90.7593,"lo2":-88.6598,"dy":0.0162,"dx":0.0183,"nx":116,"ny":114,"refTime":"2023-11-18T18:00:00:Z","depth":0,"parameterNumber":2,"parameterNumberName":"U-component_of_WINDS"},"data":[0.0,0.0,0.0,0.0,0.0,0.0,0.0,0.0,0.0,0.0,0.0,0.0,0.0,0.0,0.0,0.0,0.0,0.0,0.0,0.0,0.0,0.0,0.0,0.0,0.0,0.0,0.0,0.0,0.0,0.0,0.0,0.0,0.0,0.0,0.0,0.0,0.0,0.0,0.0,0.0,0.0,0.0,0.0,0.0,0.0,0.0,0.0,0.0,0.0,0.0,0.0,0.0,0.0,0.0,0.0,0.0,0.0,0.0,0.0,0.0,0.0,0.0,0.0,0.0,0.0,0.0,0.0,0.0,0.0,0.0,0.0,0.0,0.0,0.0,0.0,0.0,0.0,0.0,0.0,0.0,0.0,0.0,0.0,0.0,0.0,0.0,0.0,0.0,0.0,0.0,0.0,0.0,0.0,0.0,0.0,0.0,0.0,0.0,0.0,0.0,0.0,0.0,0.0,0.0,0.0,0.0,0.0,0.0,0.0,0.0,0.0,0.0,0.0,0.0,0.0,0.0,0.0,0.0,0.0,0.0,0.0,0.0,0.0,0.0,0.0,0.0,0.0,0.0,0.0,0.0,0.0,0.0,0.0,0.0,0.0,0.0,0.0,0.0,0.0,0.0,0.0,0.0,0.0,0.0,0.0,0.0,0.0,0.0,0.0,0.0,0.0,0.0,0.0,0.0,0.0,0.0,0.0,0.0,0.0,0.0,0.0,0.0,0.0,0.0,0.0,0.0,0.0,0.0,0.0,0.0,0.0,0.0,0.0,0.0,0.0,0.0,0.0,0.0,0.0,0.0,0.0,0.0,0.0,0.0,0.0,0.0,0.0,0.0,0.0,0.0,0.0,0.0,0.0,0.0,0.0,0.0,0.0,0.0,0.0,0.0,0.0,0.0,0.0,0.0,0.0,0.0,0.0,0.0,0.0,0.0,0.0,0.0,0.0,0.0,0.0,0.0,0.0,0.0,0.0,0.0,0.0,0.0,0.0,0.0,0.0,0.0,0.0,0.0,0.0,0.0,0.0,0.0,0.0,0.0,0.0,0.0,0.0,0.0,0.0,0.0,0.0,0.0,0.0,0.0,0.0,0.0,0.0,0.0,0.0,0.0,0.0,0.0,0.0,0.0,0.0,0.0,0.0,0.0,0.0,0.0,0.0,0.0,0.0,0.0,0.0,0.0,0.0,0.0,0.0,0.0,0.0,0.0,0.0,0.0,0.0,0.0,0.0,0.0,0.0,0.0,0.0,0.0,0.0,0.0,0.0,0.0,0.0,0.0,0.0,0.0,0.0,0.0,0.0,0.0,0.0,0.0,0.0,0.0,0.0,0.0,0.0,0.0,0.0,0.0,0.0,0.0,0.0,0.0,0.0,0.0,0.0,0.0,0.0,0.0,0.0,0.0,0.0,0.0,0.0,0.0,0.0,0.0,0.0,0.0,0.0,0.0,0.0,0.0,0.0,0.0,0.0,0.0,0.0,0.0,0.0,0.0,0.0,0.0,0.0,0.0,0.0,0.0,0.0,0.0,0.0,0.0,0.0,0.0,0.0,0.0,0.0,0.0,0.0,0.0,0.0,0.0,0.0,0.0,0.0,0.0,0.0,0.0,0.0,0.0,0.0,0.0,0.0,0.0,0.0,0.0,0.0,0.0,0.0,0.0,0.0,0.0,0.0,0.0,0.0,0.0,0.0,0.0,0.0,0.0,0.0,0.0,0.0,0.0,0.0,0.0,0.0,0.0,0.0,0.0,0.0,0.0,0.0,0.0,0.0,0.0,0.0,0.0,0.0,0.0,0.0,0.0,0.0,0.0,0.0,0.0,0.0,0.0,0.0,0.0,0.0,0.0,0.0,0.0,0.0,0.0,0.0,0.0,0.0,0.0,0.0,0.0,0.0,0.0,0.0,0.0,0.0,0.0,0.0,0.0,0.0,0.0,0.0,0.0,0.0,0.0,0.0,0.0,0.0,0.0,0.0,0.0,0.0,0.0,0.0,0.0,0.0,0.0,0.0,0.0,0.0,0.0,0.0,0.0,0.0,0.0,0.0,0.0,0.0,0.0,0.0,0.0,0.0,0.0,0.0,0.0,0.0,0.0,0.0,0.0,0.0,0.0,0.0,0.0,0.0,0.0,0.0,0.0,0.0,0.0,0.0,0.0,0.0,0.0,0.0,0.0,0.0,0.0,0.0,0.0,0.0,0.0,0.0,0.0,0.0,0.0,0.0,0.0,0.0,0.0,0.0,0.0,0.0,0.0,0.0,0.0,0.0,0.0,0.0,0.0,0.0,0.0,0.0,0.0,0.0,0.0,0.0,0.0,0.0,0.0,0.0,0.0,0.0,0.0,0.0,0.0,0.0,0.0,0.0,0.0,0.0,0.0,0.0,0.0,0.0,0.0,0.0,0.0,0.0,0.0,0.0,0.0,0.0,0.0,0.0,0.0,0.0,0.0,0.0,0.0,0.0,0.0,0.0,0.0,0.0,0.0,0.0,0.0,0.0,0.0,0.0,0.0,0.0,0.0,0.0,0.0,0.0,0.0,0.0,0.0,0.0,0.0,0.0,0.0,0.0,0.0,0.0,0.0,0.0,0.0,0.0,0.0,0.0,0.0,0.0,0.0,0.0,0.0,0.0,0.0,0.0,0.0,0.0,0.0,0.0,0.0,0.0,0.0,0.0,0.0,0.0,0.0,0.0,0.0,0.0,0.0,0.0,0.0,0.0,0.0,0.0,0.0,0.0,0.0,0.0,0.0,0.0,0.0,0.0,0.0,0.0,0.0,0.0,0.0,0.0,0.0,0.0,0.0,0.0,0.0,0.0,0.0,0.0,0.0,0.0,0.0,0.0,0.0,0.0,0.0,0.0,0.0,0.0,0.0,0.0,0.0,0.0,0.0,0.0,0.0,0.0,0.0,0.0,0.0,0.0,0.0,0.0,0.0,0.0,0.0,0.0,0.0,0.0,0.0,0.0,0.0,0.0,0.0,0.0,0.0,0.0,0.0,0.0,0.0,0.0,0.0,0.0,0.0,0.0,0.0,0.0,0.0,0.0,0.0,0.0,0.0,0.0,0.0,0.0,0.0,0.0,0.0,0.0,0.0,0.0,0.0,0.0,0.0,0.0,0.0,0.0,0.0,0.0,0.0,0.0,0.0,0.0,0.0,0.0,0.0,0.0,0.0,0.0,0.0,0.0,0.0,0.0,0.0,0.0,0.0,0.0,0.0,0.0,0.0,0.0,0.0,0.0,0.0,0.0,0.0,0.0,0.0,0.0,0.0,0.0,0.0,0.0,0.0,0.0,0.0,0.0,0.0,0.0,0.0,0.0,0.0,0.0,0.0,0.0,0.0,0.0,0.0,0.0,0.0,0.0,0.0,0.0,0.0,0.0,0.0,0.0,0.0,0.0,0.0,0.0,0.0,0.0,0.0,0.0,0.0,0.0,0.0,0.0,0.0,0.0,0.0,0.0,0.0,0.0,0.0,0.0,0.0,0.0,0.0,0.0,0.0,0.0,0.0,0.0,0.0,0.0,0.0,0.0,0.0,0.0,0.0,0.0,0.0,0.0,0.0,0.0,0.0,0.0,0.0,0.0,0.0,0.0,0.0,0.0,0.0,0.0,0.0,0.0,0.0,0.0,0.0,0.0,0.0,0.0,0.0,0.0,0.0,0.0,0.0,0.0,0.0,0.0,0.0,0.0,0.0,0.0,0.0,0.0,0.0,0.0,0.0,0.0,0.0,0.0,0.0,0.0,0.0,0.0,0.0,0.0,0.0,0.0,0.0,0.0,0.0,0.0,0.0,0.0,0.0,0.0,0.0,0.0,0.0,0.0,0.0,0.0,0.0,0.0,0.0,0.0,0.0,0.0,0.0,0.0,0.0,0.0,0.0,0.0,0.0,0.0,0.0,0.0,0.0,0.0,0.0,0.0,0.0,0.0,0.0,0.0,0.0,0.0,0.0,0.0,0.0,0.0,0.0,0.0,0.0,0.0,0.0,0.0,0.0,0.0,0.0,0.0,0.0,0.0,0.0,0.0,0.0,0.0,0.0,0.0,0.0,0.0,0.0,0.0,0.0,0.0,0.0,0.0,0.0,0.0,0.0,0.0,0.0,0.0,0.0,0.0,0.0,0.0,0.0,0.0,0.0,0.0,0.0,0.0,0.0,0.0,0.0,0.0,0.0,0.0,0.0,0.0,0.0,0.0,0.0,0.0,0.0,0.0,0.0,0.0,0.0,0.0,0.0,0.0,0.0,0.0,0.0,0.0,0.0,0.0,0.0,0.0,0.0,0.0,0.0,0.0,0.0,0.0,0.0,0.0,0.0,0.0,0.0,0.0,0.0,0.0,0.0,0.0,0.0,0.0,0.0,0.0,0.0,0.0,0.0,0.0,0.0,0.0,0.0,0.0,0.0,0.0,0.0,0.0,0.0,0.0,0.0,0.0,0.0,0.0,0.0,0.0,0.0,0.0,0.0,0.0,0.0,0.0,0.0,0.0,0.0,0.0,0.0,0.0,0.0,0.0,0.0,0.0,0.0,0.0,0.0,0.0,0.0,0.0,0.0,0.0,0.0,0.0,0.0,0.0,0.0,0.0,0.0,0.0,0.0,0.0,0.0,0.0,0.0,0.0,0.0,0.0,0.0,0.0,0.0,0.0,0.0,0.0,0.0,0.0,0.0,0.0,0.0,0.0,0.0,0.0,0.0,0.0,0.0,0.0,0.0,0.0,0.0,0.0,0.0,0.0,0.0,0.0,0.0,0.0,0.0,0.0,0.0,0.0,0.0,0.0,0.0,0.0,0.0,0.0,0.0,0.0,0.0,0.0,0.0,0.0,0.0,0.0,0.0,0.0,0.0,0.0,0.0,0.0,0.0,0.0,0.0,0.0,0.0,0.0,0.0,0.0,0.0,0.0,0.0,0.0,0.0,0.0,0.0,0.0,0.0,0.0,0.0,0.0,0.0,0.0,0.0,0.0,0.0,0.0,0.0,0.0,0.0,0.0,0.0,0.0,0.0,0.0,0.0,0.0,0.0,0.0,0.0,0.0,0.0,0.0,0.0,0.0,0.0,0.0,0.0,0.0,0.0,0.0,0.0,0.0,0.0,0.0,0.0,0.0,0.0,0.0,0.0,0.0,0.0,0.0,0.0,0.0,0.0,0.0,0.0,0.0,0.0,0.0,0.0,0.0,0.0,0.0,0.0,0.0,0.0,0.0,0.0,0.0,0.0,0.0,0.0,0.0,0.0,0.0,0.0,0.0,0.0,0.0,0.0,0.0,0.0,0.0,0.0,0.0,0.0,0.0,0.0,0.0,0.0,0.0,0.0,0.0,0.0,0.0,0.0,0.0,0.0,0.0,0.0,0.0,0.0,0.0,0.0,0.0,0.0,0.0,0.0,0.0,0.0,0.0,0.0,0.0,0.0,0.0,0.0,0.0,0.0,0.0,0.0,0.0,0.0,0.0,0.0,0.0,0.0,0.0,0.0,0.0,0.0,0.0,0.0,0.0,0.0,0.0,0.0,0.0,0.0,0.0,0.0,0.0,0.0,0.0,0.0,0.0,0.0,0.0,0.0,0.0,0.0,0.0,0.0,0.0,0.0,0.0,0.0,0.0,0.0,0.0,0.0,0.0,0.0,0.0,0.0,0.0,0.0,0.0,0.0,0.0,0.0,0.0,0.0,0.0,0.0,0.0,0.0,0.0,0.0,0.0,0.0,0.0,0.0,0.0,0.0,0.0,0.0,0.0,0.0,0.0,0.0,0.0,0.0,0.0,0.0,0.0,0.0,0.0,0.0,0.0,0.0,0.0,0.0,0.0,0.0,0.0,0.0,0.0,0.0,0.0,0.0,0.0,0.0,0.0,0.0,0.0,0.0,0.0,0.0,0.0,0.0,0.0,0.0,0.0,0.0,0.0,0.0,0.0,0.0,0.0,0.0,0.0,0.0,0.0,0.0,0.0,0.0,0.0,0.0,0.0,0.0,0.0,0.0,0.0,0.0,0.0,0.0,0.0,0.0,0.0,0.0,0.0,0.0,0.0,0.0,0.0,0.0,0.0,0.0,0.0,0.0,0.0,0.0,0.0,0.0,0.0,0.0,0.0,0.0,0.0,0.0,0.0,0.0,-1.6685,-1.6483,0.0,0.0,0.0,0.0,0.0,0.0,0.0,0.0,0.0,0.0,0.0,0.0,0.0,0.0,0.0,0.0,0.0,0.0,0.0,0.0,0.0,0.0,0.0,0.0,0.0,0.0,0.0,0.0,0.0,0.0,0.0,0.0,0.0,0.0,0.0,0.0,0.0,0.0,-1.7968,-1.8132,-1.9092,-1.9134,-1.799,-1.5857,0.0,0.0,0.0,0.0,0.0,0.0,0.0,0.0,0.0,0.0,0.0,0.0,0.0,0.0,0.0,0.0,0.0,0.0,0.0,0.0,0.0,0.0,0.0,0.0,0.0,0.0,0.0,0.0,0.0,0.0,0.0,0.0,0.0,0.0,0.0,0.0,0.0,0.0,0.0,0.0,0.0,0.0,0.0,0.0,0.0,0.0,0.0,0.0,0.0,0.0,0.0,0.0,0.0,0.0,0.0,0.0,0.0,0.0,0.0,0.0,0.0,0.0,0.0,0.0,0.0,0.0,0.0,0.0,0.0,0.0,-1.725,-1.6372,0.0,0.0,0.0,0.0,0.0,0.0,0.0,0.0,0.0,0.0,0.0,0.0,0.0,0.0,0.0,0.0,0.0,0.0,0.0,0.0,0.0,0.0,0.0,-1.4892,-1.4835,-1.4844,-1.5311,-1.5645,0.0,0.0,0.0,0.0,0.0,0.0,0.0,-1.8355,-1.9641,-2.1874,-2.0881,-2.1322,-2.3089,-2.4379,-2.2645,-1.8407,-1.7724,0.0,0.0,0.0,0.0,0.0,0.0,0.0,0.0,0.0,0.0,0.0,0.0,0.0,0.0,0.0,0.0,0.0,0.0,0.0,0.0,0.0,0.0,0.0,0.0,0.0,0.0,0.0,0.0,0.0,0.0,0.0,0.0,0.0,0.0,0.0,0.0,0.0,0.0,0.0,0.0,0.0,0.0,0.0,0.0,0.0,0.0,0.0,0.0,0.0,0.0,0.0,0.0,0.0,0.0,0.0,0.0,0.0,0.0,0.0,0.0,0.0,0.0,0.0,-2.1884,-2.1793,-2.2173,-2.2135,-2.1279,-1.9734,-1.7889,-1.6313,-1.5126,-1.5527,0.0,0.0,0.0,0.0,0.0,0.0,0.0,0.0,0.0,0.0,0.0,0.0,0.0,0.0,0.0,0.0,0.0,0.0,0.0,0.0,0.0,-1.5704,-1.5381,-1.5387,-1.5509,-1.58,-1.6253,0.0,0.0,0.0,0.0,0.0,-1.7415,-1.9337,-2.0582,-2.1046,-2.4122,-2.6044,-2.6892,-2.825,-2.8209,-2.6814,-2.3031,-2.1707,-2.1992,0.0,0.0,0.0,0.0,0.0,0.0,0.0,0.0,0.0,0.0,0.0,0.0,0.0,0.0,0.0,0.0,0.0,0.0,0.0,0.0,0.0,0.0,0.0,0.0,0.0,0.0,0.0,0.0,0.0,0.0,0.0,0.0,0.0,0.0,0.0,0.0,0.0,0.0,0.0,0.0,0.0,-1.6852,-1.6186,0.0,0.0,0.0,0.0,0.0,0.0,0.0,0.0,0.0,0.0,0.0,0.0,0.0,-2.2654,-2.2878,-2.368,-2.3797,-2.3241,-2.3156,-2.2613,-2.168,-2.1441,-2.0994,-2.0332,-1.9132,0.0,-1.6579,-1.6012,0.0,0.0,0.0,0.0,0.0,0.0,0.0,0.0,0.0,0.0,0.0,0.0,0.0,0.0,0.0,0.0,0.0,0.0,0.0,0.0,0.0,-1.8649,-1.8703,-1.9522,-2.0039,-1.9607,-1.7982,-1.8485,-1.8282,-1.7007,-1.7686,-1.8145,-1.8204,-2.0196,-2.2206,-2.4102,-2.9143,-3.1165,-3.0387,-3.2109,-3.255,-3.1841,-2.9915,-2.7272,-2.3998,-2.0896,0.0,0.0,0.0,0.0,0.0,0.0,0.0,0.0,0.0,0.0,0.0,0.0,0.0,0.0,0.0,0.0,0.0,0.0,0.0,0.0,0.0,0.0,0.0,0.0,0.0,0.0,0.0,0.0,0.0,0.0,0.0,0.0,0.0,0.0,0.0,0.0,0.0,0.0,0.0,-1.865,-1.8625,-1.7265,-1.8569,-1.9272,0.0,0.0,0.0,0.0,0.0,0.0,0.0,0.0,0.0,-2.2748,-2.377,-2.4438,-2.4628,-2.4558,-2.4558,-2.4628,-2.422,-2.375,-2.3226,-2.3344,-2.2932,-2.2131,-2.1863,-2.0824,-1.9216,-1.8025,-1.7474,-1.7377,0.0,0.0,0.0,0.0,-1.75,-1.7443,0.0,0.0,0.0,0.0,0.0,0.0,0.0,0.0,0.0,0.0,0.0,0.0,-2.1625,-2.1866,-2.2478,-2.3806,-2.3985,-2.3009,-2.0652,-2.0075,-1.9341,-1.8188,-1.8113,-1.8515,-1.9402,-2.2076,-2.5061,-2.8353,-3.3155,-3.4831,-3.3574,-3.5385,-3.5789,-3.5043,-3.5357,-3.2395,-2.7046,-2.4367,-2.176,-1.922,0.0,0.0,0.0,0.0,0.0,0.0,0.0,0.0,0.0,0.0,0.0,0.0,0.0,0.0,0.0,0.0,0.0,0.0,0.0,0.0,0.0,0.0,0.0,0.0,0.0,0.0,0.0,0.0,0.0,0.0,0.0,0.0,0.0,0.0,0.0,0.0,0.0,-2.0124,-2.0243,-1.8328,-2.0078,-2.0841,0.0,0.0,0.0,0.0,0.0,0.0,-2.2413,-2.3573,-2.4267,-2.4377,-2.5387,-2.6017,-2.615,-2.5812,-2.5929,-2.6454,-2.5693,-2.53,-2.5205,-2.5227,-2.4714,-2.3809,-2.3832,-2.3042,-2.163,-1.9891,-1.886,-1.8408,-1.8758,-1.8691,-1.8408,-1.8775,-1.8894,-1.8836,0.0,0.0,0.0,0.0,0.0,0.0,0.0,0.0,0.0,0.0,0.0,-2.1395,-2.3447,-2.48,-2.5941,-2.6881,-2.521,-2.422,-2.4494,-2.015,-1.8425,-2.035,-1.893,-1.8941,-2.0755,-2.5705,-2.9864,-3.314,-3.4741,-3.5774,-3.6312,-3.7629,-3.7584,-3.6432,-3.7644,-3.6443,-3.314,-2.8593,-2.5979,-2.4503,-1.9974,0.0,0.0,0.0,0.0,0.0,0.0,0.0,0.0,0.0,0.0,0.0,0.0,0.0,0.0,0.0,0.0,0.0,0.0,0.0,0.0,0.0,0.0,0.0,0.0,0.0,0.0,0.0,0.0,0.0,0.0,0.0,0.0,0.0,0.0,0.0,0.0,0.0,0.0,-1.8907,-2.1495,0.0,0.0,0.0,0.0,-2.3355,-2.343,-2.3759,-2.4425,-2.4338,-2.4561,-2.5134,-2.6238,-2.7118,-2.7689,-2.8399,-2.879,-2.8824,-2.8027,-2.7419,-2.704,-2.6023,-2.5337,-2.4859,-2.3857,-2.3388,-2.3122,-2.0876,-1.9917,-1.9816,-1.9164,-1.9316,-1.9811,-1.9147,-1.8894,-1.8792,0.0,0.0,0.0,0.0,0.0,0.0,0.0,0.0,-1.9708,-1.9708,-2.1754,-2.4149,-2.6624,-2.9041,-3.0993,-3.2254,-3.0863,-2.8938,-2.6516,-2.3029,-2.1522,-2.2552,-2.1366,-2.2683,-2.6984,-2.9737,-3.2108,-3.4159,-3.5878,-3.6641,-3.6507,-3.7793,-3.8153,-3.7749,-3.8661,-3.8216,-3.6532,-3.2285,-2.8842,-2.5974,-2.261,-2.0285,0.0,0.0,0.0,0.0,0.0,0.0,0.0,0.0,0.0,0.0,0.0,0.0,0.0,0.0,0.0,0.0,0.0,0.0,0.0,0.0,0.0,0.0,0.0,0.0,0.0,0.0,0.0,0.0,0.0,0.0,0.0,0.0,0.0,0.0,0.0,0.0,0.0,-2.3131,-2.4944,0.0,-2.4274,-2.5194,-2.5596,-2.4934,-2.5698,-2.6282,-2.6512,-2.7238,-2.7752,-2.7966,-2.864,-2.914,-2.9417,-2.9128,-2.9247,-2.9702,-2.8941,-2.8233,-2.7572,-2.7466,-2.6661,-2.5338,-2.4751,-2.4078,-2.3291,-2.2009,-2.1197,-2.0737,-2.0479,-2.023,-2.0018,-2.0281,-2.0378,-2.0344,0.0,0.0,0.0,0.0,0.0,0.0,0.0,0.0,-1.9872,-2.0322,-2.3041,-2.6204,-2.9564,-3.2501,-3.4729,-3.5949,-3.4172,-3.1722,-2.8835,-2.5342,-2.3728,-2.4505,-2.4388,-2.6353,-3.0733,-3.2826,-3.4502,-3.5836,-3.7105,-3.7524,-3.715,-3.7988,-3.8432,-3.8546,-3.9698,-3.9561,-3.8345,-3.6217,-3.2749,-2.8502,-2.6117,-2.4321,-2.2768,0.0,0.0,0.0,0.0,0.0,0.0,0.0,0.0,0.0,0.0,0.0,0.0,0.0,0.0,0.0,0.0,0.0,0.0,0.0,0.0,0.0,0.0,0.0,0.0,0.0,0.0,0.0,0.0,0.0,0.0,0.0,0.0,0.0,0.0,0.0,-2.5615,-2.6512,-2.7984,-2.8562,-2.7744,-2.8226,-2.8434,-2.8024,-2.8553,-2.8906,-2.8906,-2.9507,-2.9828,-2.9825,-2.991,-3.0178,-3.0634,-2.9846,-2.9784,-3.0463,-2.9719,-2.8958,-2.8197,-2.8203,-2.7383,-2.5946,-2.5463,-2.4712,-2.3712,-2.2987,-2.2243,-2.1566,-2.1566,-2.1245,-2.0842,-2.1363,-2.1566,-2.1566,0.0,0.0,0.0,0.0,0.0,0.0,0.0,-1.9708,-2.0187,-2.1515,-2.4029,-2.744,-3.2018,-3.4921,-3.6907,-3.7783,-3.4564,-3.2205,-3.1585,-2.6716,-2.4568,-2.6203,-2.7924,-2.9759,-3.1675,-3.4921,-3.7165,-3.8392,-3.8392,-3.8412,-3.8432,-3.8462,-3.8584,-3.8897,-4.0982,-4.0746,-3.8959,-4.0331,-3.7766,-3.2602,-3.0558,-2.9405,-2.8459,0.0,0.0,0.0,0.0,0.0,0.0,0.0,0.0,0.0,0.0,0.0,0.0,0.0,0.0,0.0,0.0,0.0,0.0,0.0,0.0,0.0,0.0,0.0,0.0,0.0,0.0,0.0,0.0,0.0,0.0,0.0,0.0,0.0,-2.4634,-2.7006,-2.8682,-2.8742,-3.0432,-3.1142,-2.9959,-3.0346,-3.123,-3.2625,-3.2012,-3.1555,-3.154,-3.0911,-3.0525,-3.05,-2.9871,-3.0077,-3.1232,-3.0613,-3.058,-3.1154,-3.0461,-2.9753,-2.901,-2.8229,-2.7452,-2.6691,-2.5947,-2.522,-2.4474,-2.3731,-2.3004,-2.233,-2.2296,-2.2296,-2.2296,-2.2296,-2.2296,-2.2296,0.0,0.0,0.0,0.0,0.0,0.0,0.0,-1.9708,-2.0187,-2.1515,-2.5241,-2.8981,-3.2138,-3.5714,-3.8167,-3.8891,-3.4883,-3.2414,-3.2701,-2.661,-2.4486,-2.7929,-3.2094,-3.5011,-3.6477,-3.7883,-3.8542,-3.8392,-3.8392,-3.8454,-3.8642,-3.9677,-4.0522,-4.1247,-4.282,-4.3236,-4.2711,-4.3092,-4.172,-3.8826,-3.4252,-3.178,-3.0513,0.0,0.0,0.0,0.0,0.0,0.0,0.0,0.0,0.0,0.0,0.0,0.0,0.0,0.0,0.0,0.0,0.0,0.0,0.0,0.0,0.0,0.0,0.0,0.0,0.0,0.0,0.0,0.0,0.0,0.0,0.0,0.0,-2.6746,-2.741,-2.8936,-3.0522,-3.1973,-3.3044,-3.3522,-3.3198,-3.3753,-3.3904,-3.3335,-3.3096,-3.2751,-3.2243,-3.1585,-3.0983,-3.0528,-3.0308,-3.0139,-2.999,-3.0206,-3.0393,-3.0539,-3.0793,-3.0514,-2.9786,-2.9583,-2.8753,-2.7452,-2.6725,-2.5981,-2.5236,-2.4508,-2.3763,-2.3038,-2.2513,-2.2296,-2.2296,-2.2296,-2.2296,-2.2296,0.0,0.0,0.0,0.0,0.0,0.0,0.0,-1.9708,-2.0382,-2.2248,-2.6063,-2.9699,-3.2602,-3.5474,-3.7225,-3.7345,-3.428,-3.1905,-3.091,-2.7511,-2.7335,-3.1427,-3.4984,-3.7345,-3.8362,-3.9334,-3.9499,-3.8826,-3.8826,-3.9076,-3.9561,-4.0699,-4.1889,-4.3132,-4.4561,-4.5211,-4.5227,-4.5553,-4.4683,-4.2823,-3.9569,-3.7236,-3.537,-3.2209,-3.1306,-3.1279,-2.8425,-2.7284,-2.6846,-2.4807,0.0,0.0,0.0,0.0,0.0,0.0,0.0,0.0,0.0,0.0,0.0,0.0,0.0,0.0,0.0,0.0,0.0,0.0,0.0,0.0,0.0,0.0,0.0,0.0,-2.7859,-2.9654,-3.0896,-3.1465,-3.2407,-3.4128,-3.4697,-3.5034,-3.5368,-3.5444,-3.5308,-3.482,-3.4255,-3.3619,-3.2961,-3.2273,-3.1481,-3.0537,-3.0243,-2.9925,-2.9509,-2.9529,-2.9805,-3.0293,-3.0658,-3.0569,-3.0108,-3.0108,-2.9261,-2.7773,-2.7351,-2.6573,-2.5575,-2.5135,-2.4541,-2.3797,0.0,0.0,0.0,0.0,-2.2581,-2.2296,0.0,0.0,0.0,0.0,0.0,0.0,0.0,-1.9657,-2.0621,-2.3161,-2.6273,-2.946,-3.2602,-3.4143,-3.4756,-3.4292,-3.2991,-3.0956,-2.8109,-2.9322,-3.1779,-3.5444,-3.6985,-3.8048,-3.8706,-3.9888,-4.0254,-3.9763,-3.952,-3.9975,-4.1093,-4.175,-4.2998,-4.4704,-4.6282,-4.6991,-4.7041,-4.7703,-4.6927,-4.5298,-4.5182,-4.369,-4.11,-3.7524,-3.718,-3.8028,-3.3286,-3.1202,-3.0364,-2.8015,0.0,0.0,0.0,0.0,0.0,0.0,0.0,0.0,0.0,0.0,0.0,0.0,0.0,0.0,0.0,0.0,0.0,0.0,0.0,0.0,0.0,0.0,0.0,0.0,-3.0896,-3.2392,-3.4354,-3.4083,-3.4173,-3.537,-3.5504,-3.575,-3.6415,-3.5894,-3.5782,-3.6415,-3.5182,-3.4144,-3.3529,-3.2796,0.0,0.0,0.0,-2.9633,-2.9508,-2.8903,-2.9098,-3.0102,-3.023,-3.0244,-3.0114,-3.0188,-2.943,-2.806,-2.806,-2.7266,-2.5981,-2.588,-2.5355,-2.4558,-2.3799,-2.3511,-2.3511,-2.3511,-2.3105,-2.255,0.0,0.0,0.0,0.0,0.0,0.0,0.0,-1.9424,-2.0471,-2.2598,-2.4807,-2.7051,-2.9295,-3.0702,-3.1854,-3.2811,-3.121,-3.0088,-2.9939,-3.2227,-3.4399,-3.6222,-3.8556,-4.0127,-4.0823,-4.1055,-4.1496,-4.2135,-4.0302,-4.0786,-4.3441,-4.3653,-4.4557,-4.6172,-4.845,-4.9407,-4.9424,-4.9559,-4.8859,-4.758,-4.6986,-4.493,-4.2066,-4.0778,-4.0157,-3.9753,-3.766,-3.6952,-3.6662,-3.4729,-3.2261,-2.9671,-2.7962,-2.454,0.0,0.0,0.0,0.0,0.0,0.0,0.0,0.0,0.0,0.0,0.0,0.0,0.0,0.0,0.0,0.0,0.0,0.0,0.0,-3.0763,-3.2258,-3.3634,-3.51,-3.519,-3.522,-3.5474,-3.5504,-3.5554,-3.5701,-3.5587,-3.5554,-3.5701,-3.4461,-3.3634,-3.3499,-3.2333,-3.157,-3.1316,-3.0672,-3.0083,-2.9599,-2.9388,-2.915,-2.885,-2.9827,0.0,-3.0278,-3.0757,-3.0497,-2.9649,-2.9649,-2.9161,-2.8299,-2.7638,-2.659,-2.5321,-2.4575,-2.4288,-2.4288,-2.4288,-2.4203,-2.4068,0.0,0.0,0.0,0.0,0.0,0.0,0.0,-1.8545,-1.9585,-2.1548,-2.3231,-2.4876,-2.6514,-2.7512,-2.7966,-2.7756,-2.7107,-2.8062,-3.1286,-3.3365,-3.5687,-3.8332,-4.0374,-4.1572,-4.1901,-4.1916,-4.2198,-4.2807,-4.1198,-4.1674,-4.4109,-4.4513,-4.5069,-4.5909,-4.8299,-4.9575,-4.9942,-4.977,-4.9577,-4.9287,-4.8367,-4.6522,-4.4227,-4.3225,-4.2641,-4.2147,-4.0487,-3.9528,-3.8818,-3.7246,-3.4902,-3.2383,-3.0778,-2.7996,-2.4833,0.0,0.0,0.0,0.0,0.0,0.0,0.0,0.0,0.0,0.0,0.0,0.0,0.0,0.0,-2.5023,0.0,0.0,-3.1091,-3.2736,-3.3844,-3.4741,-3.5415,-3.5504,-3.5504,-3.5504,-3.5504,-3.5504,-3.5504,-3.5504,-3.5504,-3.5504,-3.4562,-3.3844,-3.3514,-3.2557,-3.169,-3.1017,-3.0687,-3.0208,-2.9621,-2.9565,-2.9368,-2.9022,-2.9911,-3.0337,-3.0314,-3.0918,-3.0801,-3.0108,-3.0108,-2.9685,-2.8942,-2.8128,-2.7148,-2.6116,-2.5743,-2.5151,-2.4541,-2.4914,-2.4829,-2.4491,0.0,0.0,0.0,0.0,0.0,0.0,0.0,-1.7749,-1.8687,-2.0353,-2.1607,-2.2746,-2.3755,-2.4379,-2.4256,-2.3094,-2.397,-2.6898,-3.2377,-3.4216,-3.6761,-4.0606,-4.1961,-4.259,-4.259,-4.247,-4.275,-4.3466,-4.2097,-4.2548,-4.4699,-4.4976,-4.5221,-4.5504,-4.7758,-4.909,-4.9698,-4.942,-4.9719,-5.0265,-4.9075,-4.7773,-4.6436,-4.4892,-4.4242,-4.3883,-4.2043,-4.0292,-3.8721,-3.7883,-3.5722,-3.3273,-3.2506,-3.0843,-2.847,-2.4802,-2.3634,0.0,0.0,0.0,0.0,0.0,0.0,0.0,0.0,0.0,-2.1624,-2.3797,-2.5494,-2.7244,-2.9375,-3.1456,-3.3275,-3.4487,-3.5145,-3.5424,-3.5246,-3.5392,-3.5379,-3.5083,-3.5317,-3.5504,-3.5504,-3.5504,-3.5504,-3.5504,-3.4861,-3.4279,-3.3709,-3.2946,-3.2018,-3.0926,-3.0776,-3.0402,-2.9786,-2.9759,-2.9694,-2.9525,-3.0004,-3.0204,-3.0169,-3.0766,-3.0695,-3.0157,-3.0253,-2.9905,-2.9162,-2.85,-2.7807,-2.7148,-2.7148,-2.6336,-2.5202,-2.5642,-2.5439,-2.4931,0.0,0.0,0.0,0.0,0.0,0.0,0.0,0.0,-1.8381,-1.9203,-1.9957,-2.0468,-2.0608,-2.1223,-2.1978,-2.2909,-2.5667,-2.9112,-3.3304,-3.5766,-3.8601,-4.2036,-4.2836,-4.3185,-4.3185,-4.2656,-4.3516,-4.5828,-4.2842,-4.3269,-4.6837,-4.5478,-4.5459,-4.6586,-4.8412,-4.9261,-4.9326,-4.9309,-4.9719,-5.0272,-4.8504,-4.776,-4.7398,-4.5147,-4.3943,-4.323,-4.1878,-3.9409,-3.6971,-3.7943,-3.6159,-3.3609,-3.4375,-3.3082,-3.0639,-2.7546,0.0,-2.2618,-2.0882,-2.0176,-2.0225,-2.1594,-2.1619,-2.2274,0.0,0.0,-2.5831,-2.7989,-2.951,-3.0805,-3.1931,-3.3304,-3.4502,-3.5265,-3.5459,-3.518,-3.4279,-3.4953,-3.4973,-3.3554,-3.4628,-3.5504,-3.5504,-3.5504,-3.5504,-3.5504,-3.4861,-3.4474,-3.4399,-3.3185,-3.2437,-3.2287,-3.169,-3.1062,-3.0417,-3.0402,-3.0143,-2.9594,-2.9617,-2.961,-2.9599,-3.0163,-3.0365,-3.0319,-3.0841,-3.0666,-2.9973,-2.9888,-2.9414,-2.8739,-2.8739,-2.8213,-2.735,-2.6793,-2.6522,-2.6454,0.0,0.0,0.0,0.0,0.0,0.0,0.0,0.0,0.0,-1.7929,-1.8301,-1.8463,-1.8463,-1.8443,-1.8878,-2.0043,-2.3126,-2.6656,-3.0601,-3.4634,-3.8347,-4.1677,-4.2776,-4.329,-4.329,-4.306,-4.3883,-4.5923,-4.4028,-4.4393,-4.6884,-4.6236,-4.5878,-4.5956,-4.7612,-4.8381,-4.8412,-4.8211,-4.8658,-4.9313,-4.7599,-4.6431,-4.5597,-4.3858,-4.1579,-3.9275,-3.8721,-3.715,0.0,-3.4143,-3.3155,-3.2333,-3.2387,-3.1987,-3.0837,-2.7333,-2.6104,0.0,-2.359,-2.2673,-2.241,0.0,-2.3841,-2.4785,-2.6118,-2.6358,-2.6698,-2.8218,-3.0123,-3.173,-3.243,-3.3962,-3.5175,0.0,-3.5504,-3.5359,-3.4953,-3.4468,-3.3965,-3.3382,-3.348,-3.3932,-3.4829,-3.4906,-3.507,-3.5474,-3.5235,-3.4906,-3.4533,-3.3979,-3.3484,-3.3095,-3.2422,-3.1929,-3.1674,-3.1271,-3.0776,-3.0146,-3.0444,-3.0428,-3.0107,-3.0264,-3.0342,-3.0335,-3.0955,-3.0784,-3.0108,-3.0108,-2.9668,-2.8993,-2.8993,-2.8501,-2.7773,-2.7452,-2.7063,-2.6691,0.0,0.0,0.0,0.0,0.0,0.0,0.0,0.0,0.0,0.0,-1.6649,-1.668,-1.6837,-1.6642,-1.6816,-1.7585,-2.0594,-2.4134,-2.8047,-3.2768,-3.7024,-4.0681,-4.2102,-4.288,-4.306,-4.32,-4.3998,-4.5456,-4.4482,-4.4946,-4.6701,-4.6441,-4.6164,-4.59,-4.7072,-4.764,-4.763,-4.7398,-4.777,-4.8378,-4.6879,-4.544,-4.3974,-4.2046,-3.8966,-3.5654,-3.5654,-3.4249,-3.2062,-3.0283,-2.9642,-2.9612,-2.9684,-3.0043,-2.9854,-2.6933,-2.6448,-2.6481,-2.462,-2.4067,0.0,-2.4569,-2.5799,-2.6876,-2.6578,-2.7186,-2.8033,-2.88,-3.0815,-3.2534,-3.2912,-3.4375,-3.5504,-3.5504,-3.5504,-3.5392,-3.5133,-3.4053,-3.3238,-3.3112,-3.2465,-3.2509,-3.3827,-3.4294,-3.4713,-3.519,-3.54,-3.5295,-3.4786,-3.4608,-3.4294,-3.3784,-3.3125,-3.2706,-3.2512,-3.2019,-3.1436,-3.0791,-3.0867,-3.0757,-3.0492,-3.0253,-3.0215,-3.0314,-3.076,-3.0732,-3.0412,-3.0412,-3.0091,-2.9619,-2.9619,-2.9127,-2.8415,-2.8196,-2.752,-2.6691,0.0,0.0,0.0,0.0,0.0,0.0,0.0,0.0,0.0,0.0,0.0,0.0,0.0,-1.6195,-1.6522,-1.6552,-1.937,-2.285,-2.6819,-3.0561,-3.4673,-3.9269,-4.0741,-4.1782,-4.241,-4.3015,-4.3786,-4.4843,-4.3801,-4.4491,-4.6662,-4.5778,-4.6035,-4.7249,-4.7307,-4.7307,-4.7307,-4.7294,-4.7513,-4.7729,-4.6698,-4.5338,-4.3531,-3.9899,-3.6462,-3.3589,-3.3589,-3.0672,-2.6941,-2.7495,-2.6408,-2.5143,-2.7091,-2.7705,0.0,-2.7098,-2.5603,-2.3865,-2.2686,0.0,-2.4381,-2.6021,-2.7218,-2.8185,-2.8675,-2.9954,-3.1088,-3.1077,-3.2601,-3.393,-3.3945,-3.4806,-3.5504,-3.5504,-3.5504,-3.5166,-3.4177,-3.3721,-3.3145,-3.2251,-3.1779,-3.1795,0.0,-3.3724,-3.4518,-3.4533,-3.513,-3.5489,-3.5474,-3.4846,-3.4503,-3.4474,-3.3814,-3.3155,-3.2497,-3.2497,-3.2123,-3.1451,-3.025,-2.9936,-3.0488,-2.9807,-2.9823,-3.0293,-3.0314,-3.0642,-3.1157,-3.1157,-3.114,-3.1123,-3.1123,-3.0683,-2.9937,-2.923,-2.8011,-2.6691,0.0,0.0,0.0,0.0,0.0,0.0,0.0,0.0,0.0,0.0,0.0,0.0,0.0,0.0,0.0,0.0,-1.8593,-2.1172,-2.4151,-2.8338,-3.1941,-3.4709,-3.7764,-3.9305,-3.908,-4.0591,-4.1783,-4.2546,-4.2655,-4.3317,-4.4437,-4.4584,-4.4885,-4.5364,-4.6262,-4.6396,-4.6007,-4.6456,-4.5947,-4.4719,-4.3533,-4.1912,-3.9915,-3.6944,-3.3484,-3.0073,0.0,-2.6976,-2.5098,-2.4029,0.0,0.0,-2.414,-2.435,-2.4369,-2.4451,-2.3717,-2.3201,-2.4669,0.0,-2.6942,-2.7871,-2.8938,-2.9716,-2.9541,-2.9897,-3.0177,-2.9781,-3.0475,-3.1146,-3.1212,-3.2123,-3.3125,-3.4038,-3.4024,-3.4156,-3.4894,-3.3487,-3.236,-3.2383,-3.1746,0.0,0.0,0.0,0.0,-3.4444,-3.4728,-3.5026,-3.5489,-3.5295,-3.516,-3.516,-3.4502,-3.4069,-3.3814,-3.2946,-3.2378,-3.2138,-3.1271,-3.0746,-3.0505,-3.0271,-3.0027,-2.9776,-2.9727,-3.0059,-3.0601,-3.0601,-3.0838,-3.119,-3.119,-3.0446,-2.9416,-2.9634,-2.8433,-2.6691,0.0,0.0,0.0,0.0,0.0,0.0,0.0,0.0,0.0,0.0,0.0,0.0,0.0,0.0,0.0,0.0,0.0,-1.9594,-2.188,-2.5365,-2.827,-3.0374,-3.3527,-3.5145,-3.4951,-3.6447,-3.7674,-3.8556,-3.9026,-3.9888,-4.1182,-4.1654,-4.2237,-4.2955,-4.3823,-4.4092,-4.3898,-4.3868,-4.2796,-4.1047,-3.9529,-3.7569,-3.528,-3.2676,-2.9639,0.0,-2.4567,-2.343,-2.2667,-2.141,0.0,-2.1669,-2.1924,-2.2399,-2.2881,-2.2884,-2.316,-2.4004,-2.6436,-2.7708,-2.8586,-2.9302,-3.008,-3.047,-2.9917,-2.972,-2.9387,-2.827,-2.8858,-2.9397,-2.8716,-2.9623,-3.0872,-3.2152,-3.2011,-3.2434,-3.4422,-3.2881,-3.1997,-3.3092,-3.2283,-3.1631,0.0,0.0,0.0,-3.4099,-3.4608,-3.504,-3.5489,-3.5504,-3.5504,-3.5504,-3.507,-3.4726,-3.4503,-3.3649,-3.2856,-3.2123,-3.1705,-3.1032,-3.0191,-3.0171,-2.993,-2.9487,-2.9195,-2.954,-3.0293,-3.0293,-3.0658,-3.119,-3.119,-3.0615,-2.9822,-3.0023,-2.9347,-2.823,0.0,0.0,0.0,0.0,0.0,0.0,0.0,0.0,0.0,0.0,0.0,0.0,0.0,0.0,0.0,0.0,0.0,0.0,-2.0017,-2.1804,-2.3865,-2.6341,-2.8332,-2.963,-3.0155,-3.0901,-3.193,-3.3215,-3.3275,-3.4577,-3.7,-3.7045,-3.8078,-3.9903,-3.9978,-4.0322,-4.0801,-3.9574,-3.8272,-3.6851,-3.4936,-3.2617,-3.0028,-2.747,-2.527,-2.331,-2.144,-2.0303,0.0,0.0,0.0,0.0,0.0,-2.1981,-2.3189,-2.2628,-2.4021,-2.6088,-2.7745,-2.8612,-2.9276,-3.0382,-3.0633,-3.0457,-2.9842,-2.9529,-2.8765,-2.6793,-2.7786,-2.8455,-2.6552,0.0,-2.8845,-3.0074,-2.978,-3.0328,-3.2952,-3.2179,-3.2145,0.0,0.0,0.0,0.0,0.0,0.0,-3.3544,-3.4726,-3.5474,-3.5504,-3.5504,-3.5504,-3.5504,-3.5504,-3.519,-3.4563,-3.4533,-3.3499,-3.1555,-3.1555,-3.0883,-2.9711,-2.9666,-2.9622,-2.9521,-2.8841,-2.9206,-3.0258,-3.0279,-3.0651,-3.1151,-3.119,-3.1173,-3.1055,-3.0395,-3.0548,-3.0886,0.0,0.0,0.0,0.0,0.0,0.0,0.0,0.0,0.0,0.0,0.0,0.0,0.0,0.0,0.0,0.0,0.0,0.0,-1.8001,-1.9889,-2.1217,-2.1784,-2.4612,-2.6014,-2.5673,-2.7686,-2.8913,-2.9251,-3.0145,-3.0954,-3.1584,-3.2048,-3.2542,-3.3066,-3.4083,-3.4321,-3.4022,-3.4186,-3.323,-3.1495,-3.0492,-2.9086,-2.741,-2.5726,-2.4208,-2.2808,-2.1799,0.0,0.0,0.0,0.0,0.0,0.0,-2.3929,-2.4694,-2.4754,-2.6028,-2.7745,-2.9013,-3.0043,-3.0834,-3.1122,-3.0896,-3.0256,-2.885,-2.7885,-2.6769,-2.4998,-2.4408,-2.4064,-2.363,-2.5098,0.0,-2.9409,-3.025,0.0,-3.4519,-3.397,0.0,-3.4392,0.0,-3.4412,-3.3574,-3.4397,0.0,0.0,-3.4547,-3.4966,-3.5474,-3.5504,-3.5504,-3.5504,-3.5504,-3.5429,-3.525,-3.4758,-3.3724,-3.2243,-3.2243,-3.1795,-3.0987,-3.0507,-3.0246,-3.0199,-2.9592,-2.9465,-2.9746,-3.019,-3.0446,-3.0559,-3.1015,-3.0869,-3.0429,-3.0784,-3.0328,-2.967,0.0,0.0,0.0,0.0,0.0,0.0,0.0,0.0,0.0,0.0,0.0,0.0,0.0,0.0,0.0,0.0,0.0,0.0,0.0,-1.7527,-1.8372,-1.8465,-2.0721,-2.1806,-2.1424,-2.28,-2.3712,-2.4072,-2.4989,-2.575,-2.637,-2.6933,-2.7518,-2.8115,-2.8861,-2.9167,-2.9066,-2.8861,-2.7956,0.0,0.0,-2.4256,-2.322,-2.2415,-2.1639,-2.1015,0.0,0.0,0.0,0.0,0.0,-2.4495,-2.493,-2.5423,-2.5938,-2.651,0.0,-2.9139,-3.0495,-3.1486,-3.2014,-3.1512,-3.0997,-3.0055,-2.7883,-2.6339,-2.4802,-2.2598,-2.1904,0.0,-2.1144,-2.2605,-2.4723,0.0,0.0,0.0,-3.3556,-3.3831,-3.3977,0.0,-3.5265,0.0,-3.4457,-3.5055,-3.534,0.0,-3.4921,-3.51,-3.5489,-3.5504,-3.5504,-3.5504,-3.5504,-3.5504,-3.5504,-3.4848,-3.4098,-3.3365,-3.2781,-3.2288,-3.1899,-3.0956,-3.0507,-3.0447,-2.9549,-2.9466,-2.9952,-2.9986,-3.0291,-3.0771,-3.1104,-3.0969,-3.0632,-3.1055,-3.0685,-3.0093,0.0,0.0,0.0,0.0,0.0,0.0,0.0,0.0,0.0,0.0,0.0,0.0,0.0,0.0,0.0,0.0,0.0,0.0,0.0,0.0,-1.5778,-1.6083,-1.7096,-1.7646,-1.7646,-1.772,-1.8139,-1.8921,-1.9453,-2.0386,-2.1673,-2.2137,-2.2975,-2.4075,-2.4075,-2.4422,-2.4871,-2.3698,-2.2867,-2.2203,-2.0506,-1.9482,-1.8947,0.0,0.0,0.0,0.0,0.0,0.0,0.0,-2.535,-2.5093,-2.638,-2.6912,-2.7239,-2.8176,-2.9176,-3.0331,-3.1813,-3.2528,-3.2616,-3.1637,-3.0783,-2.9478,-2.6876,-2.4877,-2.2799,-2.0137,0.0,-2.0128,-1.9149,-2.0532,-2.2636,-2.5077,0.0,-2.8078,-3.1973,-3.3021,-3.3893,-3.5317,-3.5654,-3.5699,-3.5519,-3.5654,-3.5684,-3.5519,-3.5504,-3.5504,-3.5504,-3.5504,-3.5504,-3.5504,-3.5504,-3.5504,-3.5504,-3.4906,-3.4593,-3.4503,-3.332,-3.2677,-3.2452,-3.1315,-3.0731,-3.0582,-2.9475,-2.9565,-3.0454,-2.9969,-3.0315,-3.1185,-3.1176,-3.1194,-3.119,-3.1109,-3.1131,-3.119,0.0,0.0,0.0,0.0,0.0,0.0,0.0,0.0,0.0,0.0,-1.3773,0.0,0.0,0.0,0.0,0.0,0.0,0.0,0.0,0.0,0.0,-1.4508,-1.502,-1.5275,-1.5275,-1.5714,-1.625,-1.6914,-1.7442,-1.8092,-1.8823,-1.8899,-1.9066,-1.9315,-1.9315,-1.9371,-1.944,-1.9225,-1.9072,-1.8927,-1.8588,-1.8374,-1.8264,-1.8266,0.0,0.0,0.0,0.0,0.0,0.0,-2.7234,-2.8437,-2.9508,-2.9712,-2.9657,-3.0036,-3.062,-3.1273,-3.2014,-3.1951,-3.1637,-3.1436,-2.9616,-2.7381,-2.5523,-2.31,0.0,0.0,-1.8535,-1.8506,-1.8319,-2.059,-2.3379,-2.597,0.0,0.0,0.0,0.0,-3.4584,0.0,0.0,0.0,0.0,-3.6462,0.0,0.0,-3.5504,-3.5504,-3.5504,-3.5504,-3.5504,-3.5504,-3.5504,-3.5504,-3.5504,-3.5385,-3.504,-3.4503,-3.4279,-3.3559,-3.2497,-3.2243,-3.1839,-3.1316,-3.1092,-3.0818,-3.0533,-3.0906,-3.0887,-3.0644,-3.0592,-3.0839,-3.1219,-3.065,-3.076,-3.119,0.0,0.0,0.0,0.0,0.0,0.0,0.0,0.0,0.0,0.0,-1.6096,-1.5138,0.0,0.0,0.0,0.0,0.0,0.0,0.0,0.0,0.0,0.0,0.0,0.0,-1.4698,-1.4937,-1.509,-1.5095,0.0,-1.5905,-1.594,-1.6515,-1.6802,-1.6802,-1.7133,-1.7271,-1.7271,-1.7271,-1.7271,-1.7271,-1.7271,-1.7271,0.0,0.0,0.0,0.0,0.0,0.0,0.0,0.0,-2.5935,-2.7556,-3.0256,-3.0926,-3.0684,-3.0619,-3.0984,-3.1512,-3.2064,-3.2026,-3.1687,-3.1122,-2.9126,-2.6628,-2.4092,0.0,0.0,0.0,-1.7509,-1.7767,-1.8046,-2.0108,0.0,-2.4672,0.0,0.0,0.0,0.0,0.0,0.0,0.0,0.0,0.0,-3.6058,-3.6163,-3.5549,-3.5504,-3.5504,-3.5504,-3.5504,-3.5504,-3.5504,-3.5504,-3.5504,-3.5504,-3.5504,-3.534,-3.4996,-3.4307,-3.3634,-3.3006,-3.2288,-3.1795,-3.1481,-3.1122,-3.0987,-3.1016,-3.0945,-3.0949,-3.0954,-3.0945,-3.131,-3.184,-3.1517,-3.1541,-3.1769,0.0,0.0,0.0,0.0,0.0,0.0,0.0,-1.5626,-1.666,-1.8799,-1.8278,-1.7362,-1.6403,-1.4137,-1.2555,0.0,0.0,0.0,0.0,0.0,0.0,0.0,0.0,0.0,0.0,0.0,0.0,-1.3883,-1.4303,0.0,0.0,0.0,0.0,0.0,-1.5898,-1.6068,-1.5991,-1.6099,-1.6141,0.0,0.0,-1.6387,0.0,0.0,0.0,0.0,0.0,0.0,0.0,0.0,-2.3969,-2.5454,-2.8948,-3.0206,-3.0304,-2.9986,-3.0532,-3.1348,-3.1888,-3.2039,-3.1775,-3.0708,-2.8499,-2.5837,-2.2962,-2.074,0.0,0.0,-1.693,-1.7463,-1.8007,0.0,-2.1333,0.0,-2.4612,-2.6757,0.0,0.0,0.0,0.0,0.0,0.0,0.0,-3.5624,0.0,-3.5519,-3.5504,-3.5504,-3.5504,-3.5504,-3.5504,-3.5504,-3.5504,-3.5504,-3.5504,-3.5504,-3.5504,-3.5489,-3.4427,-3.3844,-3.3664,-3.2632,-3.1989,-3.1675,-3.1165,-3.1137,-3.1466,-3.0913,-3.0993,-3.1413,-3.1259,-3.1614,-3.2187,-3.2203,-3.226,-3.2328,0.0,0.0,0.0,0.0,0.0,0.0,0.0,-1.6188,-1.7824,-2.1459,-1.9882,-1.8413,-1.8509,-1.5463,-1.2949,0.0,0.0,0.0,0.0,0.0,0.0,0.0,0.0,0.0,0.0,0.0,0.0,-1.3799,-1.3865,0.0,0.0,0.0,0.0,0.0,0.0,-1.4665,-1.4353,-1.4773,0.0,0.0,0.0,0.0,0.0,0.0,0.0,0.0,0.0,0.0,0.0,0.0,0.0,-2.3917,-2.4789,-2.629,-2.7746,-2.7619,0.0,0.0,-3.1323,-3.1461,-3.121,-3.0131,-2.7067,-2.3954,-2.2623,0.0,0.0,-1.6651,-1.693,-1.7463,-1.8007,-1.9135,-2.0767,-2.3195,-2.4201,-2.6069,0.0,0.0,0.0,0.0,0.0,0.0,0.0,-3.6043,-3.6148,-3.5549,-3.5504,-3.5504,-3.5504,-3.5504,-3.5504,-3.5504,-3.5504,-3.5504,-3.5504,-3.5504,-3.5504,-3.5504,-3.5385,-3.4996,-3.4414,-3.4294,-3.3559,-3.2392,-3.2333,-3.2004,-3.1511,-3.1436,-3.1435,-3.1417,-3.0816,-3.0967,-3.1514,-3.1564,-3.1927,-3.2475,0.0,0.0,0.0,0.0,0.0,0.0,0.0,-1.6942,-1.8213,-2.139,-2.0558,-1.9369,-1.8703,-1.6234,-1.3818,0.0,0.0,0.0,0.0,0.0,0.0,0.0,0.0,0.0,0.0,0.0,-1.3017,-1.3262,-1.3262,0.0,0.0,0.0,0.0,0.0,0.0,-1.462,-1.4463,-1.44,0.0,0.0,0.0,0.0,0.0,0.0,0.0,0.0,0.0,0.0,0.0,0.0,0.0,0.0,-2.0878,-2.2138,0.0,0.0,-2.7381,-2.8875,-3.0093,-3.067,-3.0658,-2.9553,-2.6615,-2.3615,-2.2146,0.0,-1.7234,-1.6613,-1.668,-1.7076,-1.7947,-1.8825,-2.0096,-2.2125,-2.2682,-2.4103,-2.7649,0.0,0.0,0.0,0.0,0.0,0.0,0.0,-3.5789,-3.5534,-3.5504,-3.5504,-3.5504,-3.5504,-3.5504,-3.5504,-3.5504,-3.5504,-3.5504,-3.5504,-3.5504,-3.5504,-3.5085,-3.4773,-3.4474,-3.3649,-3.3006,-3.2497,-3.2064,-3.175,-3.1511,-3.1511,-3.1511,-3.1481,-3.1212,-3.176,-3.2698,-3.2316,-3.2813,-3.3623,0.0,0.0,0.0,0.0,0.0,0.0,-1.6722,-1.7297,-1.8278,-2.0677,-2.02,-1.9283,-1.834,-1.5963,-1.3789,-1.2122,0.0,0.0,0.0,0.0,0.0,0.0,0.0,0.0,0.0,0.0,-1.3238,-1.343,-1.3238,-1.3176,0.0,0.0,-1.3529,-1.3552,0.0,0.0,0.0,0.0,0.0,0.0,0.0,0.0,0.0,0.0,0.0,0.0,0.0,0.0,0.0,0.0,0.0,0.0,0.0,0.0,0.0,0.0,-2.5259,-2.7042,-2.8235,-2.9315,-2.9767,-2.831,-2.5699,-2.3002,0.0,-1.8859,-1.6954,-1.6368,-1.638,-1.6774,-1.7686,-1.8391,-1.9393,-2.1177,-2.16,-2.2772,-2.5869,0.0,0.0,0.0,0.0,-3.3649,0.0,-3.5265,-3.5504,-3.5504,-3.5504,-3.5504,-3.5504,-3.5504,-3.5504,-3.5504,-3.5504,-3.5504,-3.5504,-3.5504,-3.5504,-3.5489,-3.5011,-3.4786,-3.4741,-3.3814,-3.3185,-3.2781,-3.2288,-3.1869,-3.1511,-3.1511,-3.1511,-3.1511,-3.1511,-3.2379,-3.3546,-3.2866,-3.3574,-3.4745,0.0,0.0,0.0,0.0,0.0,0.0,0.0,-1.7011,-1.7989,-1.961,-1.867,-1.7776,-1.7617,-1.4378,-1.2398,-1.2856,0.0,0.0,0.0,0.0,0.0,0.0,0.0,0.0,0.0,0.0,-1.4073,-1.4675,-1.4073,-1.3802,-1.3779,-1.32,-1.2905,-1.2905,0.0,0.0,0.0,0.0,0.0,0.0,0.0,0.0,-1.5628,0.0,0.0,0.0,0.0,0.0,0.0,0.0,0.0,0.0,0.0,-1.6949,-1.6993,0.0,-2.2585,-2.5624,-2.5636,-2.7256,-2.8374,-2.6189,-2.3966,-2.1711,0.0,-1.7676,-1.6337,-1.572,-1.6073,-1.668,-1.7209,-1.7747,-1.8707,-2.0586,-2.1344,-2.2622,-2.5255,0.0,0.0,0.0,0.0,-3.2781,-3.3455,-3.4726,-3.5504,-3.5504,-3.5504,-3.5504,-3.5504,-3.5504,-3.5504,-3.5504,-3.5504,-3.5504,-3.5504,-3.5504,-3.5504,-3.5504,-3.5489,-3.5489,-3.5489,-3.5489,-3.4741,-3.3484,-3.3484,-3.2736,-3.1511,-3.1511,-3.1511,-3.1511,-3.1511,-3.2403,-3.3597,-3.2862,-3.3899,-3.5572,0.0,0.0,0.0,0.0,0.0,0.0,0.0,-1.4782,-1.5575,-1.6835,-1.615,-1.5677,-1.5975,-1.3748,-1.2389,-1.2866,0.0,0.0,0.0,0.0,0.0,0.0,0.0,0.0,0.0,0.0,-1.4653,-1.5249,-1.5838,-1.5643,-1.4753,-1.4673,-1.4139,-1.3301,-1.3032,-1.2827,0.0,0.0,0.0,0.0,0.0,-1.4529,-1.51,0.0,0.0,0.0,0.0,0.0,0.0,0.0,0.0,0.0,0.0,0.0,0.0,-1.701,-1.9196,-2.1882,-2.3037,-2.4111,-2.4675,-2.3615,-2.197,-2.0192,-1.8692,-1.7075,-1.582,-1.5632,-1.5742,-1.6157,-1.7126,-1.7442,-1.844,-2.114,-2.1726,-2.2723,0.0,0.0,0.0,0.0,-3.2781,-3.4637,0.0,0.0,-3.5504,-3.5504,-3.5504,-3.5504,-3.5504,-3.5504,-3.5504,-3.5504,-3.5504,-3.5504,-3.5504,-3.5504,-3.5504,-3.5504,-3.5504,-3.5504,-3.5489,-3.5026,-3.4562,-3.4174,-3.3694,-3.326,-3.2841,-3.2363,-3.2168,-3.2168,-3.2168,-3.2482,-3.29,-3.2629,-3.3263,-3.4219,0.0,0.0,0.0,0.0,0.0,0.0,0.0,-1.3431,-1.384,-1.472,-1.4068,-1.3838,-1.4655,-1.2794,-1.1784,-1.2568,0.0,0.0,0.0,0.0,0.0,0.0,0.0,0.0,0.0,-1.4684,-1.5468,-1.6527,-1.7002,-1.6763,-1.5892,-1.5736,-1.4899,-1.3496,-1.3232,-1.3027,0.0,0.0,0.0,0.0,-1.324,-1.3894,-1.4801,0.0,0.0,0.0,0.0,0.0,0.0,0.0,0.0,0.0,0.0,0.0,0.0,0.0,-1.676,-1.8355,0.0,-2.1468,-2.2071,-2.1506,-2.0426,0.0,-1.7774,-1.6676,-1.5864,-1.5654,-1.5776,-1.616,-1.6866,-1.7146,-1.8074,-2.0452,-2.1226,-2.2294,0.0,0.0,0.0,0.0,0.0,0.0,0.0,-3.5355,-3.5504,-3.5504,-3.5504,-3.5504,-3.5504,-3.5504,-3.5504,-3.5504,-3.5504,-3.5504,-3.5504,-3.5504,-3.5504,-3.5504,-3.5504,-3.5504,-3.5489,-3.5055,-3.4726,-3.4474,-3.3784,-3.3499,0.0,-3.2781,-3.2512,-3.2542,-3.2781,-3.3074,-3.3367,-3.3004,-3.3857,-3.5101,0.0,0.0,0.0,0.0,0.0,0.0,0.0,0.0,0.0,0.0,-1.2449,-1.2287,-1.3455,-1.1621,-1.0771,0.0,0.0,0.0,0.0,0.0,0.0,0.0,0.0,0.0,0.0,-1.5265,-1.6455,-1.8204,-1.7788,-1.7431,-1.707,-1.6602,-1.5388,-1.3594,-1.3564,-1.3301,0.0,0.0,0.0,0.0,-1.2634,-1.3346,0.0,0.0,0.0,0.0,0.0,0.0,0.0,0.0,0.0,0.0,0.0,0.0,0.0,0.0,0.0,0.0,0.0,-1.917,-2.0214,0.0,0.0,-1.8398,-1.6726,-1.6384,0.0,-1.572,-1.6051,-1.647,-1.66,-1.7012,-1.7779,-1.9203,-2.0388,-2.1802,0.0,-2.6298,0.0,0.0,-3.326,0.0,-3.4518,-3.513,-3.5504,-3.5504,-3.5504,-3.5504,-3.5504,-3.5504,-3.5504,-3.5504,-3.5504,-3.5504,-3.5504,-3.5504,-3.5504,-3.5504,-3.5504,-3.5504,-3.5504,-3.5504,-3.516,-3.4548,-3.3903,-3.3634,-3.3589,-3.2931,-3.2647,-3.2706,-3.332,-3.4,-3.4531,-3.3834,-3.5239,-3.7328,0.0,0.0,0.0,0.0,0.0,0.0,0.0,0.0,0.0,0.0,-1.1613,-1.1322,-1.1627,-1.0854,-1.043,0.0,0.0,0.0,0.0,0.0,0.0,0.0,0.0,0.0,0.0,-1.5085,-1.6409,-1.8204,-1.9744,-1.9648,-1.8019,-1.8787,-1.7499,-1.4473,-1.4104,-1.3549,0.0,0.0,0.0,0.0,-1.2837,-1.3055,0.0,0.0,0.0,0.0,-1.5219,-1.5449,0.0,0.0,0.0,0.0,0.0,0.0,0.0,0.0,-1.5605,-1.5638,-1.6145,0.0,-1.6936,-1.7225,-1.7177,-1.6868,0.0,-1.5794,-1.5776,0.0,0.0,-1.6219,-1.7547,-1.7576,-1.8536,-2.2057,-2.2937,-2.4179,-2.7062,0.0,0.0,-3.4532,-3.4936,-3.51,-3.525,-3.5415,-3.5504,-3.5504,-3.5504,-3.5504,-3.5504,-3.5504,-3.5504,-3.5504,-3.5504,-3.5504,-3.5504,-3.5504,-3.5504,-3.5504,-3.5504,-3.5504,-3.5504,-3.5504,-3.5415,-3.525,-3.51,-3.504,-3.4981,-3.4307,-3.4039,-3.4038,-3.4219,-3.4057,-3.3819,-3.4146,-3.4364,-3.4613,0.0,0.0,0.0,0.0,0.0,0.0,0.0,0.0,0.0,0.0,0.0,0.0,0.0,0.0,0.0,0.0,0.0,0.0,0.0,0.0,0.0,0.0,0.0,0.0,-1.4068,-1.5108,-1.6717,-1.8932,-2.0401,-2.0415,-1.9056,-1.9509,-1.7962,-1.4746,-1.3926,-1.3311,0.0,0.0,0.0,-1.2876,-1.2465,0.0,0.0,0.0,0.0,0.0,-1.4465,-1.4627,0.0,-1.5357,-1.5894,-1.6082,0.0,0.0,0.0,0.0,-1.516,-1.5072,-1.5575,-1.5881,-1.6208,-1.6773,-1.6911,-1.6823,-1.651,0.0,0.0,0.0,0.0,0.0,-1.7618,-1.8063,-1.9268,-2.2357,-2.3671,0.0,0.0,0.0,0.0,-3.4831,-3.531,-3.5504,-3.5504,-3.5504,-3.5504,-3.5504,-3.5504,-3.5504,-3.5504,-3.5504,-3.5504,-3.5504,-3.5504,-3.5504,-3.5504,-3.5504,-3.5504,-3.5504,-3.5504,-3.5504,-3.5504,-3.5504,-3.5504,-3.5489,-3.5175,-3.522,-3.5444,-3.4788,-3.4503,-3.4533,-3.4848,-3.4547,-3.4023,-3.4696,-3.4934,-3.5095,0.0,0.0,0.0,0.0,0.0,0.0,0.0,0.0,0.0,0.0,0.0,0.0,0.0,0.0,0.0,0.0,0.0,0.0,0.0,0.0,0.0,0.0,0.0,-1.2695,-1.4224,-1.5254,-1.7043,-1.9685,-2.0453,-2.0435,-1.9728,-1.9659,-1.791,-1.4764,-1.3541,-1.2964,0.0,0.0,-1.25,-1.2739,-1.1985,0.0,0.0,0.0,0.0,0.0,0.0,0.0,0.0,-1.497,-1.5555,-1.5668,-1.5512,0.0,0.0,0.0,0.0,0.0,-1.5542,-1.6418,-1.7068,-1.7232,-1.7335,-1.7385,-1.7285,0.0,0.0,0.0,0.0,0.0,0.0,-1.8884,0.0,0.0,0.0,0.0,-3.063,-3.2093,-3.326,-3.4518,-3.5145,0.0,-3.5504,-3.5504,-3.5504,-3.5504,-3.5504,-3.5504,-3.5504,-3.5504,-3.5504,-3.5504,-3.5504,-3.5504,-3.5504,-3.5504,-3.5504,-3.5504,-3.5504,-3.5504,-3.5504,-3.5504,-3.5504,-3.5474,-3.4891,-3.4906,-3.531,-3.4831,-3.4593,-3.4578,-3.5235,-3.5145,-3.4728,-3.5295,-3.5894,-3.6554,0.0,0.0,0.0,0.0,0.0,0.0,0.0,0.0,0.0,0.0,0.0,0.0,0.0,0.0,0.0,0.0,0.0,0.0,0.0,0.0,0.0,0.0,-1.2172,-1.3194,-1.4902,-1.5397,-1.6768,-1.9121,-2.0639,-2.0506,-1.8912,-2.0506,-1.8933,-1.4774,-1.3818,-1.3213,-1.2905,-1.2812,-1.2607,-1.2301,-1.2155,0.0,0.0,0.0,0.0,0.0,0.0,0.0,0.0,-1.4107,-1.4947,-1.553,-1.4626,0.0,0.0,0.0,0.0,0.0,-1.6199,-1.7932,-1.9081,-1.7115,-1.7024,-1.7272,-1.676,0.0,0.0,0.0,0.0,0.0,0.0,-2.0913,-2.2572,0.0,0.0,-3.193,0.0,0.0,-3.4472,-3.525,0.0,-3.5504,-3.5504,-3.5504,-3.5504,-3.5504,-3.5504,-3.5504,-3.5504,-3.5504,-3.5504,-3.5504,-3.5504,-3.5504,-3.5504,-3.5504,-3.5504,-3.5504,-3.5504,-3.5504,-3.5504,-3.5504,-3.5504,-3.5489,-3.5385,-3.507,-3.4698,-3.5145,-3.4996,-3.4578,-3.5235,-3.5444,-3.5355,-3.5474,-3.5554,-3.5878,0.0,0.0,0.0,0.0,0.0,0.0,0.0,0.0,0.0,0.0,0.0,0.0,0.0,0.0,0.0,0.0,0.0,0.0,0.0,0.0,0.0,-1.27,-1.3182,-1.4202,-1.5867,-1.6657,-1.8423,-2.1227,-2.1788,-2.1544,-2.0572,-1.8974,-1.6873,-1.4394,-1.3545,-1.293,-1.2529,-1.2529,-1.2275,-1.1846,0.0,0.0,0.0,0.0,0.0,0.0,0.0,0.0,0.0,0.0,-1.4425,-1.4752,-1.4267,0.0,0.0,0.0,0.0,0.0,-1.5919,-1.754,-1.8812,-1.7726,-1.8419,-1.9001,-1.7705,0.0,0.0,0.0,0.0,0.0,0.0,0.0,-2.5423,-2.9911,0.0,-3.3784,-3.4414,-3.4503,-3.4623,0.0,-3.528,-3.5504,-3.5504,-3.5504,-3.5504,-3.5504,-3.5504,-3.5504,-3.5504,-3.5504,-3.5504,-3.5504,-3.5504,-3.5504,-3.5504,-3.5504,-3.5325,-3.4951,-3.5325,-3.513,-3.4442,-3.5175,-3.5295,-3.4966,-3.534,-3.5325,-3.5055,-3.537,-3.5325,-3.5055,-3.5385,-3.5504,-3.5504,-3.5504,-3.575,-3.615,0.0,0.0,0.0,0.0,0.0,0.0,0.0,0.0,0.0,0.0,0.0,0.0,0.0,0.0,0.0,0.0,0.0,0.0,0.0,0.0,-1.1247,-1.3379,-1.409,-1.5415,-1.7545,-1.8433,-2.0237,-2.3108,-2.2826,-2.2298,-2.1486,-1.7339,-1.4923,-1.4075,-1.3262,-1.2695,-1.2359,-1.2252,-1.1973,-1.1567,0.0,0.0,0.0,0.0,0.0,0.0,0.0,0.0,0.0,0.0,0.0,0.0,0.0,0.0,0.0,-1.3934,-1.4286,-1.4885,-1.5673,-1.7139,-1.8454,-1.8449,-1.9413,-2.0109,-1.9196,0.0,0.0,0.0,0.0,0.0,0.0,-2.425,0.0,-3.2749,-3.4188,-3.4711,-3.4711,-3.4711,-3.4711,-3.4711,-3.519,-3.5504,-3.5504,-3.5504,-3.5504,-3.5504,-3.5504,-3.5504,-3.5504,-3.5355,-3.5265,-3.5265,-3.5265,-3.5265,-3.5265,-3.5429,-3.516,-3.4518,-3.5175,-3.4801,-3.3544,-3.4891,-3.513,-3.4548,-3.5205,-3.5415,-3.528,-3.5444,-3.5415,-3.528,-3.5444,-3.5504,-3.5504,-3.5504,-3.5863,-3.6322,0.0,0.0,0.0,0.0,0.0,0.0,0.0,0.0,0.0,0.0,0.0,0.0,0.0,0.0,0.0,0.0,0.0,0.0,0.0,0.0,-1.1223,-1.3315,-1.4445,-1.675,-2.0414,-2.0509,-2.1365,-2.3108,-2.32,-2.2021,-1.9626,-1.6759,-1.4923,-1.4075,-1.3262,-1.2886,-1.2812,-1.2379,-1.1973,-1.1567,-1.1084,0.0,0.0,0.0,0.0,0.0,0.0,0.0,0.0,0.0,0.0,0.0,0.0,0.0,-1.3984,-1.3428,-1.3684,-1.4486,-1.6035,-1.7807,-1.9169,-1.892,-1.862,0.0,-2.0906,-2.0515,0.0,-2.31,0.0,0.0,0.0,-2.664,-3.0012,-3.3016,-3.4577,-3.5429,-3.5429,-3.5429,-3.5429,-3.5429,-3.5474,-3.5504,-3.5504,-3.5504,-3.5504,-3.5504,-3.5504,-3.5504,-3.5504,-3.4906,-3.4578,-3.4578,-3.4578,-3.4578,-3.4578,-3.519,-3.516,-3.4518,-3.5175,-3.4801,-3.3544,-3.4891,-3.513,-3.4548,-3.5205,-3.5145,-3.4638,-3.5235,-3.513,-3.4638,-3.525,-3.5504,-3.5504,-3.5504,-3.5537,-3.5782,0.0,0.0,0.0,0.0,0.0,0.0,0.0,0.0,0.0,0.0,0.0,0.0,0.0,0.0,0.0,0.0,0.0,0.0,0.0,0.0,-1.1022,-1.3729,-1.4282,-1.629,-2.0029,-2.1473,-2.3188,-2.5209,-2.353,-2.1185,-1.8162,-1.6009,-1.4707,-1.4075,-1.3262,-1.2734,-1.2441,-1.2002,-1.1575,-1.1134,-1.0693,-1.0449,0.0,0.0,0.0,0.0,0.0,0.0,0.0,0.0,-1.2764,-1.3124,-1.3174,-1.3366,-1.3509,-1.3261,-1.4098,-1.5231,-1.5832,-1.7796,-1.9652,-1.9557,-1.9697,0.0,0.0,-2.1706,-2.2357,-2.4129,-2.4883,0.0,0.0,0.0,-3.1389,-3.428,-3.5519,-3.6118,-3.6118,-3.5759,-3.5504,-3.5504,-3.5504,-3.5504,-3.5504,-3.5504,-3.5504,-3.5504,-3.5504,-3.5504,-3.5504,-3.4846,-3.4503,-3.4503,-3.4114,-3.3858,-3.3858,-3.4128,-3.3918,-3.3275,-3.4352,-3.4173,-3.2931,-3.4262,-3.4502,-3.3918,-3.5026,-3.5355,-3.513,-3.54,-3.5355,-3.5145,-3.54,-3.5504,-3.5504,-3.5504,-3.5504,-3.5587,0.0,0.0,0.0,0.0,0.0,0.0,0.0,0.0,0.0,0.0,0.0,0.0,0.0,0.0,0.0,0.0,0.0,0.0,-0.9179,-0.9399,-1.0666,-1.3267,-1.4082,-1.5963,-1.9162,-2.1443,-2.3317,-2.4839,-2.2155,-1.9458,-1.6728,-1.5373,-1.4599,-1.4297,-1.3576,-1.3094,-1.2749,-1.1946,-1.1496,-1.1248,-1.0566,-1.0381,0.0,0.0,0.0,0.0,0.0,0.0,0.0,0.0,-1.2383,-1.2579,-1.306,-1.3198,-1.3198,-1.3198,-1.4252,-1.5491,-1.586,-1.7604,-1.9445,0.0,0.0,0.0,-2.2988,-2.3714,-2.4596,-2.6185,-2.6845,0.0,0.0,0.0,0.0,0.0,-3.5744,-3.6178,-3.6178,-3.5789,-3.5504,-3.5504,-3.5504,-3.5504,-3.5504,-3.5504,-3.5504,-3.5504,-3.5295,-3.5175,-3.5175,-3.4337,-3.3858,-3.3858,-3.3425,-3.3185,-3.3185,-3.3395,-3.3275,-3.2826,-3.3529,-3.3275,-3.2228,-3.4008,-3.4322,-3.3559,-3.4921,-3.5504,-3.5504,-3.5504,-3.5504,-3.5504,-3.5504,-3.5504,-3.5504,-3.5504,-3.5504,-3.5537,0.0,0.0,0.0,0.0,0.0,0.0,0.0,0.0,0.0,0.0,0.0,0.0,0.0,0.0,0.0,0.0,0.0,0.0,-0.8663,-0.9199,-1.0192,-1.1737,-1.3923,-1.6041,-1.813,-2.0326,-2.1366,-2.117,-1.8725,-1.6794,-1.541,-1.4862,-1.4692,-1.4772,-1.4246,-1.4033,-1.3977,-1.2318,-1.1848,-1.2096,-1.0811,-1.0547,-1.0869,0.0,0.0,0.0,0.0,0.0,0.0,0.0,-1.2102,-1.2579,-1.306,-1.3198,-1.321,-1.3198,-1.3977,-1.5051,-1.6197,-1.7291,-1.8524,0.0,0.0,0.0,-2.6445,-2.6736,-2.7122,-2.9702,0.0,-2.9268,-3.1768,-3.1777,0.0,-3.4153,-3.5055,-3.5504,-3.5504,-3.5504,-3.5504,-3.5504,-3.5504,-3.5504,-3.5504,-3.5504,-3.5504,-3.5489,-3.4861,-3.4503,-3.4503,-3.323,-3.2512,-3.2512,-3.2482,-3.2497,-3.2497,-3.3155,-3.3469,-3.3469,-3.2826,-3.2138,-3.16,-3.4277,-3.4756,-3.3559,-3.4921,-3.5504,-3.5504,-3.5504,-3.5504,-3.5504,-3.5504,-3.5504,-3.5504,-3.5504,-3.5504,-3.5619,0.0,0.0,0.0,0.0,0.0,0.0,0.0,0.0,0.0,0.0,0.0,0.0,0.0,0.0,0.0,0.0,0.0,0.0,-0.8635,-0.8837,-0.9782,-1.1649,-1.3117,-1.4499,-1.5782,-1.7146,-1.8495,-1.9856,-1.9275,-1.8013,-1.6187,-1.6267,-1.5866,-1.5068,-1.5025,-1.4345,-1.3203,-1.2373,-1.2086,-1.2145,-1.1486,-1.1302,-1.134,0.0,0.0,0.0,0.0,0.0,0.0,0.0,0.0,0.0,-1.2943,-1.3496,-1.3752,-1.3328,-1.4531,-1.6075,-1.6401,-1.791,0.0,-2.1054,0.0,0.0,0.0,-2.7846,0.0,0.0,-3.0699,-3.0782,-3.252,-3.2739,0.0,-3.4302,-3.5055,-3.5504,-3.5504,-3.5504,-3.5504,-3.5504,-3.5504,-3.5504,-3.5504,-3.5504,-3.5295,-3.4816,-3.4623,-3.4309,-3.3814,-3.2976,-3.2512,-3.2512,-3.2034,-3.1795,-3.1795,-3.1989,-3.2079,-3.2093,-3.2363,-3.2392,-3.2243,-3.3514,-3.3873,-3.3559,-3.4921,-3.5504,-3.5504,-3.5504,-3.5504,-3.5504,-3.5504,-3.5504,-3.5504,-3.5504,-3.5504,-3.5537,0.0,0.0,0.0,0.0,0.0,0.0,0.0,0.0,0.0,0.0,-0.8644,0.0,0.0,0.0,0.0,0.0,0.0,0.0,0.0,0.0,-0.9612,-1.1649,-1.281,-1.4162,-1.5796,-1.6429,-1.7217,-1.8147,-1.7969,-1.716,-1.5816,-1.6927,-1.6867,-1.5862,-1.6188,-1.5418,-1.3761,-1.2854,-1.2369,-1.2164,-1.176,-1.1465,-1.1242,0.0,0.0,0.0,0.0,0.0,0.0,0.0,0.0,0.0,-1.2908,-1.3441,-1.3727,-1.3584,-1.4622,-1.5968,-1.6646,-1.838,0.0,-2.2057,-2.4433,-2.7051,-2.9579,0.0,0.0,0.0,0.0,-3.2288,-3.3773,-3.3867,0.0,-3.4767,-3.5235,-3.5504,-3.5504,-3.5504,-3.5504,-3.5504,-3.5504,-3.54,-3.513,-3.51,-3.4816,-3.4143,-3.3874,-3.3529,-3.3125,-3.2482,-3.2093,-3.2093,-3.1705,-3.1511,-3.1511,-3.1511,-3.1511,-3.1511,-3.1914,-3.2093,-3.2123,-3.308,-3.3499,-3.3559,-3.4921,-3.5504,-3.5504,-3.5504,-3.5504,-3.5504,-3.5504,-3.5504,-3.5504,-3.5504,-3.5504,-3.5504,0.0,0.0,0.0,0.0,0.0,0.0,0.0,0.0,0.0,0.0,-0.9535,-0.9285,0.0,0.0,0.0,0.0,0.0,0.0,0.0,0.0,-0.9703,-1.1777,-1.2995,-1.4763,-1.7262,-1.7322,-1.7027,-1.6417,-1.5797,-1.5262,-1.4891,-1.7142,-1.7664,-1.6782,-1.7447,-1.6742,-1.4906,-1.3445,-1.2577,-1.2106,-1.1741,-1.1312,-1.0859,-1.0897,0.0,0.0,0.0,0.0,0.0,0.0,0.0,0.0,-1.2855,-1.3188,-1.3391,-1.3946,-1.4441,-1.5181,-1.6922,0.0,0.0,-2.3084,-2.5779,0.0,-3.1958,-3.2922,-3.358,-3.5088,0.0,-3.3787,-3.5222,-3.4936,-3.4728,-3.5385,-3.5444,-3.5429,-3.5489,-3.5444,-3.5415,-3.5415,-3.5355,-3.507,-3.4474,-3.4414,-3.4144,-3.3455,-3.2856,-3.2452,-3.2392,-3.1824,-3.1466,-3.1406,-3.1466,-3.1451,-3.1331,-3.1451,-3.1466,-3.1406,-3.1406,-3.1451,-3.1555,-3.2901,-3.3559,-3.3739,-3.4981,-3.5504,-3.5504,-3.5504,-3.5504,-3.5504,-3.5504,-3.5504,-3.5504,-3.5504,-3.5504,-3.5504,0.0,0.0,0.0,0.0,0.0,0.0,0.0,0.0,0.0,0.0,0.0,0.0,0.0,0.0,0.0,0.0,0.0,0.0,0.0,0.0,-1.0252,-1.2332,-1.4201,-1.5674,-1.6663,-1.6688,-1.6632,-1.6476,-1.6788,-1.6626,-1.6056,-1.7934,-1.7983,-1.6502,-1.7116,-1.5986,-1.3497,-1.2751,-1.2165,-1.1712,-1.1623,-1.1531,-1.1395,-1.1032,-1.0767,0.0,0.0,0.0,0.0,0.0,0.0,0.0,-1.2473,-1.3226,-1.3934,-1.4065,-1.4461,-1.5356,-1.7493,-1.8773,0.0,0.0,-2.7156,-3.0612,-3.344,-3.3749,-3.3655,-3.453,-3.4867,-3.5083,-3.5442,-3.4936,-3.4728,-3.5385,-3.5055,-3.4891,-3.5429,-3.504,-3.4728,-3.4728,-3.4247,-3.3858,-3.3724,-3.3709,-3.344,-3.2781,-3.2572,-3.2258,-3.1735,-3.1585,-3.1256,-3.0746,-3.1227,-3.1017,-3.0013,-3.0987,-3.1241,-3.0731,-3.0731,-3.0972,-3.1555,-3.2901,-3.4068,-3.51,-3.537,-3.5504,-3.5504,-3.5504,-3.5504,-3.5504,-3.5504,-3.5504,-3.5504,-3.5504,-3.5504,-3.5504,0.0,0.0,0.0,0.0,0.0,0.0,0.0,0.0,0.0,0.0,0.0,0.0,0.0,0.0,0.0,0.0,0.0,0.0,0.0,0.0,0.0,-1.2887,-1.4418,-1.562,-1.6488,-1.6216,-1.6216,-1.65,-1.6823,-1.6794,0.0,-1.7949,-1.8,-1.6907,-1.7375,-1.6267,-1.3991,-1.3532,-1.2792,-1.1933,-1.1933,-1.1652,-1.1198,-1.099,-1.0618,-1.0254,-1.0506,0.0,0.0,0.0,0.0,0.0,0.0,0.0,-1.4116,-1.44,-1.4689,-1.5337,-1.729,0.0,0.0,-2.4987,0.0,-3.0956,-3.2677,-3.3036,-3.3215,-3.3873,-3.4547,-3.5011,-3.5011,-3.4758,-3.4518,-3.4532,-3.4247,-3.4128,-3.4487,-3.4233,-3.4008,-3.4008,-3.3709,-3.3365,-3.3051,-3.3021,-3.2751,-3.2064,-3.2019,-3.1869,-3.1525,-3.1197,-3.0866,-3.0507,-3.0567,-3.0268,-2.9621,-3.0552,-3.0717,-3.0058,-3.0357,-3.0838,-3.154,-3.2572,-3.3574,-3.4562,-3.4876,-3.5011,-3.504,-3.537,-3.5504,-3.5504,-3.5504,-3.5504,-3.5504,-3.5504,-3.5504,-3.5504,0.0,0.0,0.0,0.0,0.0,0.0,0.0,0.0,0.0,0.0,0.0,0.0,0.0,0.0,0.0,0.0,0.0,0.0,0.0,0.0,0.0,0.0,-1.4227,-1.5175,-1.6173,-1.5798,-1.5842,-1.6324,-1.6445,0.0,0.0,0.0,0.0,-1.7275,-1.7533,-1.6667,-1.4977,-1.4583,-1.3674,-1.2478,-1.2383,-1.1827,-1.1079,-1.1047,-1.0534,-0.9975,-1.0744,-1.1025,-1.1137,-1.193,0.0,0.0,0.0,0.0,-1.4129,-1.4821,-1.4959,-1.5285,-1.6991,0.0,-2.159,-2.6145,-2.8569,0.0,-3.1092,-3.1675,-3.2228,-3.3006,-3.3769,-3.4294,-3.4189,-3.4038,-3.3784,-3.3245,-3.3155,-3.32,-3.3305,-3.332,-3.332,-3.332,-3.3125,-3.2811,-3.2377,-3.2138,-3.1824,-3.1361,-3.1227,-3.1167,-3.1167,-3.0657,-3.0298,-3.0178,-2.9789,-2.9502,-2.9262,-2.9968,-3.0028,-2.9415,-3.0043,-3.0761,-3.1511,-3.1944,-3.2662,-3.3529,-3.4099,-3.4399,-3.4533,-3.4966,-3.522,-3.5325,-3.5205,-3.5235,-3.531,-3.5205,-3.5235,-3.5325,0.0,0.0,0.0,0.0,0.0,0.0,0.0,0.0,0.0,0.0,0.0,0.0,0.0,0.0,0.0,0.0,0.0,0.0,0.0,0.0,0.0,-1.3126,-1.4148,-1.4778,-1.4926,-1.5365,-1.5632,-1.572,0.0,0.0,0.0,0.0,0.0,-1.6613,0.0,0.0,-1.495,-1.4399,-1.3805,-1.321,-1.2689,-1.2394,-1.2223,-1.1701,-1.1436,-1.1332,-1.1455,-1.1518,-1.1528,-1.1652,-1.1955,0.0,0.0,0.0,-1.4201,-1.5281,-1.5261,-1.5381,0.0,0.0,-2.2366,0.0,-2.6589,-2.7739,0.0,0.0,-3.0328,0.0,-3.2766,-3.3455,-3.2886,-3.2273,-3.1869,-3.178,-3.1765,-3.1974,-3.2557,-3.2647,-3.2647,-3.2647,-3.1614,-3.1106,-3.1585,-3.0642,-3.0163,-3.0612,-3.0148,-2.9849,-2.9849,-2.9786,-2.9445,-2.8876,-2.9325,-2.9052,-2.7884,-2.9112,-2.9385,-2.8742,-2.9385,-3.0357,-3.1481,-3.1001,-3.1764,-3.3499,-3.3589,-3.3948,-3.4474,-3.3963,-3.4098,-3.4593,-3.3978,-3.4113,-3.4578,-3.3978,-3.4128,-3.4638,0.0,0.0,0.0,0.0,0.0,0.0,0.0,0.0,0.0,0.0,0.0,0.0,0.0,0.0,0.0,0.0,0.0,0.0,0.0,0.0,0.0,-1.3098,-1.3468,-1.4001,-1.4686,-1.4971,-1.5253,-1.561,0.0,0.0,0.0,-1.741,-1.7413,0.0,0.0,0.0,0.0,0.0,-1.4666,-1.4139,-1.362,-1.3199,-1.2878,-1.2689,-1.2215,-1.1714,-1.2256,-1.2228,-1.1934,-1.1934,-1.2249,-1.2645,-1.268,0.0,0.0,0.0,-1.5484,0.0,-1.7837,-1.914,-2.0502,0.0,-2.4161,-2.5623,-2.7458,0.0,-2.931,-3.0238,-3.0612,-3.0881,-3.1315,-3.115,-3.0823,-3.0492,-3.0447,-3.0537,-3.0836,-3.0881,-3.0881,-3.0881,-3.0342,-3.0103,-3.0417,-2.9924,-2.9726,-2.9968,-2.9756,-2.9457,-2.9056,-2.9026,-2.8727,-2.8064,-2.8334,-2.8199,-2.76,-2.8573,-2.8891,-2.8607,-2.8891,-2.9325,-2.9881,-3.0313,-3.139,-3.2946,-3.2946,-3.311,-3.338,-3.3469,-3.3664,-3.3903,-3.3604,-3.3664,-3.3888,-3.3604,-3.3679,-3.3918,0.0,0.0,0.0,0.0,0.0,0.0,0.0,0.0,0.0,0.0,0.0,0.0,0.0,0.0,0.0,0.0,0.0,0.0,0.0,0.0,0.0,-1.3037,-1.2948,-1.332,-1.4224,-1.4537,-1.4926,0.0,0.0,0.0,-1.741,-1.741,-1.7677,0.0,-1.7626,0.0,0.0,0.0,0.0,0.0,0.0,0.0,0.0,0.0,0.0,0.0,-1.2985,0.0,0.0,0.0,-1.2539,-1.2693,-1.255,-1.3269,0.0,0.0,0.0,0.0,0.0,0.0,-1.8378,-2.0029,-2.1837,-2.3443,0.0,0.0,-2.7454,0.0,-2.7609,-2.7656,-2.8584,-2.9196,-2.9355,-2.8918,-2.8992,-2.9097,-2.9097,-2.9397,-2.9606,-2.9606,-2.9457,-2.9427,-2.9592,-2.9142,-2.8918,-2.9082,-2.8933,-2.8532,-2.7874,-2.7993,-2.7859,-2.736,-2.7345,-2.742,-2.76,-2.8109,-2.8427,-2.8607,-2.8427,-2.8517,-2.8876,-2.9654,-3.0657,-3.1794,-3.2123,-3.2243,-3.2273,-3.2796,-3.3095,-3.323,-3.3066,-3.3095,-3.323,-3.3051,-3.3095,-3.3245,0.0,0.0,0.0,0.0,0.0,0.0,0.0,0.0,0.0,0.0,0.0,0.0,0.0,0.0,-1.1577,-1.1606,0.0,0.0,0.0,0.0,0.0,-1.2914,-1.2895,0.0,-1.2992,-1.4107,0.0,0.0,0.0,0.0,-1.741,-1.741,-1.7677,-1.8179,-1.7626,-1.7061,-1.65,0.0,0.0,0.0,0.0,0.0,0.0,0.0,0.0,0.0,0.0,0.0,0.0,0.0,0.0,0.0,0.0,-1.2859,-1.2817,0.0,0.0,0.0,0.0,-1.6602,0.0,-1.8296,0.0,0.0,0.0,0.0,-2.3822,-2.3354,-2.363,-2.397,-2.4026,-2.5542,-2.6782,-2.6752,-2.73,-2.7705,-2.7705,-2.8798,-2.9606,-2.9606,-2.9026,-2.8891,-2.9547,-2.7884,-2.7031,-2.766,-2.7121,-2.6452,-2.5794,-2.6363,-2.6701,-2.6632,-2.6632,-2.6971,-2.7585,-2.763,-2.7974,-2.8592,-2.7959,-2.8319,-2.9532,-2.8951,-2.9071,-2.9831,-3.1017,-3.1555,-3.1555,-3.1585,-3.1974,-3.2497,-3.1854,-3.1989,-3.2497,-3.1839,-3.2004,-3.2557,0.0,0.0,0.0,0.0,0.0,0.0,0.0,0.0,0.0,0.0,0.0,0.0,0.0,-1.3195,-1.3324,-1.357,-1.3707,0.0,0.0,0.0,0.0,-1.2929,-1.2905,-1.2905,-1.2905,-1.4095,0.0,0.0,0.0,-1.681,-1.741,-1.741,-1.7511,-1.7664,-1.7498,-1.7285,-1.7049,-1.6651,0.0,0.0,0.0,0.0,0.0,0.0,0.0,0.0,0.0,0.0,0.0,0.0,0.0,0.0,0.0,0.0,0.0,0.0,0.0,0.0,0.0,0.0,0.0,-1.7016,-1.7969,-1.8845,-1.9349,-2.0798,-2.1976,-2.1833,-2.1937,-2.2271,-2.3027,-2.4035,-2.4737,-2.4737,-2.4948,-2.5257,-2.5672,-2.6084,-2.6486,-2.691,-2.7138,-2.7357,-2.7591,-2.6994,-2.6692,-2.6941,-2.6333,-2.5674,-2.4993,-2.6004,-2.6198,-2.5337,-2.6153,-2.6731,-2.6971,-2.6527,-2.6856,-2.7959,-2.7285,-2.745,-2.8319,-2.8502,-2.8487,-2.8408,-3.0118,-3.0866,-3.0866,-3.0866,-3.1241,-3.1824,-3.16,-3.1645,-3.1824,-3.1585,-3.1645,-3.1854,0.0,0.0,0.0,0.0,0.0,0.0,0.0,0.0,0.0,0.0,0.0,0.0,0.0,0.0,-1.4406,-1.4675,-1.4698,-1.4363,-1.3573,-1.3695,-1.3613,-1.3214,-1.3017,-1.2905,-1.2905,-1.4095,0.0,0.0,0.0,0.0,0.0,-1.7087,-1.7087,-1.7087,-1.7087,-1.7087,0.0,0.0,0.0,-1.6437,0.0,0.0,-1.5148,0.0,0.0,0.0,0.0,0.0,0.0,0.0,0.0,0.0,0.0,0.0,0.0,0.0,0.0,0.0,-1.4754,0.0,0.0,0.0,0.0,-1.716,-1.7276,-1.8609,-1.9798,-1.9639,-1.9749,-2.0156,-2.1131,-2.1607,-2.2206,-2.3197,-2.337,-2.3535,-2.3957,-2.4154,-2.4391,-2.483,-2.545,-2.5857,-2.5877,-2.5892,-2.5897,-2.592,-2.5525,-2.4963,-2.4291,-2.554,-2.5854,-2.4963,-2.5809,-2.6363,-2.6587,-2.6153,-2.6378,-2.727,-2.7046,-2.7061,-2.7285,-2.7974,-2.8034,-2.766,-2.8978,-2.9654,-2.9924,-3.0582,-3.0957,-3.1182,-3.1406,-3.1511,-3.1511,-3.1511,-3.1511,-3.1511,0.0,0.0,0.0,0.0,0.0,0.0,0.0,0.0,0.0,0.0,0.0,0.0,0.0,0.0,0.0,-1.4721,-1.4744,-1.4744,-1.4698,-1.4167,-1.3839,-1.3815,0.0,0.0,0.0,-1.4084,-1.4698,0.0,0.0,0.0,0.0,0.0,-1.65,-1.65,-1.65,-1.65,-1.65,0.0,-1.65,-1.64,0.0,-1.5236,-1.563,0.0,0.0,0.0,-1.4823,-1.4118,0.0,-1.2542,0.0,0.0,0.0,0.0,0.0,0.0,0.0,0.0,0.0,0.0,0.0,0.0,0.0,0.0,-1.5128,-1.6117,-1.71,-1.6544,-1.6923,-1.7524,-1.8028,-1.8141,-1.9113,-2.2054,-2.258,-2.2594,-2.2647,-2.3197,-2.3622,-2.3622,-2.4111,-2.4511,-2.4663,-2.4566,-2.45,-2.4604,-2.459,-2.4291,-2.3625,-2.4837,-2.5555,-2.5561,-2.5561,-2.5884,-2.6527,-2.6527,-2.6542,-2.6572,-2.721,-2.7195,-2.6617,-2.727,-2.7585,-2.76,-2.7615,-2.8004,-2.8727,-3.0629,-3.1047,-3.0567,-3.1212,-3.1481,-3.1511,-3.1511,-3.1511,-3.1511,0.0,0.0,0.0,0.0,0.0,0.0,0.0,0.0,0.0,0.0,0.0,0.0,0.0,0.0,-1.6241,-1.5432,-1.5744,-1.5634,-1.4755,-1.496,-1.4915,-1.4468,-1.3873,-1.3766,-1.4177,-1.4525,-1.4926,-1.5343,-1.6129,-1.65,-1.65,-1.65,-1.65,0.0,-1.65,-1.65,-1.65,-1.65,0.0,-1.6437,-1.5756,-1.5575,0.0,0.0,0.0,0.0,0.0,-1.4072,-1.3686,0.0,-1.2247,-1.1409,0.0,0.0,0.0,0.0,0.0,0.0,-1.3429,0.0,0.0,0.0,0.0,0.0,-1.4883,-1.5496,-1.5977,-1.5444,-1.5768,-1.6208,-1.6358,-1.6722,-1.7397,-1.8652,-1.9503,-2.0325,-2.1191,-2.1432,-2.1694,-2.2124,-2.2736,-2.3336,-2.3858,-2.3896,-2.4107,-2.4574,-2.4141,-2.3804,-2.361,-2.3954,-2.4388,-2.4859,-2.4874,-2.4963,-2.5143,-2.5143,-2.5397,-2.5869,-2.5561,-2.5839,-2.6602,-2.6806,-2.7151,-2.763,-2.8124,-2.8143,-2.7959,-2.8981,-2.9849,-3.0522,-3.0717,-3.1062,-3.1511,-3.1511,-3.1511,-3.1511,0.0,0.0,0.0,0.0,0.0,0.0,0.0,0.0,0.0,0.0,0.0,0.0,0.0,0.0,-1.6964,-1.6064,-1.6293,-1.6207,-1.55,-1.5543,-1.5432,-1.5085,-1.4514,-1.4329,-1.4686,-1.4949,-1.5253,-1.561,-1.6194,-1.65,-1.65,-1.65,-1.65,0.0,0.0,0.0,0.0,0.0,0.0,0.0,-1.5668,0.0,0.0,-1.5185,-1.5185,0.0,0.0,0.0,-1.4264,-1.3193,-1.2342,0.0,0.0,0.0,0.0,0.0,0.0,0.0,0.0,0.0,0.0,0.0,0.0,0.0,-1.4161,-1.4579,-1.4853,-1.4351,-1.4661,-1.5097,-1.5324,-1.5618,-1.6095,-1.6886,-1.7541,-1.836,-1.9558,-1.9673,-1.9864,-2.0463,-2.0849,-2.1353,-2.2036,-2.2135,-2.2516,-2.34,-2.3112,-2.3214,-2.3977,-2.3759,-2.3924,-2.459,-2.4335,-2.4321,-2.4605,-2.4605,-2.4799,-2.5173,-2.5068,-2.5435,-2.6183,-2.6467,-2.6971,-2.7615,-2.8019,-2.7959,-2.7645,-2.8308,-2.9205,-3.0178,-3.0717,-3.1152,-3.1511,-3.1511,-3.1511,-3.1511,0.0,0.0,0.0,0.0,0.0,0.0,0.0,0.0,0.0,0.0,0.0,0.0,0.0,0.0,0.0,0.0,-1.6538,-1.65,-1.65,-1.6008,-1.5698,-1.5698,-1.513,-1.4835,-1.4915,-1.5365,-1.5632,-1.5698,-1.6238,-1.65,-1.65,-1.65,-1.65,-1.65,0.0,0.0,0.0,0.0,0.0,-1.6519,-1.5542,-1.5744,0.0,0.0,-1.5716,-1.6384,-1.5361,-1.5027,-1.484,-1.3218,-1.2363,0.0,0.0,0.0,0.0,0.0,-1.2281,0.0,0.0,0.0,0.0,0.0,-1.3713,0.0,-1.3278,-1.3563,-1.3784,-1.3312,-1.36,-1.4076,-1.4542,-1.473,-1.5144,-1.6152,-1.642,-1.6889,-1.8041,-1.8204,-1.8392,-1.8857,-1.8907,-1.9164,-1.9845,-1.9903,-2.0401,-2.1614,-2.1816,-2.2637,-2.4313,-2.388,-2.3879,-2.447,-2.3984,-2.3947,-2.4485,-2.4575,-2.4575,-2.45,-2.5083,-2.5465,-2.563,-2.6213,-2.6911,-2.76,-2.76,-2.76,-2.7645,-2.8308,-2.8996,-2.9726,-3.0913,-3.1436,-3.1511,-3.1511,-3.1511,-3.1511,0.0,0.0,0.0,0.0,0.0,0.0,0.0,0.0,0.0,0.0,0.0,0.0,0.0,0.0,0.0,0.0,-1.6785,-1.65,-1.65,-1.6402,-1.6315,-1.6315,-1.5754,-1.5644,-1.6129,-1.5798,-1.5842,-1.6315,-1.6445,-1.65,-1.65,-1.65,-1.65,-1.65,0.0,0.0,0.0,0.0,0.0,-1.7133,-1.6932,-1.695,-1.7133,-1.6911,-1.6687,-1.6412,-1.5768,-1.5552,-1.5385,-1.42,-1.3721,-1.3535,0.0,0.0,0.0,-1.2774,0.0,0.0,0.0,0.0,0.0,0.0,-1.3121,0.0,-1.3136,-1.3235,-1.3238,-1.2818,-1.2812,-1.2904,-1.2888,-1.3647,-1.4446,-1.5046,-1.5902,-1.6889,-1.8041,-1.8204,-1.8242,-1.8355,-1.8367,-1.8603,-1.9212,-1.9281,-1.9584,-2.0384,-2.1363,-2.2243,-2.3035,-2.3408,-2.3655,-2.3789,-2.4186,-2.4201,-2.3804,-2.4335,-2.4335,-2.3804,-2.3924,-2.4567,-2.5615,-2.5749,-2.6452,-2.76,-2.76,-2.76,-2.7645,-2.8308,-2.8996,-2.9681,-3.0417,-3.1017,-3.1511,-3.1511,-3.1511,-3.1511,0.0,0.0,0.0,0.0,0.0,0.0,0.0,0.0,0.0,0.0,0.0,0.0,0.0,0.0,0.0,0.0,0.0,0.0,0.0,-1.65,-1.65,-1.65,-1.6216,-1.6194,-1.6488,-1.6194,-1.6194,-1.65,-1.65,-1.65,-1.65,-1.65,-1.635,-1.612,-1.6375,0.0,0.0,0.0,-1.7442,-1.7679,-1.7402,0.0,-1.7272,-1.7015,-1.6726,-1.6425,-1.5894,-1.5517,-1.5259,-1.4994,-1.47,0.0,-1.4053,-1.3928,-1.3842,0.0,-1.3348,-1.3286,0.0,0.0,0.0,-1.2905,0.0,0.0,0.0,-1.2886,-1.2989,-1.2534,-1.2492,-1.2483,-1.2413,-1.2878,-1.3408,-1.3919,-1.4714,-1.5627,-1.6747,-1.6933,-1.7162,-1.7727,-1.73,-1.7295,-1.8167,-1.797,-1.8192,-1.9138,-2.089,-2.2011,-2.2286,-2.3134,-2.3595,-2.3595,-2.3939,-2.3954,-2.3595,-2.3939,-2.3939,-2.3595,-2.3595,-2.4298,-2.5615,-2.5615,-2.6333,-2.76,-2.76,-2.76,-2.7645,-2.8308,-2.8996,-2.9666,-3.0253,-3.0898,-3.1511,-3.1511,-3.1511,-3.1511,0.0,0.0,0.0,0.0,0.0,0.0,0.0,0.0,0.0,0.0,0.0,0.0,0.0,0.0,0.0,0.0,0.0,0.0,0.0,0.0,-1.65,-1.65,-1.65,-1.65,-1.65,-1.65,-1.65,-1.65,-1.65,-1.65,-1.65,-1.65,-1.6283,-1.5869,-1.63,0.0,0.0,0.0,0.0,-1.823,0.0,-1.7702,-1.7552,-1.7141,-1.6822,-1.6574,-1.6048,-1.5588,-1.5273,-1.5706,-1.5533,-1.5111,-1.4993,-1.4929,0.0,0.0,0.0,0.0,0.0,0.0,0.0,0.0,0.0,-1.2861,0.0,0.0,0.0,-1.2252,-1.2213,-1.2262,-1.2339,-1.2451,-1.2683,-1.311,-1.3716,-1.4416,-1.5207,-1.5335,-1.5826,-1.7064,-1.6321,-1.6095,-1.7134,-1.6798,-1.6952,-1.8044,-2.0037,-2.1312,-2.1492,-2.2635,-2.327,-2.3236,-2.3475,-2.3535,-2.343,-2.3535,-2.3595,-2.3595,-2.3595,-2.4298,-2.5615,-2.5615,-2.6333,-2.76,-2.76,-2.76,-2.7645,-2.8173,-2.8786,-2.946,-3.0208,-3.0898,-3.1511,-3.1511,-3.1511,-3.1511,-1.4675,-1.5722,0.0,0.0,0.0,0.0,0.0,0.0,0.0,0.0,0.0,0.0,0.0,0.0,0.0,0.0,0.0,0.0,-1.8619,0.0,0.0,-1.65,-1.65,-1.65,-1.65,-1.65,-1.65,-1.65,-1.65,-1.65,-1.65,-1.65,-1.6463,-1.64,-1.6475,0.0,0.0,0.0,-1.8329,0.0,-1.9259,-1.9148,0.0,-1.8655,-1.8037,-1.7146,-1.6604,-1.6362,-1.6333,0.0,-1.6357,-1.6194,0.0,-1.5496,-1.5264,-1.4133,0.0,0.0,0.0,0.0,0.0,0.0,-1.3164,-1.3223,-1.2389,0.0,-1.2168,-1.176,0.0,-1.1798,-1.216,0.0,0.0,-1.3092,-1.396,-1.4541,-1.4313,-1.4156,-1.4718,-1.6405,-1.607,-1.5932,-1.6538,-1.6538,-1.6782,-1.746,-1.8249,-1.9125,-2.0093,-2.137,-2.2035,-2.1934,-2.3011,-2.3325,-2.2808,-2.3325,-2.3595,-2.3595,-2.3595,-2.4298,-2.5615,-2.5615,-2.6333,-2.76,-2.76,-2.76,-2.76,-2.7675,-2.8124,-2.8831,-3.0028,-3.0898,-3.1511,-3.1511,-3.1511,-3.1511,-1.4652,-1.5399,0.0,0.0,0.0,0.0,0.0,0.0,0.0,0.0,0.0,0.0,0.0,0.0,0.0,0.0,0.0,-1.852,0.0,0.0,0.0,0.0,-1.65,-1.65,-1.65,-1.65,-1.65,-1.65,-1.65,-1.65,-1.65,-1.65,-1.6325,-1.6057,-1.635,0.0,-1.6473,0.0,-1.7773,0.0,0.0,-1.8817,0.0,-1.8893,-1.8243,-1.7229,-1.6701,-1.65,-1.65,-1.65,-1.65,-1.6457,0.0,0.0,0.0,-1.5096,0.0,0.0,0.0,0.0,0.0,0.0,0.0,0.0,-1.2686,-1.2607,-1.2549,-1.2387,0.0,0.0,0.0,0.0,0.0,0.0,-1.3209,-1.3669,-1.3531,-1.3245,-1.375,-1.5731,-1.5191,-1.5007,-1.5881,-1.6281,-1.66,-1.6861,-1.7761,-1.85,-1.8936,-2.0458,-2.1285,-2.1243,-2.2417,-2.2957,-2.2703,-2.3295,-2.3595,-2.3595,-2.3595,-2.4103,-2.5023,-2.5412,-2.6123,-2.7046,-2.742,-2.76,-2.76,-2.76,-2.8004,-2.8652,-2.919,-3.0028,-3.0913,-3.0913,-3.1167,-3.1511,0.0,0.0,0.0,0.0,0.0,0.0,0.0,0.0,0.0,0.0,0.0,0.0,-2.5609,-2.5107,0.0,0.0,-2.1645,-2.0218,0.0,0.0,-1.6977,0.0,0.0,0.0,0.0,-1.65,-1.65,-1.65,-1.65,-1.65,-1.65,-1.65,-1.6287,-1.5944,0.0,-1.6384,-1.6212,0.0,-1.7384,-1.7578,-1.7955,-1.8419,-1.8874,-1.8727,-1.8204,-1.7422,-1.6752,-1.65,-1.65,-1.65,-1.65,-1.65,-1.65,-1.65,-1.638,0.0,0.0,0.0,-1.4652,-1.4217,-1.3902,-1.3631,-1.3304,-1.3052,-1.2935,-1.2993,-1.3042,-1.2925,-1.2715,0.0,0.0,0.0,-1.235,-1.2223,0.0,-1.2906,-1.2729,-1.2489,-1.3037,-1.496,-1.4572,-1.4506,-1.5508,-1.6008,-1.6315,-1.65,-1.7316,-1.7881,-1.8017,-1.9538,-2.038,-2.035,-2.1869,-2.2613,-2.2433,-2.3206,-2.3595,-2.3595,-2.3595,-2.3947,-2.4634,-2.5292,-2.5974,-2.6632,-2.7315,-2.76,-2.76,-2.76,-2.7899,-2.8323,-2.8323,-2.9116,-3.0268,-3.0447,-3.0913,-3.1511,-1.6127,-1.6406,0.0,0.0,0.0,0.0,0.0,0.0,0.0,0.0,0.0,0.0,0.0,0.0,0.0,0.0,0.0,-2.2083,-2.2578,0.0,-1.8193,0.0,0.0,-1.7087,0.0,-1.65,-1.65,-1.65,-1.65,-1.65,-1.65,-1.65,-1.6488,-1.6475,-1.6488,-1.6823,-1.7332,-1.731,-1.7655,-1.8173,-1.8133,-1.8419,-1.8836,-1.8322,-1.8106,-1.7947,-1.6879,-1.65,-1.65,-1.65,-1.65,-1.65,-1.65,-1.65,-1.638,-1.5776,-1.561,0.0,-1.4156,-1.4094,-1.4152,-1.3164,-1.3208,-1.3379,-1.2993,-1.3193,-1.3369,-1.2993,-1.3193,-1.334,-1.2964,-1.2886,0.0,0.0,-1.2612,0.0,0.0,-1.1979,-1.2691,-1.3981,-1.4451,-1.4926,-1.5543,-1.561,-1.5864,-1.6457,-1.6534,-1.6778,-1.7297,-1.8495,-1.9093,-1.8979,-2.138,-2.2388,-2.1739,-2.2966,-2.3595,-2.3595,-2.3595,-2.3947,-2.4634,-2.5292,-2.5974,-2.6632,-2.7315,-2.76,-2.76,-2.76,-2.76,-2.763,-2.763,-2.8453,-2.9711,-3.0283,-3.0913,-3.1511,0.0,0.0,0.0,0.0,0.0,0.0,0.0,-2.3113,0.0,0.0,-2.7634,0.0,0.0,-3.0264,-2.9702,0.0,0.0,-2.4422,-2.2897,-2.0759,0.0,0.0,0.0,-1.8041,0.0,0.0,0.0,-1.6442,-1.6078,-1.5908,-1.5908,-1.6303,-1.65,-1.65,0.0,-1.66,0.0,0.0,0.0,0.0,0.0,-1.7909,-1.8419,-1.8192,-1.8106,-1.8007,-1.7291,-1.6795,-1.65,-1.65,-1.65,-1.65,-1.65,-1.65,-1.6457,-1.6259,-1.6194,-1.6008,-1.5208,-1.481,-1.4419,-1.3678,-1.331,-1.3057,-1.2935,-1.3203,-1.3389,-1.2993,-1.2877,-1.2689,-1.2237,-1.1807,0.0,0.0,0.0,0.0,0.0,-1.1175,-1.1715,-1.273,-1.3932,-1.4495,-1.3994,-1.4337,-1.497,-1.584,-1.5657,-1.5876,-1.674,-1.7834,-1.8613,-1.9023,-2.0979,-2.2149,-2.2358,-2.3176,-2.3595,-2.3595,-2.3595,-2.3947,-2.4634,-2.5292,-2.5974,-2.6632,-2.7315,-2.76,-2.76,-2.76,-2.76,-2.7645,-2.8094,-2.8801,-2.9636,-2.9846,-3.0597,-3.1511,-1.6063,0.0,0.0,0.0,0.0,0.0,0.0,0.0,0.0,0.0,-2.937,0.0,-3.2317,0.0,-3.202,0.0,-2.9016,-2.682,-2.4,-2.2325,0.0,-1.8568,-1.882,0.0,0.0,0.0,0.0,0.0,-1.5552,-1.5387,-1.561,-1.6008,-1.6281,-1.65,0.0,-1.65,-1.65,-1.65,-1.65,0.0,0.0,-1.7361,-1.7874,-1.7835,-1.7943,-1.8045,-1.7287,-1.6795,-1.65,-1.65,-1.65,-1.65,-1.65,-1.65,-1.65,-1.65,-1.65,-1.6315,-1.5499,-1.4994,-1.4502,-1.3671,-1.32,-1.2905,-1.2905,-1.3203,-1.3389,-1.2993,-1.2701,-1.2345,-1.1895,-1.1266,-1.0788,0.0,0.0,0.0,0.0,-1.0943,-1.1357,-1.1924,-1.306,-1.3617,-1.3152,-1.3638,-1.4372,-1.5324,-1.5291,-1.5599,-1.6454,-1.7524,-1.8402,-1.9079,-2.0796,-2.2009,-2.2688,-2.3535,-2.3969,-2.3969,-2.4208,-2.4395,-2.4634,-2.5555,-2.6063,-2.6303,-2.721,-2.76,-2.76,-2.76,-2.76,-2.7645,-2.8094,-2.8786,-2.9636,-2.9846,-3.0597,-3.1511,-1.7824,0.0,0.0,0.0,-1.9887,-2.2068,-2.2685,-2.5473,-2.7814,0.0,-2.9834,-3.112,-3.2437,-3.2617,-3.2557,-3.2527,-3.1203,-2.9086,-2.5979,-2.4936,0.0,0.0,-1.9083,-1.8581,-1.7473,0.0,0.0,0.0,0.0,-1.4983,-1.5579,-1.5599,-1.5908,-1.65,-1.65,0.0,-1.65,-1.65,-1.65,-1.65,-1.65,-1.6829,-1.7289,-1.7284,-1.7631,-1.8013,-1.6926,-1.6522,-1.65,-1.65,-1.65,-1.65,-1.65,-1.65,-1.65,-1.65,-1.65,-1.625,-1.5062,-1.4721,-1.4433,-1.3248,-1.2929,-1.2905,-1.2905,-1.3203,-1.3389,-1.2993,-1.2666,-1.2319,-1.1846,-1.1191,-1.0686,0.0,0.0,0.0,0.0,-1.1277,-1.1626,-1.1665,-1.1963,-1.2394,-1.3008,-1.343,-1.4055,-1.4919,-1.531,-1.5782,0.0,-1.7524,-1.8416,-1.9135,-2.081,-2.2059,-2.2793,-2.3977,-2.4619,-2.4664,-2.5292,-2.5277,-2.4739,-2.6019,-2.6273,-2.5779,-2.7061,-2.76,-2.76,-2.76,-2.76,-2.76,-2.763,-2.8468,-2.9726,-3.0328,-3.0943,-3.1511,-1.831,-1.9552,-2.0324,0.0,-2.0512,-2.1747,-2.3728,-2.5254,-2.7295,-3.0349,-3.1466,-3.2512,-3.3829,-3.3978,-3.3589,-3.2602,-3.1203,0.0,0.0,0.0,0.0,-2.0404,-2.0264,-1.956,-1.8028,-1.6704,-1.6041,-1.6041,0.0,-1.4795,-1.5379,-1.5541,-1.5908,-1.65,0.0,-1.65,-1.65,-1.65,-1.65,-1.65,-1.65,-1.686,-1.732,-1.6875,-1.7079,-1.7556,-1.7234,-1.6837,-1.65,-1.65,-1.65,-1.65,-1.65,-1.65,-1.65,-1.65,-1.65,-1.6324,-1.5577,-1.5028,-1.4525,-1.3755,-1.3238,-1.2905,-1.2905,-1.3203,-1.3389,-1.2993,-1.2293,-1.16,-1.1133,-1.009,-0.9309,0.0,0.0,0.0,0.0,0.0,-1.1851,-1.2484,-1.2083,-1.1923,-1.2384,-1.226,-1.2903,-1.4642,-1.4271,-1.4707,-1.6407,-1.7524,-1.863,-1.9809,-2.1059,-2.2473,-2.4096,-2.444,-2.4844,-2.5337,-2.5525,-2.5779,-2.6093,-2.6437,-2.6791,-2.7106,-2.745,-2.76,-2.76,-2.76,-2.76,-2.7645,-2.8154,-2.9131,-3.0357,-3.0987,-3.1346,-3.1511,-1.9282,-2.0695,0.0,-2.1744,-2.2181,-2.319,-2.5094,-2.622,-2.799,-3.1096,-3.2333,-3.311,-3.3574,-3.4159,-3.3829,-3.2198,-3.1042,0.0,-2.7051,0.0,0.0,-2.1146,-2.0365,-1.9409,-1.8229,-1.6454,0.0,-1.5802,0.0,-1.4286,-1.5307,-1.5234,-1.5666,-1.65,0.0,-1.666,-1.6898,-1.6898,-1.6898,-1.6873,-1.66,-1.6688,0.0,-1.6635,-1.6722,-1.7005,-1.6952,-1.6752,-1.65,-1.65,-1.65,-1.65,-1.65,-1.65,-1.65,-1.65,-1.65,-1.638,-1.5764,-1.5343,-1.4892,-1.4027,-1.3552,-1.3214,-1.2968,-1.3091,-1.3164,-1.2954,-1.2223,-1.1541,-1.1284,-1.0141,-0.9195,0.0,0.0,0.0,0.0,0.0,0.0,-1.2827,-1.2465,-1.2259,-1.249,-1.234,-1.2864,-1.4328,-1.4397,-1.5097,-1.6756,-1.7646,-1.8834,-2.0408,-2.1812,-2.3206,-2.459,-2.5457,-2.5959,-2.6033,-2.6333,-2.6512,-2.6602,-2.6911,-2.7091,-2.718,-2.7465,-2.76,-2.76,-2.76,-2.76,-2.769,-2.8678,-2.9475,-3.0223,-3.1152,-3.1511,-3.1511,-2.0562,0.0,0.0,0.0,0.0,-2.549,-2.6617,-2.7824,-2.9334,-3.1308,-3.2766,-3.338,-3.2706,-3.3589,-3.3455,-3.154,-3.0764,-2.9273,-2.6592,-2.5234,-2.3612,-2.1587,-1.9885,-1.8744,-1.8216,-1.6033,-1.5057,0.0,-1.3909,-1.3926,-1.5337,-1.4962,-1.5392,0.0,0.0,0.0,0.0,-1.741,-1.736,-1.7247,-1.6722,-1.65,-1.65,-1.65,-1.65,-1.65,-1.65,-1.65,-1.65,-1.65,-1.65,-1.65,-1.65,-1.65,-1.65,-1.65,-1.65,-1.638,-1.5864,-1.5654,-1.5353,-1.4295,-1.398,-1.3779,-1.3272,-1.3065,-1.3017,-1.3017,-1.2359,-1.1789,-1.1789,-1.0788,-0.9844,0.0,-1.0544,-1.1309,0.0,0.0,0.0,0.0,-1.2856,0.0,-1.2895,-1.2965,-1.3308,-1.4114,-1.4929,-1.5963,-1.7216,-1.7807,-1.8955,-2.0841,-2.2579,-2.3939,-2.4844,-2.6587,-2.727,-2.6856,-2.736,-2.73,-2.6761,-2.733,-2.7285,-2.6752,-2.7345,-2.76,-2.76,-2.76,-2.7645,-2.7869,-2.9202,-2.9726,-2.9849,-3.1062,-3.1511,-3.1511,-2.1931,0.0,0.0,0.0,-2.5084,-2.7075,-2.8139,-2.9155,-3.0319,-3.1818,-3.3347,-3.4053,-3.3395,-3.3036,-3.2273,-3.0806,-3.0559,-2.933,-2.6593,0.0,0.0,-2.1615,-1.9885,-1.8744,-1.8216,-1.6763,-1.597,0.0,-1.5103,-1.5018,-1.561,-1.5323,-1.5588,0.0,0.0,0.0,-1.741,-1.741,-1.7099,-1.666,-1.6538,-1.65,-1.65,-1.65,-1.65,-1.65,-1.65,-1.65,-1.65,-1.65,-1.65,-1.65,-1.65,-1.65,-1.65,-1.65,-1.65,-1.6479,-1.638,-1.5986,-1.5543,-1.5343,-1.4915,-1.4514,-1.441,-1.4014,-1.3637,-1.3637,-1.2648,-1.1789,-1.1789,-1.1166,-1.0619,-1.0554,-1.1196,-1.1706,-1.174,0.0,0.0,0.0,0.0,-1.2457,-1.2866,-1.2575,-1.2991,-1.4473,-1.4439,-1.5222,-1.7203,-1.7807,-1.8955,-2.0841,-2.2165,-2.3961,-2.6228,-2.6587,-2.726,-2.8248,-2.7809,-2.754,-2.742,-2.754,-2.754,-2.7435,-2.754,-2.76,-2.76,-2.76,-2.7929,-2.8547,-2.9834,-3.0342,-3.0432,-3.1212,-3.1511,-3.1511,-2.45,0.0,0.0,0.0,-2.6891,-2.7945,-2.895,-2.9985,-3.0842,-3.124,-3.2158,-3.2463,-3.1819,-3.2198,-3.1678,-2.9601,-2.9426,-2.8422,-2.605,-2.4696,-2.3419,-2.213,-2.0092,-1.8744,-1.8216,-1.6988,-1.642,-1.6566,-1.5344,-1.5464,-1.683,-1.6104,-1.6319,-1.7299,0.0,-1.7802,0.0,-1.7524,-1.7234,-1.6936,-1.6635,-1.65,-1.65,-1.65,-1.65,-1.65,-1.65,-1.65,-1.65,-1.65,-1.65,-1.65,-1.65,-1.65,-1.65,-1.65,-1.65,-1.65,-1.65,-1.6281,-1.5986,-1.5676,-1.5387,-1.5073,-1.4766,-1.4468,-1.426,-1.426,-1.3487,-1.2623,-1.1938,-1.1857,-1.1767,-1.1366,-1.1907,-1.2369,-1.2369,-1.2691,-1.2905,0.0,0.0,0.0,-1.2886,-1.2695,-1.3148,-1.4595,-1.4822,-1.5712,-1.7599,-1.7967,-1.9095,-2.1259,-2.2855,-2.4462,-2.6063,-2.7111,-2.7784,-2.8094,-2.775,-2.76,-2.76,-2.76,-2.76,-2.76,-2.76,-2.76,-2.763,-2.7989,-2.8308,-2.8727,-2.9998,-3.0507,-3.0582,-3.1256,-3.1511,-3.1511,0.0,-2.6851,0.0,0.0,-2.8511,-2.8758,-2.9295,-3.0411,-3.1066,-3.0595,-3.1007,-3.1005,-3.019,-3.1394,-3.1176,-2.8383,-2.8311,-2.7498,-2.5342,-2.3689,-2.2684,-2.2392,-2.0346,-1.8965,-1.8392,-1.7236,-1.6775,-1.7108,-1.5677,-1.5895,-1.7637,-1.6922,-1.714,-1.8204,-1.8329,-1.8242,-1.8003,-1.7689,-1.7413,-1.7162,-1.6697,-1.65,-1.65,-1.65,-1.65,-1.65,-1.65,-1.65,-1.65,-1.65,-1.65,-1.65,-1.65,-1.65,-1.65,-1.65,-1.65,-1.65,-1.65,-1.65,-1.638,-1.5908,-1.5798,-1.5666,-1.5197,-1.4971,-1.4903,-1.4903,-1.4422,-1.3663,-1.2614,-1.2783,-1.289,-1.2307,-1.2598,-1.2905,-1.2905,-1.2905,-1.2905,0.0,0.0,0.0,-1.2905,-1.2905,-1.3358,-1.4433,-1.5073,-1.6077,-1.7659,-1.8097,-1.9373,-2.1663,-2.3604,-2.5053,-2.6019,-2.759,-2.8173,-2.7809,-2.766,-2.76,-2.76,-2.76,-2.76,-2.76,-2.76,-2.7675,-2.7869,-2.8532,-2.8891,-2.9116,-3.0268,-3.0717,-3.0791,-3.1301,-3.1511,-3.1511,-2.7306,0.0,-2.8398,-2.7586,-2.8954,-2.992,-2.9099,-3.0243,-3.0993,-3.0493,-3.1352,-3.149,-3.0146,-3.0946,-3.0441,-2.757,-2.7968,-2.7298,-2.4679,-2.3869,-2.2955,-2.1746,-2.056,-1.959,-1.8945,-1.7869,-1.7245,-1.7108,-1.6927,-1.6873,-1.692,-1.7473,-1.7907,-1.8229,-1.8707,-1.8392,-1.7511,-1.794,-1.7539,-1.6575,-1.6525,-1.65,-1.65,-1.65,-1.65,-1.65,-1.65,-1.65,-1.65,-1.65,-1.65,-1.65,-1.65,-1.65,-1.65,-1.65,-1.65,-1.65,-1.65,-1.65,-1.65,-1.6423,-1.6423,-1.6402,-1.6337,-1.5908,-1.5521,-1.5521,-1.5028,-1.4583,-1.4434,-1.405,-1.3697,-1.3627,-1.3214,-1.2905,-1.2905,-1.2905,-1.2905,-1.2905,0.0,0.0,-1.2905,-1.2905,-1.3176,-1.3815,-1.4445,-1.5309,-1.6506,-1.8117,-1.9886,-2.1815,-2.3652,-2.551,-2.739,-2.76,-2.7974,-2.8502,-2.7899,-2.76,-2.76,-2.76,-2.76,-2.76,-2.76,-2.7944,-2.8562,-2.922,-2.9819,-3.0387,-3.1122,-3.1406,-3.1406,-3.1481,-3.1511,-3.1511,-2.8825,-2.8599,-2.8671,-2.9486,-2.9321,-2.9288,-3.0167,-3.034,-3.0138,-2.9574,-3.0055,-3.0126,-2.9194,-2.9345,-2.8695,-2.6705,-2.7355,-2.6871,-2.4542,-2.4306,-2.3826,-2.2899,-2.1678,-2.0732,-2.015,-1.9373,-1.8915,-1.8846,-1.831,-1.8255,-1.86,-1.8818,-1.9014,-1.9158,-1.9045,-1.8757,-1.8355,-1.8254,-1.7752,-1.7036,-1.7036,-1.6823,-1.65,-1.65,-1.65,-1.65,-1.65,-1.65,-1.65,-1.65,-1.65,-1.65,-1.65,-1.65,-1.65,-1.65,-1.65,-1.65,-1.65,-1.65,-1.65,-1.65,-1.65,-1.65,-1.65,-1.6303,-1.6139,-1.6139,-1.5666,-1.513,-1.4766,-1.4491,-1.4213,-1.3862,-1.36,-1.3443,-1.3443,-1.3443,-1.3443,-1.3443,0.0,-1.331,-1.2954,-1.2905,-1.3101,-1.3586,-1.4292,-1.5197,-1.6336,-1.8129,-1.995,-2.1838,-2.3659,-2.5367,-2.6986,-2.7405,-2.7735,-2.8004,-2.7735,-2.76,-2.76,-2.76,-2.7824,-2.8203,-2.8633,-2.8963,-2.9235,-2.9879,-3.0283,-3.0567,-3.1241,-3.1511,-3.1511,-3.1511,-3.1511,-3.1511,-2.9792,-2.9151,-2.9049,-3.0515,-2.9812,-2.9518,-3.0987,-3.062,-2.9935,-2.9171,-2.9027,-2.8798,-2.82,-2.8187,-2.752,-2.5855,-2.6612,-2.6396,-2.4528,-2.456,-2.4268,-2.3445,-2.2305,-2.1352,-2.0604,-1.9993,-1.9712,-1.9712,-1.9094,-1.9034,-1.9559,-1.9623,-1.964,-1.956,-1.9321,-1.9169,-1.9022,-1.8805,-1.8524,-1.8198,-1.8198,-1.7738,-1.7016,-1.7016,-1.682,-1.6525,-1.671,-1.6891,-1.7033,-1.7005,-1.6995,-1.6969,-1.6602,-1.65,-1.65,-1.65,-1.65,-1.65,-1.65,-1.65,-1.65,-1.65,-1.65,-1.65,-1.65,-1.65,-1.65,-1.65,-1.6173,-1.5732,-1.531,-1.5085,-1.4766,-1.4167,-1.3909,-1.3732,-1.3552,-1.3684,-1.3732,-1.3552,-1.3684,-1.3552,-1.2968,-1.2905,-1.3032,-1.3301,-1.4334,-1.5269,-1.6023,-1.8193,-2.0189,-2.1901,-2.3873,-2.5555,-2.6881,-2.736,-2.76,-2.76,-2.7809,-2.7899,-2.7899,-2.8109,-2.8453,-2.8921,-2.9385,-2.9711,-2.9906,-3.0313,-3.0627,-3.0866,-3.1525,-3.1795,-3.1795,-3.1795,-3.1795,-3.1765,-2.9792,-2.9779,-2.9779,-2.983,-3.0545,-3.1167,-3.1217,-3.118,-3.0771,-2.9645,-2.8687,-2.7896,-2.7379,-2.7845,-2.7286,-2.5019,-2.5812,-2.5827,-2.4501,-2.4459,-2.396,-2.2751,-2.2066,-2.111,-1.9837,-1.9296,-1.9008,-1.9008,-1.9008,-1.8983,-1.902,-1.9547,-1.9509,-1.9033,-1.9572,-1.9529,-1.9148,-1.9721,-2.002,-2.0073,-2.0073,-1.9341,-1.8286,-1.8286,-1.7536,-1.6575,-1.7184,-1.7771,-1.8271,-1.8211,-1.8212,-1.8064,-1.6867,-1.65,-1.65,-1.65,-1.65,-1.65,-1.65,-1.65,-1.65,-1.65,-1.65,-1.65,-1.65,-1.65,-1.65,-1.65,-1.6488,-1.65,-1.6466,-1.5986,-1.5387,-1.4789,-1.419,-1.36,-1.2992,-1.342,-1.3576,-1.2968,-1.3443,-1.3552,-1.2968,-1.2905,-1.2905,-1.2915,-1.45,-1.545,-1.5319,-1.8354,-2.0717,-2.2063,-2.4359,-2.6228,-2.757,-2.76,-2.76,-2.76,-2.8263,-2.8592,-2.8607,-2.9265,-2.9592,-2.9592,-2.9606,-2.9924,-3.0492,-3.0507,-3.0883,-3.1555,-3.2213,-3.2497,-3.2497,-3.2497,-3.2497,-3.2378,-2.9792,-2.9792,-2.9998,-3.062,-3.1007,-3.1426,-3.2069,-3.2141,-3.1855,-3.1045,-3.0341,-2.9697,-2.9087,-2.8007,-2.7261,-2.7135,-2.7152,-2.6772,-2.5893,-2.5908,-2.5344,-2.4054,-2.3405,-2.2842,-2.24,-2.1376,-2.0842,-2.0842,-2.0789,-2.0553,-2.0137,-1.9911,-1.9965,-2.0225,-2.0407,-2.0645,-2.0889,-2.1094,-2.095,-2.0654,-2.0654,-1.9912,-1.8839,-1.8839,-1.8358,-1.7735,-1.8342,-1.8674,-1.891,-1.936,-1.8945,-1.8216,-1.7851,-1.7166,-1.65,-1.65,-1.65,-1.65,-1.65,-1.65,-1.65,-1.65,-1.65,-1.65,-1.65,-1.65,-1.65,-1.65,-1.65,-1.65,-1.65,-1.6324,-1.6008,-1.541,-1.4812,-1.4352,-1.4154,-1.3944,-1.3886,-1.4084,-1.4624,-1.4571,-1.3607,-1.4217,-1.447,-1.3957,-1.5277,-1.5927,-1.545,-1.9178,-2.1732,-2.2612,-2.5443,-2.7405,-2.8263,-2.8753,-2.8963,-2.8978,-2.9187,-2.9265,-2.928,-2.9924,-3.0208,-3.0238,-3.0717,-3.1002,-3.1182,-3.1182,-3.1316,-3.157,-3.2228,-3.2512,-3.2512,-3.2512,-3.2512,-3.2452,-2.9792,-3.0075,-3.052,-3.1106,-3.1779,-3.2464,-3.3031,-3.3136,-3.2793,-3.1951,-3.0931,-3.0112,-2.9554,-2.8139,-2.7328,-2.7686,-2.7582,-2.7164,-2.6436,-2.6513,-2.6012,-2.4693,-2.4049,-2.3444,-2.2905,-2.2109,-2.1592,-2.1366,-2.1063,-2.0862,-2.0719,-2.0348,-2.0396,-2.0795,-2.0795,-2.1137,-2.1697,-2.1697,-2.1643,-2.1611,-2.1823,-2.1217,-2.0127,-1.9881,-1.9261,-1.8637,-1.9212,-1.9439,-1.9531,-2.0141,-1.959,-1.8556,-1.8336,-1.7458,-1.65,-1.65,-1.65,-1.65,-1.65,-1.65,-1.65,-1.65,-1.65,-1.65,-1.65,-1.65,-1.65,-1.65,-1.65,-1.65,-1.65,-1.65,-1.6303,-1.5698,-1.5096,-1.4629,-1.4399,-1.4236,-1.419,-1.4329,-1.5252,-1.5469,-1.4529,-1.5282,-1.5644,-1.5188,-1.6687,-1.7504,-1.7204,-2.043,-2.2578,-2.3241,-2.6323,-2.8319,-2.8966,-2.9397,-2.9606,-2.9606,-2.9846,-3.0058,-3.0328,-3.0688,-3.0896,-3.0883,-3.1316,-3.1511,-3.1511,-3.1511,-3.1645,-3.1914,-3.2333,-3.2662,-3.2856,-3.2602,-3.2677,-3.2841,-2.9792,-3.0482,-3.1143,-3.1278,-3.2749,-3.3959,-3.4095,-3.4052,-3.359,-3.2364,-3.077,-2.9531,-2.9127,-2.8363,-2.7629,-2.7046,-2.7305,-2.7143,-2.6324,-2.6477,-2.6051,-2.482,-2.4115,-2.316,-2.1852,-2.1791,-2.1472,-2.087,-2.0245,-2.022,-2.0795,-2.0845,-2.0894,-2.0919,-2.0919,-2.1234,-2.1781,-2.1781,-2.21,-2.2672,-2.3231,-2.2834,-2.1816,-2.1181,-2.0266,-1.9349,-1.991,-2.0109,-2.0204,-2.0703,-2.0084,-1.9002,-1.8434,-1.7445,-1.65,-1.65,-1.6525,-1.655,-1.65,-1.6525,-1.655,-1.65,-1.65,-1.65,-1.65,-1.65,-1.65,-1.65,-1.65,-1.65,-1.65,-1.65,-1.6303,-1.5698,-1.5096,-1.4491,-1.3933,-1.4339,-1.4523,-1.4046,-1.5473,-1.6268,-1.5674,-1.62,-1.6558,-1.6532,-1.854,-1.99,-2.0195,-2.2138,-2.3497,-2.4067,-2.7096,-2.9026,-2.9666,-2.9726,-2.9714,-2.9756,-3.0298,-3.0883,-3.1511,-3.1511,-3.1511,-3.1511,-3.1511,-3.1511,-3.1511,-3.1511,-3.1899,-3.2512,-3.2557,-3.2976,-3.3484,-3.2886,-3.3036,-3.3469,-2.9792,-2.9972,-3.0558,-3.2033,-3.2629,-3.3429,-3.492,-3.472,-3.3859,-3.2384,-3.1959,-3.1333,-3.0127,-2.9827,-2.919,-2.8006,-2.7504,-2.7256,-2.7199,-2.6765,-2.6173,-2.5432,-2.479,-2.4045,-2.3179,-2.2703,-2.2137,-2.1496,-2.1328,-2.1099,-2.0795,-2.1269,-2.1748,-2.2244,-2.2244,-2.2337,-2.2475,-2.2475,-2.2253,-2.1946,-2.2086,-2.2002,-2.1736,-2.1573,-2.1336,-2.1109,-2.126,-2.1291,-2.1315,-2.1442,-2.0419,-1.9082,-1.8927,-1.7786,-1.65,-1.65,-1.6835,-1.7087,-1.6635,-1.6835,-1.7074,-1.6613,-1.65,-1.65,-1.65,-1.65,-1.65,-1.65,-1.65,-1.65,-1.65,-1.65,-1.6303,-1.5698,-1.5096,-1.4652,-1.4514,-1.4575,-1.4912,-1.5683,-1.6906,-1.748,-1.6929,-1.7787,-1.8176,-1.7725,-1.9548,-2.1132,-2.2088,-2.4901,-2.6325,-2.5969,-2.8606,-3.0133,-3.0283,-3.0778,-3.1047,-3.1047,-3.1197,-3.1346,-3.1511,-3.1511,-3.1511,-3.1511,-3.1511,-3.1511,-3.1511,-3.1511,-3.1899,-3.2557,-3.3066,-3.3664,-3.4218,-3.4099,-3.4144,-3.4249,-2.9792,-3.0139,-3.0771,-3.1779,-3.2321,-3.2863,-3.3667,-3.3487,-3.289,-3.1887,-3.1515,-3.1098,-3.0371,-2.9597,-2.8691,-2.7695,-2.7371,-2.6974,-2.6423,-2.6463,-2.622,-2.558,-2.556,-2.51,-2.4081,-2.4043,-2.3708,-2.3028,-2.2133,-2.17,-2.168,-2.1997,-2.2193,-2.2253,-2.2253,-2.2091,-2.1823,-2.1823,-2.1619,-2.1318,-2.1592,-2.1875,-2.2123,-2.1828,-2.1899,-2.2146,-2.2146,-2.1795,-2.1325,-2.1616,-2.0361,-1.8685,-1.8683,-1.7682,-1.65,-1.65,-1.6923,-1.7335,-1.6999,-1.7137,-1.7272,-1.6638,-1.65,-1.65,-1.65,-1.65,-1.65,-1.65,-1.65,-1.65,-1.65,-1.65,-1.6402,-1.6051,-1.5511,-1.5096,-1.5096,-1.53,-1.5758,-1.6705,-1.8018,-1.8865,-1.8866,-1.963,-2.0019,-1.9664,-2.1677,-2.3245,-2.3974,-2.7088,-2.8437,-2.7538,-2.974,-3.0943,-3.0943,-3.1316,-3.1511,-3.1511,-3.1511,-3.1511,-3.1511,-3.1511,-3.1511,-3.1511,-3.1511,-3.1511,-3.1511,-3.1511,-3.2064,-3.2961,-3.3021,-3.3634,-3.4474,-3.4174,-3.4249,-3.4503,-2.9792,-3.0457,-3.1044,-3.118,-3.1852,-3.2258,-3.1861,-3.1833,-3.1662,-3.1085,-3.0556,-3.0252,-3.0296,-2.8876,-2.7694,-2.7142,-2.7026,-2.6415,-2.5159,-2.5869,-2.6076,-2.552,-2.6214,-2.5974,-2.4634,-2.5158,-2.5044,-2.4154,-2.271,-2.2137,-2.242,-2.2498,-2.2253,-2.1697,-2.1697,-2.1366,-2.0795,-2.0795,-2.0746,-2.0696,-2.1221,-2.1819,-2.236,-2.1875,-2.2053,-2.2566,-2.2672,-2.1941,-2.0997,-2.1524,-2.0252,-1.8477,-1.8583,-1.7817,-1.6914,-1.7003,-1.732,-1.7586,-1.7345,-1.7335,-1.731,-1.6851,-1.6751,-1.6738,-1.6638,-1.6647,-1.66,-1.6513,-1.65,-1.6525,-1.6613,-1.655,-1.6504,-1.6492,-1.5991,-1.561,-1.561,-1.6216,-1.6872,-1.7472,-1.9044,-2.025,-2.0767,-2.1418,-2.1855,-2.1944,-2.4197,-2.5714,-2.605,-2.8784,-2.9972,-2.9201,-3.0686,-3.1511,-3.1511,-3.1511,-3.1511,-3.1511,-3.1511,-3.1555,-3.1645,-3.1555,-3.1555,-3.1645,-3.154,-3.1511,-3.1511,-3.1615,-3.2363,-3.344,-3.2991,-3.3559,-3.4593,-3.4008,-3.4143,-3.4668,-2.9792,-2.9934,-3.0279,-3.1082,-3.1315,-3.1518,-3.1757,-3.1942,-3.1592,-3.0341,-3.0805,-3.1013,-3.0374,-2.9411,-2.8565,-2.8068,-2.6677,-2.5634,-2.5139,-2.5404,-2.5556,-2.5494,-2.6214,-2.5974,-2.4634,-2.4709,-2.3904,-2.2156,-2.2984,-2.261,-2.1115,-2.1629,-2.1805,-2.1697,-2.1697,-2.1366,-2.0795,-2.0795,-2.0472,-1.9952,-2.0067,-2.0509,-2.1151,-2.1544,-2.1767,-2.1922,-2.2498,-2.2207,-2.1578,-2.167,-2.0781,-1.9756,-2.0292,-1.9661,-1.8817,-1.9373,-1.9221,-1.8519,-1.7052,-1.7011,-1.7498,-1.7852,-1.794,-1.7827,-1.735,-1.7272,-1.7134,-1.66,-1.65,-1.6672,-1.7162,-1.6848,-1.6486,-1.6411,-1.5963,-1.561,-1.561,-1.6884,-1.8053,-1.8648,-2.0223,-2.1255,-2.1383,-2.2521,-2.3448,-2.3921,-2.6008,-2.7695,-2.8757,-2.9852,-3.0904,-3.1871,-3.1632,-3.1511,-3.1511,-3.1511,-3.1511,-3.1511,-3.1511,-3.1795,-3.2318,-3.1765,-3.1809,-3.2303,-3.175,-3.1511,-3.154,-3.2108,-3.2811,-3.3544,-3.3993,-3.4651,-3.5325,-3.5235,-3.5265,-3.534,-2.9792,-2.9792,-2.9934,-3.0381,-3.0457,-3.0589,-3.0976,-3.1108,-3.1065,-3.069,-3.1054,-3.1233,-3.0969,-3.0208,-2.9423,-2.8695,-2.7184,-2.6046,-2.5403,-2.5676,-2.5716,-2.5456,-2.6528,-2.6654,-2.5653,-2.4622,-2.3659,-2.2719,-2.2646,-2.2168,-2.1293,-2.1936,-2.2053,-2.1697,-2.1697,-2.1366,-2.0771,-2.0396,-2.0284,-2.0264,-1.9924,-2.0374,-2.1281,-2.1571,-2.1922,-2.2323,-2.2965,-2.277,-2.2253,-2.2253,-2.1442,-2.0476,-2.0803,-2.0064,-1.9155,-1.9461,-1.9561,-1.9275,-1.7809,-1.784,-1.8254,-1.8216,-1.8204,-1.8141,-1.789,-1.7827,-1.7752,-1.7476,-1.7426,-1.7501,-1.7777,-1.7363,-1.7072,-1.7319,-1.6647,-1.6414,-1.7296,-1.8093,-1.9142,-2.0598,-2.1732,-2.2611,-2.3226,-2.4278,-2.5047,-2.5296,-2.7326,-2.8813,-2.9363,-3.0451,-3.1316,-3.1929,-3.2004,-3.1869,-3.1511,-3.1511,-3.1511,-3.1511,-3.1869,-3.2183,-3.2512,-3.2557,-3.2557,-3.2467,-3.2168,-3.2034,-3.2049,-3.2363,-3.311,-3.4053,-3.4384,-3.4906,-3.5504,-3.5504,-3.5504,-3.5504,-2.9792,-2.9792,-2.9792,-2.9792,-2.9972,-3.0214,-3.0382,-3.0744,-3.1144,-3.1409,-3.148,-3.1569,-3.1721,-3.0701,-2.9721,-2.9066,-2.767,-2.6439,-2.5632,-2.6237,-2.6292,-2.5618,-2.6582,-2.6865,-2.628,-2.4676,-2.3625,-2.3151,-2.2428,-2.1809,-2.128,-2.2052,-2.2,-2.1256,-2.1391,-2.1135,-2.0522,-2.0029,-2.0062,-2.0453,-1.9987,-2.036,-2.1223,-2.1577,-2.1936,-2.2397,-2.3275,-2.3209,-2.2717,-2.2852,-2.2195,-2.1355,-2.1482,-2.0687,-1.9728,-1.9886,-2.007,-1.9921,-1.8722,-1.8682,-1.8933,-1.8632,-1.8581,-1.8543,-1.8417,-1.8392,-1.8355,-1.8229,-1.8204,-1.8242,-1.8367,-1.794,-1.7752,-1.8304,-1.7641,-1.7528,-1.882,-1.9447,-2.0387,-2.2108,-2.3007,-2.3928,-2.5008,-2.6015,-2.6656,-2.6857,-2.8734,-2.9871,-2.9871,-3.0909,-3.157,-3.1735,-3.2228,-3.2318,-3.1959,-3.1959,-3.1959,-3.1974,-3.2497,-3.2826,-3.2976,-3.3335,-3.3215,-3.2736,-3.2736,-3.2632,-3.2512,-3.2841,-3.3559,-3.4518,-3.4683,-3.504,-3.5504,-3.5504,-3.5504,-3.5504,-2.9792,-2.9792,-2.9792,-2.9792,-3.052,-3.0921,-3.0477,-3.182,-3.271,-3.2187,-3.2294,-3.2393,-3.2407,-3.043,-2.9066,-2.9002,-2.7511,-2.6265,-2.5636,-2.7013,-2.7366,-2.6196,-2.5838,-2.5614,-2.5563,-2.4759,-2.3482,-2.1758,-2.2763,-2.2125,-1.9965,-2.1082,-2.1006,-1.9965,-2.0509,-2.0432,-1.9875,-1.9824,-1.9823,-1.9861,-1.9823,-1.9849,-2.0054,-2.1245,-2.139,-2.1175,-2.2972,-2.3209,-2.2799,-2.3355,-2.3091,-2.2652,-2.3233,-2.252,-2.1626,-2.2243,-2.1618,-2.0476,-1.9281,-1.897,-1.9108,-1.9572,-1.9685,-1.956,-1.9045,-1.8945,-1.8795,-1.8304,-1.8204,-1.8355,-1.8845,-1.8494,-1.8329,-1.8857,-1.887,-1.8857,-1.8983,-2.0763,-2.2133,-2.2297,-2.3697,-2.5027,-2.5915,-2.7247,-2.8356,-2.9086,-3.0514,-3.1363,-3.1363,-3.1452,-3.178,-3.2392,-3.2452,-3.2781,-3.335,-3.335,-3.335,-3.335,-3.3395,-3.3739,-3.4339,-3.3754,-3.3469,-3.3425,-3.3425,-3.308,-3.2617,-3.3829,-3.4414,-3.4578,-3.5175,-3.5459,-3.5504,-3.5504,-3.5504,-3.5504,-2.9792,-2.9792,-2.996,-3.0558,-3.1132,-3.1775,-3.2528,-3.3226,-3.3665,-3.3638,-3.3672,-3.3211,-3.1848,-3.0898,-2.9911,-2.8791,-2.7801,-2.7302,-2.7372,-2.6969,-2.6794,-2.6989,-2.6328,-2.5564,-2.4778,-2.4108,-2.3226,-2.202,-2.2153,-2.1761,-2.088,-2.1666,-2.1818,-2.1431,-2.1664,-2.1638,-2.1379,-2.0662,-2.0566,-2.0815,-2.0503,-2.0845,-2.1616,-2.2557,-2.2759,-2.2738,-2.3827,-2.38,-2.3275,-2.3508,-2.3445,-2.3295,-2.3535,-2.3003,-2.2198,-2.1683,-2.1175,-2.0706,-2.025,-1.9799,-1.956,-1.9748,-1.9798,-1.9748,-1.9547,-1.951,-1.9447,-1.9233,-1.9196,-1.9371,-1.9936,-1.9572,-1.9497,-2.0401,-1.9962,-1.9874,-2.0888,-2.1782,-2.2698,-2.374,-2.5173,-2.6355,-2.705,-2.855,-2.9624,-2.9924,-3.091,-3.1511,-3.1511,-3.1884,-3.2632,-3.3694,-3.3724,-3.3649,-3.3499,-3.3499,-3.3499,-3.3499,-3.3903,-3.4264,-3.4518,-3.4666,-3.4502,-3.4098,-3.4098,-3.3994,-3.3769,-3.4294,-3.4758,-3.5145,-3.54,-3.5504,-3.5504,-3.5504,-3.5504,-3.5504,-3.0177,-3.0241,-3.0533,-3.1462,-3.2083,-3.2763,-3.3856,-3.4279,-3.4563,-3.4782,-3.4369,-3.3579,-3.2355,-3.1547,-3.0573,-2.9329,-2.8485,-2.8158,-2.8494,-2.7209,-2.656,-2.6831,-2.6199,-2.5372,-2.4334,-2.3883,-2.3326,-2.2658,-2.2695,-2.255,-2.2226,-2.2988,-2.3043,-2.2484,-2.2641,-2.2479,-2.2064,-2.1285,-2.1169,-2.1455,-2.1106,-2.1607,-2.2658,-2.3111,-2.3459,-2.3757,-2.4133,-2.3999,-2.3595,-2.3595,-2.3465,-2.3334,-2.3334,-2.2883,-2.2184,-2.1102,-2.0795,-2.0795,-2.0795,-2.0295,-1.985,-2.0055,-1.9952,-1.9798,-1.9798,-1.9798,-1.9849,-2.0037,-2.0075,-2.025,-2.0842,-2.074,-2.084,-2.1619,-2.1393,-2.1455,-2.2406,-2.3012,-2.3715,-2.4675,-2.6194,-2.7398,-2.8044,-2.9192,-3.0103,-3.0644,-3.1146,-3.1634,-3.2108,-3.2572,-3.3335,-3.4474,-3.4503,-3.4399,-3.4128,-3.4128,-3.4128,-3.4128,-3.4577,-3.4801,-3.4816,-3.5295,-3.513,-3.4518,-3.4728,-3.4681,-3.4518,-3.4743,-3.5085,-3.5504,-3.5504,-3.5504,-3.5504,-3.5504,-3.5504,-3.5504,-3.1044,-3.1217,-3.1499,-3.2464,-3.338,-3.3993,-3.4027,-3.4872,-3.5504,-3.5504,-3.4098,-3.3445,-3.4377,-3.2254,-3.0812,-3.0778,-2.9491,-2.8649,-2.8507,-2.804,-2.7041,-2.5494,-2.5215,-2.4856,-2.4334,-2.4321,-2.4017,-2.3423,-2.4763,-2.483,-2.3742,-2.4886,-2.4395,-2.2631,-2.3159,-2.2704,-2.1506,-2.1493,-2.1493,-2.1493,-2.1521,-2.1966,-2.2618,-2.2622,-2.308,-2.3714,-2.3637,-2.361,-2.3595,-2.3595,-2.3201,-2.2694,-2.2694,-2.2253,-2.1592,-2.0979,-2.0795,-2.0809,-2.0809,-2.0334,-1.9952,-2.0635,-2.0308,-1.9811,-1.9811,-1.9811,-1.9974,-2.0578,-2.0704,-2.088,-2.1393,-2.1945,-2.2293,-2.2334,-2.3276,-2.3803,-2.3195,-2.4556,-2.541,-2.4895,-2.6511,-2.8051,-2.8907,-2.9002,-2.9704,-3.138,-3.1303,-3.1884,-3.3439,-3.3499,-3.3799,-3.4503,-3.4518,-3.4848,-3.5489,-3.5504,-3.5504,-3.5504,-3.5504,-3.5504,-3.5504,-3.5504,-3.513,-3.4548,-3.5205,-3.5115,-3.4563,-3.522,-3.5504,-3.5504,-3.5504,-3.5504,-3.5504,-3.5504,-3.5504,-3.5504,-3.1997,-3.1633,-3.1706,-3.331,-3.3808,-3.4245,-3.4953,-3.5326,-3.5246,-3.4543,-3.4018,-3.3175,-3.1778,-3.0959,-3.0228,-2.9544,-2.9332,-2.941,-2.9719,-2.9602,-2.8666,-2.6767,-2.5511,-2.517,-2.5761,-2.4809,-2.4486,-2.4818,-2.519,-2.5246,-2.4913,-2.5246,-2.4817,-2.3793,-2.3964,-2.3505,-2.2594,-2.2234,-2.2071,-2.2128,-2.2616,-2.3282,-2.397,-2.4455,-2.4804,-2.4978,-2.4485,-2.3733,-2.2965,-2.2965,-2.2852,-2.2762,-2.3201,-2.3533,-2.3524,-2.2441,-2.2128,-2.2117,-2.2092,-2.1275,-2.0493,-2.0665,-2.0586,-2.0528,-2.0903,-2.0978,-2.1029,-2.1232,-2.1556,-2.1995,-2.2506,-2.3113,-2.3627,-2.3973,-2.4324,-2.4519,-2.4311,-2.5059,-2.5755,-2.6207,-2.7125,-2.8051,-2.8907,-2.9357,-3.0041,-3.1209,-3.2251,-3.3208,-3.4143,-3.4219,-3.4502,-3.5175,-3.519,-3.5295,-3.5504,-3.5504,-3.5504,-3.5504,-3.5504,-3.5504,-3.5504,-3.5504,-3.5385,-3.5205,-3.5415,-3.5385,-3.522,-3.5429,-3.5504,-3.5504,-3.5504,-3.5504,-3.5504,-3.5504,-3.5504,-3.5504,-3.3038,-3.2713,-3.2784,-3.4327,-3.4576,-3.4806,-3.5407,-3.5504,-3.5279,-3.4691,-3.3925,-3.3184,-3.2486,-3.1744,-3.1159,-3.0943,-3.0926,-3.086,-3.067,-3.0659,-3.0138,-2.8955,-2.6814,-2.5702,-2.5889,-2.5349,-2.5308,-2.5837,-2.6135,-2.6269,-2.6269,-2.5973,-2.5425,-2.4709,-2.4423,-2.3855,-2.3083,-2.2744,-2.2606,-2.2694,-2.3438,-2.4201,-2.4898,-2.5334,-2.5701,-2.5914,-2.5232,-2.4504,-2.3777,-2.3285,-2.293,-2.2752,-2.3123,-2.3712,-2.4135,-2.3627,-2.3293,-2.3073,-2.3003,-2.2231,-2.1474,-2.1615,-2.1345,-2.1106,-2.1446,-2.1493,-2.1655,-2.2137,-2.2737,-2.3389,-2.424,-2.4809,-2.5262,-2.5576,-2.5539,-2.5517,-2.5633,-2.6089,-2.6556,-2.6873,-2.7672,-2.8298,-2.846,-2.9077,-3.0057,-3.1476,-3.2786,-3.3903,-3.4863,-3.4891,-3.507,-3.5489,-3.5504,-3.5504,-3.5504,-3.5504,-3.5504,-3.5504,-3.5504,-3.5504,-3.5504,-3.5504,-3.5504,-3.5504,-3.5504,-3.5504,-3.5504,-3.5504,-3.5504,-3.5504,-3.5504,-3.5504,-3.5504,-3.5504,-3.5504,-3.5504,-3.4074,-3.4061,-3.4312,-3.5311,-3.5504,-3.5504,-3.5504,-3.5504,-3.5472,-3.5392,-3.3822,-3.3359,-3.5067,-3.365,-3.2961,-3.3808,-3.3413,-3.2634,-3.149,-3.136,-3.1346,-3.1409,-2.8632,-2.6555,-2.5382,-2.5882,-2.6273,-2.6476,-2.7148,-2.7452,-2.7382,-2.6721,-2.6041,-2.537,-2.4709,-2.3989,-2.3305,-2.3245,-2.3215,-2.3275,-2.4089,-2.4794,-2.5411,-2.5554,-2.6025,-2.6497,-2.5839,-2.5553,-2.5331,-2.4194,-2.3382,-2.2881,-2.293,-2.341,-2.4061,-2.4631,-2.4341,-2.3861,-2.38,-2.3334,-2.2946,-2.3309,-2.2705,-2.1967,-2.1838,-2.1801,-2.2184,-2.3388,-2.4239,-2.513,-2.6322,-2.684,-2.7104,-2.7104,-2.6893,-2.6793,-2.7056,-2.7491,-2.7682,-2.732,-2.8225,-2.8648,-2.7967,-2.8678,-3.0023,-3.2108,-3.317,-3.4203,-3.5429,-3.5504,-3.5504,-3.5504,-3.5504,-3.5504,-3.5504,-3.5504,-3.5504,-3.5504,-3.5504,-3.5504,-3.5504,-3.5504,-3.5504,-3.5504,-3.5504,-3.5504,-3.5504,-3.5504,-3.5504,-3.5504,-3.5504,-3.5504,-3.5504,-3.5554,-3.5587,-3.5587,-3.5119,-3.4543,-3.4312,-3.5311,-3.5504,-3.5504,-3.5504,-3.5504,-3.5213,-3.4428,-3.3959,-3.3567,-3.3255,-3.2855,-3.2664,-3.289,-3.3013,-3.3064,-3.3029,-3.2525,-3.1722,-3.0613,-2.9285,-2.8183,-2.7397,-2.6451,-2.6064,-2.6272,-2.6442,-2.6273,-2.5864,-2.5701,-2.5536,-2.5398,-2.5231,-2.5063,-2.4852,-2.4279,-2.4031,-2.4118,-2.4879,-2.5259,-2.5466,-2.6123,-2.645,-2.6497,-2.5839,-2.5301,-2.4835,-2.4568,-2.4403,-2.4355,-2.4804,-2.5435,-2.5911,-2.5515,-2.5297,-2.5167,-2.5109,-2.4984,-2.4998,-2.5539,-2.5865,-2.5708,-2.4378,-2.4266,-2.461,-2.5352,-2.6529,-2.7462,-2.7751,-2.8219,-2.8557,-2.8557,-2.8506,-2.8483,-2.8538,-2.8634,-2.9113,-3.0142,-2.8908,-2.8389,-2.9405,-3.0135,-3.1227,-3.2795,-3.426,-3.519,-3.5489,-3.5504,-3.5504,-3.5504,-3.5504,-3.5504,-3.5504,-3.5504,-3.5504,-3.5504,-3.5504,-3.5504,-3.5504,-3.5504,-3.5504,-3.5504,-3.5504,-3.5504,-3.5504,-3.5504,-3.5504,-3.5504,-3.5504,-3.5504,-3.5554,-3.6134,-3.6353,-3.6353,-3.6362,-3.5481,-3.4975,-3.5842,-3.5714,-3.5504,-3.5504,-3.5504,-3.5326,-3.4758,-3.4279,-3.3993,-3.3973,-3.3567,-3.3463,-3.3939,-3.4151,-3.4171,-3.4008,-3.3216,-3.2309,-3.119,-2.9633,-2.8722,-2.8689,-2.7033,-2.634,-2.6593,-2.6593,-2.6319,-2.577,-2.5413,-2.5307,-2.537,-2.5035,-2.5063,-2.537,-2.4979,-2.4823,-2.4908,-2.5618,-2.5933,-2.5999,-2.6779,-2.7091,-2.7031,-2.6686,-2.5938,-2.5191,-2.5502,-2.5428,-2.528,-2.5896,-2.6318,-2.6587,-2.6557,-2.6545,-2.6553,-2.6457,-2.6654,-2.6933,-2.7205,-2.727,-2.7063,-2.6197,-2.6096,-2.6396,-2.7051,-2.8052,-2.8876,-2.9245,-2.972,-3.0051,-3.0051,-2.9987,-3.0086,-3.0471,-3.0235,-3.0321,-3.1118,-3.0108,-2.9813,-3.0926,-3.1377,-3.2172,-3.3648,-3.4545,-3.516,-3.5489,-3.5504,-3.5504,-3.5504,-3.5504,-3.5504,-3.5504,-3.5504,-3.5504,-3.5504,-3.5504,-3.5504,-3.5504,-3.5504,-3.5504,-3.5504,-3.5504,-3.5504,-3.5504,-3.5504,-3.5504,-3.5504,-3.5504,-3.5504,-3.5587,-3.6337,-3.6615,-3.6615,-3.7404,-3.6477,-3.5878,-3.6537,-3.6193,-3.5789,-3.5684,-3.5669,-3.5624,-3.5519,-3.4758,-3.4576,-3.5392,-3.4758,-3.4576,-3.5439,-3.5504,-3.522,-3.4548,-3.3771,-3.2977,-3.2137,-3.0035,-2.9143,-2.9613,-2.7674,-2.6721,-2.6894,-2.6816,-2.6478,-2.5966,-2.5505,-2.5362,-2.5522,-2.5043,-2.5187,-2.5783,-2.5646,-2.5591,-2.5646,-2.6256,-2.651,-2.659,-2.7331,-2.76,-2.76,-2.76,-2.6885,-2.605,-2.6723,-2.6519,-2.6144,-2.6738,-2.6931,-2.7021,-2.7465,-2.7764,-2.7891,-2.7725,-2.8229,-2.8713,-2.863,-2.8283,-2.8033,-2.8033,-2.7831,-2.7877,-2.8584,-2.9378,-3.0104,-3.0723,-3.1249,-3.1584,-3.1584,-3.1479,-3.1673,-3.2347,-3.1932,-3.1627,-3.1743,-3.1618,-3.1729,-3.2176,-3.2306,-3.2963,-3.4396,-3.4623,-3.4906,-3.5474,-3.5504,-3.5504,-3.5504,-3.5504,-3.5504,-3.5504,-3.5504,-3.5504,-3.5504,-3.5504,-3.5504,-3.5504,-3.5504,-3.5504,-3.5504,-3.5504,-3.5504,-3.5504,-3.5651,-3.5619,-3.5537,-3.5797,-3.5829,-3.5782,-3.6676,-3.6978,-3.6978,-3.7404,-3.6836,-3.6552,-3.718,-3.721,-3.6971,-3.6432,-3.6357,-3.6148,-3.5579,-3.5392,-3.5359,-3.5504,-3.5392,-3.5359,-3.5504,-3.5504,-3.522,-3.4548,-3.4377,-3.3638,-3.2169,-3.1062,-3.0513,-3.0596,-2.8347,-2.6993,-2.6587,-2.6031,-2.5523,-2.5001,-2.5654,-2.5995,-2.6128,-2.6778,-2.7134,-2.7265,-2.6628,-2.6336,-2.6363,-2.6457,-2.651,-2.659,-2.7331,-2.76,-2.76,-2.76,-2.7475,-2.7439,-2.8087,-2.7908,-2.7469,-2.8117,-2.8323,-2.8233,-2.775,-2.8423,-2.9205,-2.8621,-2.931,-3.0205,-3.0182,-3.0553,-3.0923,-3.0923,-2.9988,-2.9275,-2.991,-3.1145,-3.2109,-3.2213,-3.2751,-3.3182,-3.3182,-3.3164,-3.3192,-3.3331,-3.3256,-3.339,-3.3988,-3.3381,-3.2742,-3.2263,-3.271,-3.3477,-3.4425,-3.5026,-3.54,-3.5504,-3.5504,-3.5504,-3.5504,-3.5504,-3.5504,-3.5504,-3.5504,-3.5504,-3.5504,-3.5504,-3.5504,-3.5504,-3.5504,-3.5504,-3.5504,-3.5504,-3.5504,-3.5554,-3.6196,-3.6086,-3.5619,-3.6981,-3.707,-3.6615,-3.8044,-3.8591,-3.8591,-3.8452,-3.7704,-3.721,-3.7838,-3.7659,-3.721,-3.6582,-3.6492,-3.6252,-3.5594,-3.5504,-3.5504,-3.5504,-3.5504,-3.5504,-3.5504,-3.5504,-3.537,-3.507,-3.4528,-3.3908,-3.3206,-3.1999,-3.1495,-3.1806,-3.02,-2.8984,-2.8174,-2.6786,-2.5799,-2.528,-2.6147,-2.663,-2.6806,-2.7627,-2.8261,-2.8697,-2.8364,-2.8024,-2.7686,-2.7686,-2.7465,-2.7152,-2.7473,-2.7839,-2.8169,-2.8169,-2.8408,-2.8708,-2.8622,-2.8397,-2.8203,-2.8502,-2.8607,-2.8547,-2.8233,-2.9071,-3.0043,-2.9744,-3.0357,-3.1047,-3.1047,-3.1271,-3.1511,-3.1511,-3.1026,-3.0763,-3.1397,-3.205,-3.2617,-3.2991,-3.3604,-3.4038,-3.4038,-3.4367,-3.4622,-3.4622,-3.4277,-3.4174,-3.4474,-3.4157,-3.3962,-3.405,-3.4316,-3.4623,-3.5008,-3.5325,-3.5504,-3.5504,-3.5504,-3.5504,-3.5504,-3.5504,-3.5504,-3.5504,-3.5504,-3.5504,-3.5504,-3.5504,-3.5504,-3.5504,-3.5926,-3.6102,-3.6149,-3.66,-3.6768,-3.6799,-3.713,-3.7086,-3.686,-3.7531,-3.7819,-3.7958,-3.8646,-3.8908,-3.8854]},{"header":{"parameterUnit":"m.s-1","parameterCategory":1,"la1":30.6,"la2":28.766,"lo1":-90.7593,"lo2":-88.6598,"dy":0.0162,"dx":0.0183,"nx":116,"ny":114,"refTime":"2023-11-18T18:00:00:Z","depth":0,"parameterNumber":3,"parameterNumberName":"V-component_of_WINDS"},"data":[0.0,0.0,0.0,0.0,0.0,0.0,0.0,0.0,0.0,0.0,0.0,0.0,0.0,0.0,0.0,0.0,0.0,0.0,0.0,0.0,0.0,0.0,0.0,0.0,0.0,0.0,0.0,0.0,0.0,0.0,0.0,0.0,0.0,0.0,0.0,0.0,0.0,0.0,0.0,0.0,0.0,0.0,0.0,0.0,0.0,0.0,0.0,0.0,0.0,0.0,0.0,0.0,0.0,0.0,0.0,0.0,0.0,0.0,0.0,0.0,0.0,0.0,0.0,0.0,0.0,0.0,0.0,0.0,0.0,0.0,0.0,0.0,0.0,0.0,0.0,0.0,0.0,0.0,0.0,0.0,0.0,0.0,0.0,0.0,0.0,0.0,0.0,0.0,0.0,0.0,0.0,0.0,0.0,0.0,0.0,0.0,0.0,0.0,0.0,0.0,0.0,0.0,0.0,0.0,0.0,0.0,0.0,0.0,0.0,0.0,0.0,0.0,0.0,0.0,0.0,0.0,0.0,0.0,0.0,0.0,0.0,0.0,0.0,0.0,0.0,0.0,0.0,0.0,0.0,0.0,0.0,0.0,0.0,0.0,0.0,0.0,0.0,0.0,0.0,0.0,0.0,0.0,0.0,0.0,0.0,0.0,0.0,0.0,0.0,0.0,0.0,0.0,0.0,0.0,0.0,0.0,0.0,0.0,0.0,0.0,0.0,0.0,0.0,0.0,0.0,0.0,0.0,0.0,0.0,0.0,0.0,0.0,0.0,0.0,0.0,0.0,0.0,0.0,0.0,0.0,0.0,0.0,0.0,0.0,0.0,0.0,0.0,0.0,0.0,0.0,0.0,0.0,0.0,0.0,0.0,0.0,0.0,0.0,0.0,0.0,0.0,0.0,0.0,0.0,0.0,0.0,0.0,0.0,0.0,0.0,0.0,0.0,0.0,0.0,0.0,0.0,0.0,0.0,0.0,0.0,0.0,0.0,0.0,0.0,0.0,0.0,0.0,0.0,0.0,0.0,0.0,0.0,0.0,0.0,0.0,0.0,0.0,0.0,0.0,0.0,0.0,0.0,0.0,0.0,0.0,0.0,0.0,0.0,0.0,0.0,0.0,0.0,0.0,0.0,0.0,0.0,0.0,0.0,0.0,0.0,0.0,0.0,0.0,0.0,0.0,0.0,0.0,0.0,0.0,0.0,0.0,0.0,0.0,0.0,0.0,0.0,0.0,0.0,0.0,0.0,0.0,0.0,0.0,0.0,0.0,0.0,0.0,0.0,0.0,0.0,0.0,0.0,0.0,0.0,0.0,0.0,0.0,0.0,0.0,0.0,0.0,0.0,0.0,0.0,0.0,0.0,0.0,0.0,0.0,0.0,0.0,0.0,0.0,0.0,0.0,0.0,0.0,0.0,0.0,0.0,0.0,0.0,0.0,0.0,0.0,0.0,0.0,0.0,0.0,0.0,0.0,0.0,0.0,0.0,0.0,0.0,0.0,0.0,0.0,0.0,0.0,0.0,0.0,0.0,0.0,0.0,0.0,0.0,0.0,0.0,0.0,0.0,0.0,0.0,0.0,0.0,0.0,0.0,0.0,0.0,0.0,0.0,0.0,0.0,0.0,0.0,0.0,0.0,0.0,0.0,0.0,0.0,0.0,0.0,0.0,0.0,0.0,0.0,0.0,0.0,0.0,0.0,0.0,0.0,0.0,0.0,0.0,0.0,0.0,0.0,0.0,0.0,0.0,0.0,0.0,0.0,0.0,0.0,0.0,0.0,0.0,0.0,0.0,0.0,0.0,0.0,0.0,0.0,0.0,0.0,0.0,0.0,0.0,0.0,0.0,0.0,0.0,0.0,0.0,0.0,0.0,0.0,0.0,0.0,0.0,0.0,0.0,0.0,0.0,0.0,0.0,0.0,0.0,0.0,0.0,0.0,0.0,0.0,0.0,0.0,0.0,0.0,0.0,0.0,0.0,0.0,0.0,0.0,0.0,0.0,0.0,0.0,0.0,0.0,0.0,0.0,0.0,0.0,0.0,0.0,0.0,0.0,0.0,0.0,0.0,0.0,0.0,0.0,0.0,0.0,0.0,0.0,0.0,0.0,0.0,0.0,0.0,0.0,0.0,0.0,0.0,0.0,0.0,0.0,0.0,0.0,0.0,0.0,0.0,0.0,0.0,0.0,0.0,0.0,0.0,0.0,0.0,0.0,0.0,0.0,0.0,0.0,0.0,0.0,0.0,0.0,0.0,0.0,0.0,0.0,0.0,0.0,0.0,0.0,0.0,0.0,0.0,0.0,0.0,0.0,0.0,0.0,0.0,0.0,0.0,0.0,0.0,0.0,0.0,0.0,0.0,0.0,0.0,0.0,0.0,0.0,0.0,0.0,0.0,0.0,0.0,0.0,0.0,0.0,0.0,0.0,0.0,0.0,0.0,0.0,0.0,0.0,0.0,0.0,0.0,0.0,0.0,0.0,0.0,0.0,0.0,0.0,0.0,0.0,0.0,0.0,0.0,0.0,0.0,0.0,0.0,0.0,0.0,0.0,0.0,0.0,0.0,0.0,0.0,0.0,0.0,0.0,0.0,0.0,0.0,0.0,0.0,0.0,0.0,0.0,0.0,0.0,0.0,0.0,0.0,0.0,0.0,0.0,0.0,0.0,0.0,0.0,0.0,0.0,0.0,0.0,0.0,0.0,0.0,0.0,0.0,0.0,0.0,0.0,0.0,0.0,0.0,0.0,0.0,0.0,0.0,0.0,0.0,0.0,0.0,0.0,0.0,0.0,0.0,0.0,0.0,0.0,0.0,0.0,0.0,0.0,0.0,0.0,0.0,0.0,0.0,0.0,0.0,0.0,0.0,0.0,0.0,0.0,0.0,0.0,0.0,0.0,0.0,0.0,0.0,0.0,0.0,0.0,0.0,0.0,0.0,0.0,0.0,0.0,0.0,0.0,0.0,0.0,0.0,0.0,0.0,0.0,0.0,0.0,0.0,0.0,0.0,0.0,0.0,0.0,0.0,0.0,0.0,0.0,0.0,0.0,0.0,0.0,0.0,0.0,0.0,0.0,0.0,0.0,0.0,0.0,0.0,0.0,0.0,0.0,0.0,0.0,0.0,0.0,0.0,0.0,0.0,0.0,0.0,0.0,0.0,0.0,0.0,0.0,0.0,0.0,0.0,0.0,0.0,0.0,0.0,0.0,0.0,0.0,0.0,0.0,0.0,0.0,0.0,0.0,0.0,0.0,0.0,0.0,0.0,0.0,0.0,0.0,0.0,0.0,0.0,0.0,0.0,0.0,0.0,0.0,0.0,0.0,0.0,0.0,0.0,0.0,0.0,0.0,0.0,0.0,0.0,0.0,0.0,0.0,0.0,0.0,0.0,0.0,0.0,0.0,0.0,0.0,0.0,0.0,0.0,0.0,0.0,0.0,0.0,0.0,0.0,0.0,0.0,0.0,0.0,0.0,0.0,0.0,0.0,0.0,0.0,0.0,0.0,0.0,0.0,0.0,0.0,0.0,0.0,0.0,0.0,0.0,0.0,0.0,0.0,0.0,0.0,0.0,0.0,0.0,0.0,0.0,0.0,0.0,0.0,0.0,0.0,0.0,0.0,0.0,0.0,0.0,0.0,0.0,0.0,0.0,0.0,0.0,0.0,0.0,0.0,0.0,0.0,0.0,0.0,0.0,0.0,0.0,0.0,0.0,0.0,0.0,0.0,0.0,0.0,0.0,0.0,0.0,0.0,0.0,0.0,0.0,0.0,0.0,0.0,0.0,0.0,0.0,0.0,0.0,0.0,0.0,0.0,0.0,0.0,0.0,0.0,0.0,0.0,0.0,0.0,0.0,0.0,0.0,0.0,0.0,0.0,0.0,0.0,0.0,0.0,0.0,0.0,0.0,0.0,0.0,0.0,0.0,0.0,0.0,0.0,0.0,0.0,0.0,0.0,0.0,0.0,0.0,0.0,0.0,0.0,0.0,0.0,0.0,0.0,0.0,0.0,0.0,0.0,0.0,0.0,0.0,0.0,0.0,0.0,0.0,0.0,0.0,0.0,0.0,0.0,0.0,0.0,0.0,0.0,0.0,0.0,0.0,0.0,0.0,0.0,0.0,0.0,0.0,0.0,0.0,0.0,0.0,0.0,0.0,0.0,0.0,0.0,0.0,0.0,0.0,0.0,0.0,0.0,0.0,0.0,0.0,0.0,0.0,0.0,0.0,0.0,0.0,0.0,0.0,0.0,0.0,0.0,0.0,0.0,0.0,0.0,0.0,0.0,0.0,0.0,0.0,0.0,0.0,0.0,0.0,0.0,0.0,0.0,0.0,0.0,0.0,0.0,0.0,0.0,0.0,0.0,0.0,0.0,0.0,0.0,0.0,0.0,0.0,0.0,0.0,0.0,0.0,0.0,0.0,0.0,0.0,0.0,0.0,0.0,0.0,0.0,0.0,0.0,0.0,0.0,0.0,0.0,0.0,0.0,0.0,0.0,0.0,0.0,0.0,0.0,0.0,0.0,0.0,0.0,0.0,0.0,0.0,0.0,0.0,0.0,0.0,0.0,0.0,0.0,0.0,0.0,0.0,0.0,0.0,0.0,0.0,0.0,0.0,0.0,0.0,0.0,0.0,0.0,0.0,0.0,0.0,0.0,0.0,0.0,0.0,0.0,0.0,0.0,0.0,0.0,0.0,0.0,0.0,0.0,0.0,0.0,0.0,0.0,0.0,0.0,0.0,0.0,0.0,0.0,0.0,0.0,0.0,0.0,0.0,0.0,0.0,0.0,0.0,0.0,0.0,0.0,0.0,0.0,0.0,0.0,0.0,0.0,0.0,0.0,0.0,0.0,0.0,0.0,0.0,0.0,0.0,0.0,0.0,0.0,0.0,0.0,0.0,0.0,0.0,0.0,0.0,0.0,0.0,0.0,0.0,0.0,0.0,0.0,0.0,0.0,0.0,0.0,0.0,0.0,0.0,0.0,0.0,0.0,0.0,0.0,0.0,0.0,0.0,0.0,0.0,0.0,0.0,0.0,0.0,0.0,0.0,0.0,0.0,0.0,0.0,0.0,0.0,0.0,0.0,0.0,0.0,0.0,0.0,0.0,0.0,0.0,0.0,0.0,0.0,0.0,0.0,0.0,0.0,0.0,0.0,0.0,0.0,0.0,0.0,0.0,0.0,0.0,0.0,0.0,0.0,0.0,0.0,0.0,0.0,0.0,0.0,0.0,0.0,0.0,0.0,0.0,0.0,0.0,0.0,0.0,0.0,0.0,0.0,0.0,0.0,0.0,0.0,0.0,0.0,0.0,0.0,0.0,0.0,0.0,0.0,0.0,0.0,0.0,0.0,0.0,0.0,0.0,0.0,0.0,0.0,0.0,0.0,0.0,0.0,0.0,0.0,0.0,0.0,0.0,0.0,0.0,0.0,0.0,0.0,0.0,0.0,0.0,0.0,0.0,0.0,0.0,0.0,0.0,0.0,0.0,0.0,0.0,0.0,0.0,0.0,0.0,0.0,0.0,0.0,0.0,0.0,0.0,0.0,0.0,0.0,0.0,0.0,0.0,0.0,0.0,0.0,0.0,0.0,0.0,0.0,0.0,0.0,0.0,0.0,0.0,0.0,0.0,0.0,0.0,0.0,0.0,0.0,0.0,0.0,0.0,0.0,0.0,0.0,0.0,0.0,0.0,0.0,0.0,0.0,0.0,0.0,0.0,0.0,0.0,0.0,0.0,0.0,0.0,0.0,0.0,0.0,0.0,0.0,0.0,0.0,0.0,0.0,0.0,0.0,0.0,0.0,0.0,0.0,0.0,0.0,0.0,0.0,0.0,0.0,0.0,0.0,0.0,0.0,0.0,0.0,0.0,0.0,0.0,0.0,0.0,0.0,0.0,0.0,0.0,0.0,0.0,0.0,0.0,0.0,0.0,0.0,0.0,0.0,0.0,0.0,0.0,0.0,0.0,0.0,0.0,0.0,0.0,0.0,0.0,0.0,0.0,0.0,0.0,0.0,0.0,0.0,0.0,0.0,0.0,0.0,0.0,0.0,0.0,0.0,0.0,0.0,0.0,0.0,0.0,0.0,0.0,0.0,0.0,0.0,0.0,0.0,0.0,0.0,1.2745,1.3318,0.0,0.0,0.0,0.0,0.0,0.0,0.0,0.0,0.0,0.0,0.0,0.0,0.0,0.0,0.0,0.0,0.0,0.0,0.0,0.0,0.0,0.0,0.0,0.0,0.0,0.0,0.0,0.0,0.0,0.0,0.0,0.0,0.0,0.0,0.0,0.0,0.0,0.0,1.9695,1.9572,2.0385,2.1485,2.1872,2.1626,0.0,0.0,0.0,0.0,0.0,0.0,0.0,0.0,0.0,0.0,0.0,0.0,0.0,0.0,0.0,0.0,0.0,0.0,0.0,0.0,0.0,0.0,0.0,0.0,0.0,0.0,0.0,0.0,0.0,0.0,0.0,0.0,0.0,0.0,0.0,0.0,0.0,0.0,0.0,0.0,0.0,0.0,0.0,0.0,0.0,0.0,0.0,0.0,0.0,0.0,0.0,0.0,0.0,0.0,0.0,0.0,0.0,0.0,0.0,0.0,0.0,0.0,0.0,0.0,0.0,0.0,0.0,0.0,0.0,0.0,1.2106,1.2253,0.0,0.0,0.0,0.0,0.0,0.0,0.0,0.0,0.0,0.0,0.0,0.0,0.0,0.0,0.0,0.0,0.0,0.0,0.0,0.0,0.0,0.0,0.0,2.083,2.0942,2.1151,2.0645,2.0344,0.0,0.0,0.0,0.0,0.0,0.0,0.0,1.8077,1.8967,2.0985,1.9989,2.0234,2.172,2.3084,2.3094,2.2034,2.2686,0.0,0.0,0.0,0.0,0.0,0.0,0.0,0.0,0.0,0.0,0.0,0.0,0.0,0.0,0.0,0.0,0.0,0.0,0.0,0.0,0.0,0.0,0.0,0.0,0.0,0.0,0.0,0.0,0.0,0.0,0.0,0.0,0.0,0.0,0.0,0.0,0.0,0.0,0.0,0.0,0.0,0.0,0.0,0.0,0.0,0.0,0.0,0.0,0.0,0.0,0.0,0.0,0.0,0.0,0.0,0.0,0.0,0.0,0.0,0.0,0.0,0.0,0.0,1.2603,1.2487,1.2609,1.2715,1.244,1.1828,1.1756,1.1264,1.0542,1.0923,0.0,0.0,0.0,0.0,0.0,0.0,0.0,0.0,0.0,0.0,0.0,0.0,0.0,0.0,0.0,0.0,0.0,0.0,0.0,0.0,0.0,2.01,2.0739,2.1772,2.0912,2.0545,2.1133,0.0,0.0,0.0,0.0,0.0,1.8798,1.7954,1.809,1.9327,2.1015,2.2195,2.2917,2.5104,2.5792,2.5114,2.359,2.4214,2.6267,0.0,0.0,0.0,0.0,0.0,0.0,0.0,0.0,0.0,0.0,0.0,0.0,0.0,0.0,0.0,0.0,0.0,0.0,0.0,0.0,0.0,0.0,0.0,0.0,0.0,0.0,0.0,0.0,0.0,0.0,0.0,0.0,0.0,0.0,0.0,0.0,0.0,0.0,0.0,0.0,0.0,1.7149,1.6761,0.0,0.0,0.0,0.0,0.0,0.0,0.0,0.0,0.0,0.0,0.0,0.0,0.0,1.4019,1.3342,1.3672,1.3704,1.3418,1.3369,1.2664,1.1437,1.2038,1.1757,1.0811,1.0963,0.0,1.1394,1.1082,0.0,0.0,0.0,0.0,0.0,0.0,0.0,0.0,0.0,0.0,0.0,0.0,0.0,0.0,0.0,0.0,0.0,0.0,0.0,0.0,0.0,2.1079,2.2142,2.3214,2.4309,2.4158,2.2206,2.2325,2.1501,1.935,1.8516,1.8066,1.8007,1.7908,1.884,2.0859,2.4671,2.6151,2.5498,2.7484,2.8109,2.7496,2.6642,2.5937,2.5343,2.4251,0.0,0.0,0.0,0.0,0.0,0.0,0.0,0.0,0.0,0.0,0.0,0.0,0.0,0.0,0.0,0.0,0.0,0.0,0.0,0.0,0.0,0.0,0.0,0.0,0.0,0.0,0.0,0.0,0.0,0.0,0.0,0.0,0.0,0.0,0.0,0.0,0.0,0.0,0.0,1.694,1.7142,1.6564,1.7202,1.7505,0.0,0.0,0.0,0.0,0.0,0.0,0.0,0.0,0.0,1.6002,1.5107,1.4503,1.4219,1.4143,1.4143,1.4219,1.3948,1.3471,1.2808,1.2674,1.2451,1.2205,1.184,1.1782,1.1891,1.1181,1.0919,1.0964,0.0,0.0,0.0,0.0,1.0988,1.1006,0.0,0.0,0.0,0.0,0.0,0.0,0.0,0.0,0.0,0.0,0.0,0.0,2.0567,2.2106,2.3635,2.5362,2.6814,2.6762,2.4612,2.3924,2.2496,2.0023,1.8756,1.7997,1.7739,1.9022,2.1029,2.3791,2.7821,2.9227,2.8172,2.9691,3.003,2.9339,2.9602,2.8347,2.5891,2.5233,2.3851,2.2111,0.0,0.0,0.0,0.0,0.0,0.0,0.0,0.0,0.0,0.0,0.0,0.0,0.0,0.0,0.0,0.0,0.0,0.0,0.0,0.0,0.0,0.0,0.0,0.0,0.0,0.0,0.0,0.0,0.0,0.0,0.0,0.0,0.0,0.0,0.0,0.0,0.0,1.6886,1.7289,1.6394,1.7301,1.7761,0.0,0.0,0.0,0.0,0.0,0.0,1.8807,1.7885,1.727,1.7148,1.6057,1.5364,1.5136,1.4902,1.4933,1.5273,1.4834,1.446,1.4152,1.3626,1.3384,1.3368,1.2839,1.2576,1.2457,1.1484,1.0889,1.0655,1.083,1.0791,1.0655,1.084,1.0908,1.093,0.0,0.0,0.0,0.0,0.0,0.0,0.0,0.0,0.0,0.0,0.0,1.8435,2.1158,2.2428,2.4617,2.845,2.6508,2.6258,2.9062,2.4014,2.143,2.265,1.9731,1.8371,1.8894,2.2051,2.5059,2.7808,2.9151,3.0018,3.047,3.1574,3.1537,3.057,3.1587,3.161,3.0701,2.6957,2.5866,2.6449,2.3804,0.0,0.0,0.0,0.0,0.0,0.0,0.0,0.0,0.0,0.0,0.0,0.0,0.0,0.0,0.0,0.0,0.0,0.0,0.0,0.0,0.0,0.0,0.0,0.0,0.0,0.0,0.0,0.0,0.0,0.0,0.0,0.0,0.0,0.0,0.0,0.0,0.0,0.0,1.5935,1.8077,0.0,0.0,0.0,0.0,1.9597,1.966,1.9936,2.0541,1.9446,1.8424,1.7599,1.7367,1.6863,1.6026,1.6396,1.658,1.6599,1.6182,1.5434,1.4378,1.4611,1.4117,1.3113,1.3361,1.3435,1.335,1.2083,1.1557,1.1498,1.1064,1.1152,1.1467,1.1055,1.0908,1.085,0.0,0.0,0.0,0.0,0.0,0.0,0.0,0.0,1.65,1.65,1.8254,2.0444,2.284,2.592,2.865,3.0675,3.1475,3.11,2.932,2.6667,2.4923,2.4396,2.1695,2.1153,2.32,2.5118,2.6942,2.8599,3.0105,3.0746,3.0633,3.1712,3.2014,3.1675,3.2441,3.2424,3.1687,2.8943,2.6719,2.4865,2.321,2.2235,0.0,0.0,0.0,0.0,0.0,0.0,0.0,0.0,0.0,0.0,0.0,0.0,0.0,0.0,0.0,0.0,0.0,0.0,0.0,0.0,0.0,0.0,0.0,0.0,0.0,0.0,0.0,0.0,0.0,0.0,0.0,0.0,0.0,0.0,0.0,0.0,0.0,1.9409,2.0064,0.0,2.0234,2.022,2.0406,2.0876,2.1515,2.2004,2.2246,2.1666,2.1199,2.0883,1.95,1.8564,1.8159,1.7201,1.6843,1.7148,1.6709,1.6137,1.5481,1.5068,1.4627,1.4154,1.3439,1.3244,1.3447,1.2739,1.2269,1.1973,1.1794,1.168,1.1616,1.1709,1.1736,1.1716,0.0,0.0,0.0,0.0,0.0,0.0,0.0,0.0,1.6638,1.7014,1.9334,2.2036,2.4808,2.8315,3.1133,3.2725,3.3217,3.2493,3.0122,2.7535,2.5782,2.5045,2.3245,2.3417,2.5845,2.7544,2.895,3.0004,3.1135,3.1486,3.1173,3.1876,3.1893,3.1353,3.229,3.2179,3.126,3.0188,2.7908,2.4996,2.4142,2.3848,2.3628,0.0,0.0,0.0,0.0,0.0,0.0,0.0,0.0,0.0,0.0,0.0,0.0,0.0,0.0,0.0,0.0,0.0,0.0,0.0,0.0,0.0,0.0,0.0,0.0,0.0,0.0,0.0,0.0,0.0,0.0,0.0,0.0,0.0,0.0,0.0,2.1493,2.2246,2.261,2.2669,2.2317,2.2402,2.2516,2.2592,2.3642,2.4255,2.4255,2.3894,2.3462,2.2989,2.1433,2.026,1.9563,1.8245,1.7588,1.7588,1.7158,1.6719,1.6279,1.5593,1.5179,1.4942,1.3969,1.3592,1.3656,1.3271,1.2842,1.2451,1.2451,1.2266,1.2064,1.2334,1.2451,1.2451,0.0,0.0,0.0,0.0,0.0,0.0,0.0,1.65,1.6901,1.8053,2.0162,2.3025,2.6866,2.9302,3.1731,3.4395,3.1258,2.99,3.1723,2.6426,2.3622,2.4595,2.4381,2.4971,2.6637,2.9302,3.1185,3.2215,3.2215,3.216,3.2106,3.2131,3.1245,2.9645,3.1163,3.1054,2.9692,3.0599,2.9639,2.7417,2.6858,2.6245,2.5457,0.0,0.0,0.0,0.0,0.0,0.0,0.0,0.0,0.0,0.0,0.0,0.0,0.0,0.0,0.0,0.0,0.0,0.0,0.0,0.0,0.0,0.0,0.0,0.0,0.0,0.0,0.0,0.0,0.0,0.0,0.0,0.0,0.0,2.0717,2.2661,2.4067,2.4117,2.5536,2.5444,2.2781,2.441,2.5459,2.4921,2.5923,2.6537,2.6524,2.5937,2.4995,2.3616,2.3025,2.1903,2.0186,1.9596,1.8877,1.8032,1.7631,1.7178,1.6707,1.6339,1.5889,1.541,1.498,1.4561,1.4094,1.3701,1.3281,1.2925,1.2905,1.2905,1.2905,1.2905,1.2905,1.2905,0.0,0.0,0.0,0.0,0.0,0.0,0.0,1.65,1.6901,1.8053,2.1179,2.4318,2.7027,2.9967,3.2239,3.3437,3.093,2.9702,3.0628,2.5753,2.3594,2.5258,2.7532,2.9377,3.0608,3.1788,3.234,3.2215,3.2215,3.1559,3.0326,3.0999,3.0605,2.9353,3.0544,3.0769,3.0395,3.0667,3.0731,3.0471,2.8487,2.7626,2.7233,0.0,0.0,0.0,0.0,0.0,0.0,0.0,0.0,0.0,0.0,0.0,0.0,0.0,0.0,0.0,0.0,0.0,0.0,0.0,0.0,0.0,0.0,0.0,0.0,0.0,0.0,0.0,0.0,0.0,0.0,0.0,0.0,2.2393,2.3,2.428,2.5611,2.6829,2.6758,2.6724,2.7064,2.7029,2.7029,2.7175,2.7465,2.7482,2.7115,2.6562,2.5882,2.5054,2.3893,2.2867,2.1989,2.0183,1.9177,1.8944,1.8184,1.7617,1.7197,1.708,1.6643,1.5889,1.543,1.5,1.457,1.4114,1.3685,1.3301,1.2998,1.2905,1.2905,1.2905,1.2905,1.2905,0.0,0.0,0.0,0.0,0.0,0.0,0.0,1.65,1.7064,1.8668,2.187,2.4921,2.7356,2.9767,3.1235,3.1336,2.9603,2.8165,2.7286,2.4934,2.4721,2.7259,2.9682,3.1336,3.219,3.3006,3.3144,3.2579,3.2579,3.1785,3.0288,3.1018,3.0434,2.882,2.9775,3.0209,3.022,3.0366,3.136,3.2711,3.1264,3.0764,3.0612,2.7937,2.7515,2.8164,2.6047,2.6348,2.7618,2.6486,0.0,0.0,0.0,0.0,0.0,0.0,0.0,0.0,0.0,0.0,0.0,0.0,0.0,0.0,0.0,0.0,0.0,0.0,0.0,0.0,0.0,0.0,0.0,0.0,2.3376,2.4883,2.5925,2.6402,2.7193,2.8637,2.8286,2.8118,2.8513,2.8511,2.8338,2.8134,2.8301,2.821,2.7657,2.714,2.6474,2.5624,2.46,2.3591,2.2694,2.116,2.0009,1.9299,1.8787,1.8141,1.7383,1.7383,1.6936,1.6075,1.5791,1.5342,1.4766,1.4512,1.4133,1.3704,0.0,0.0,0.0,0.0,1.3037,1.2905,0.0,0.0,0.0,0.0,0.0,0.0,0.0,1.6531,1.7265,1.9434,2.2046,2.472,2.7356,2.8649,2.9164,2.8775,2.7682,2.5975,2.3534,2.455,2.6666,2.9741,3.1035,3.1926,3.2478,3.347,3.3702,3.3071,3.3088,3.2444,3.1177,3.1604,3.0529,2.8411,2.9132,2.9435,2.9466,2.9808,3.1578,3.4134,3.4125,3.4365,3.4487,3.1486,3.1198,3.198,2.8871,2.7605,2.7399,2.7054,0.0,0.0,0.0,0.0,0.0,0.0,0.0,0.0,0.0,0.0,0.0,0.0,0.0,0.0,0.0,0.0,0.0,0.0,0.0,0.0,0.0,0.0,0.0,0.0,2.5925,2.7241,2.8762,2.8599,2.8674,2.9679,2.9792,2.9404,2.8386,2.9197,2.9365,2.8386,2.8617,2.8587,2.8134,2.7519,0.0,0.0,0.0,2.4265,2.2951,2.2329,2.119,1.9595,1.9398,1.8715,1.7606,1.7517,1.7034,1.6242,1.6242,1.5782,1.5,1.4979,1.4639,1.4143,1.374,1.3574,1.3574,1.3574,1.334,1.3052,0.0,0.0,0.0,0.0,0.0,0.0,0.0,1.6774,1.714,1.892,2.0815,2.2698,2.4582,2.5762,2.6728,2.7532,2.6189,2.5247,2.5121,2.6982,2.88,3.0394,3.2353,3.3671,3.4179,3.4449,3.3979,3.2771,3.3001,3.237,3.0986,3.0923,3.0409,2.9415,2.9112,2.903,2.904,2.9119,3.0977,3.386,3.3515,3.4166,3.5219,3.4141,3.3696,3.3357,3.1811,3.2335,3.3595,3.2033,3.0951,3.0127,2.9659,2.6547,0.0,0.0,0.0,0.0,0.0,0.0,0.0,0.0,0.0,0.0,0.0,0.0,0.0,0.0,0.0,0.0,0.0,0.0,0.0,2.5871,2.7067,2.8222,2.9453,2.9528,2.9553,2.9767,2.9792,2.9702,2.9495,2.9663,2.9702,2.9495,2.8725,2.8222,2.8109,2.719,2.6549,2.6336,2.5737,2.5131,2.44,2.3168,2.2166,2.1396,1.9977,0.0,1.892,1.8208,1.7607,1.7161,1.7161,1.6836,1.6297,1.5997,1.539,1.4619,1.4153,1.3987,1.3987,1.3987,1.3938,1.386,0.0,0.0,0.0,0.0,0.0,0.0,0.0,1.7256,1.7712,1.8855,2.0194,2.1577,2.2997,2.3394,2.3885,2.4719,2.3772,2.4073,2.6311,2.7996,2.9878,3.2164,3.3803,3.4806,3.5082,3.5094,3.4324,3.2699,3.351,3.2853,3.0886,3.1024,3.0975,3.0676,3.018,3.0083,3.0306,3.1327,3.2814,3.4592,3.5141,3.6102,3.7111,3.627,3.578,3.5366,3.3972,3.3835,3.4117,3.2592,3.1495,3.0596,2.9787,2.7632,2.516,0.0,0.0,0.0,0.0,0.0,0.0,0.0,0.0,0.0,0.0,0.0,0.0,0.0,0.0,2.354,0.0,0.0,2.6088,2.7469,2.8398,2.9151,2.9716,2.9792,2.9792,2.9792,2.9792,2.9792,2.9792,2.9792,2.9792,2.9792,2.9001,2.8398,2.8122,2.7318,2.665,2.6084,2.5749,2.5347,2.48,2.4102,2.3256,2.227,2.0993,1.9985,1.9266,1.8395,1.7783,1.7383,1.7383,1.7139,1.6668,1.6281,1.5713,1.5078,1.4825,1.4484,1.4133,1.4348,1.4299,1.4104,0.0,0.0,0.0,0.0,0.0,0.0,0.0,1.7827,1.8324,1.8897,1.9843,2.0797,2.172,2.1521,2.1602,2.2253,2.2206,2.3745,2.7531,2.8774,3.0846,3.4073,3.5132,3.5658,3.5658,3.5558,3.4541,3.2605,3.4014,3.3542,3.1371,3.186,3.2256,3.2533,3.1986,3.1955,3.2274,3.3886,3.4894,3.5442,3.6813,3.783,3.8364,3.7503,3.7123,3.6822,3.5278,3.3809,3.2491,3.1788,3.0712,2.9567,2.9077,2.8324,2.7313,2.5627,2.5069,0.0,0.0,0.0,0.0,0.0,0.0,0.0,0.0,0.0,2.4549,2.4589,2.5273,2.6137,2.6976,2.7404,2.7921,2.8938,2.949,2.9856,3.0037,2.9895,2.9819,2.9897,2.9832,2.9792,2.9792,2.9792,2.9792,2.9792,2.9252,2.87,2.8285,2.7645,2.6866,2.595,2.5824,2.5511,2.4938,2.4971,2.4315,2.3119,2.2101,2.1051,1.9921,1.8761,1.8081,1.7764,1.7599,1.7266,1.6794,1.6496,1.6095,1.5634,1.5634,1.5167,1.4513,1.4805,1.4687,1.4358,0.0,0.0,0.0,0.0,0.0,0.0,0.0,0.0,1.83,1.883,1.9484,1.9939,2.0075,2.045,2.1131,2.2219,2.3622,2.5869,2.9207,3.048,3.239,3.5194,3.5943,3.6317,3.6317,3.5793,3.4459,3.2313,3.3926,3.4111,3.2948,3.3729,3.4568,3.5505,3.4611,3.4253,3.4298,3.4527,3.4894,3.5364,3.6467,3.6896,3.6948,3.7134,3.6872,3.6355,3.514,3.3068,3.1022,3.1838,3.0409,2.8705,3.0884,2.9984,2.8199,2.8463,0.0,2.4308,2.4288,2.3992,2.4103,2.5734,2.5764,2.6079,0.0,0.0,2.764,2.6911,2.7578,2.8104,2.7392,2.8069,2.895,2.9591,2.9754,3.0113,3.0932,3.0317,2.9936,3.0278,3.0036,2.9792,2.9792,2.9792,2.9792,2.9792,2.9252,2.8863,2.88,2.7846,2.7218,2.7092,2.665,2.6122,2.5523,2.5511,2.5181,2.4559,2.3192,2.2465,2.2254,2.0106,1.9112,1.9038,1.8257,1.7705,1.7305,1.7256,1.6982,1.6551,1.6551,1.6289,1.5831,1.5469,1.5312,1.5235,0.0,0.0,0.0,0.0,0.0,0.0,0.0,0.0,0.0,1.8851,1.9117,1.9287,1.9287,1.9735,2.0024,1.9869,2.1993,2.448,2.7133,2.958,3.2177,3.4893,3.5893,3.6405,3.6405,3.6132,3.5377,3.3981,3.5415,3.5709,3.4851,3.5159,3.6006,3.7131,3.6287,3.5881,3.5905,3.7078,3.7169,3.6657,3.7609,3.7599,3.6923,3.6395,3.4889,3.2955,3.2491,3.1173,0.0,2.8649,2.7821,2.7311,2.803,2.7806,2.7162,2.6802,2.6622,0.0,2.7318,2.7021,2.6707,0.0,2.8412,2.9277,3.0244,3.0321,3.0309,3.0727,3.0587,3.0375,3.0374,2.9849,2.9515,0.0,2.9792,2.9934,3.0317,3.0161,2.9786,2.9147,2.9361,2.9497,2.929,2.9289,2.9428,2.9767,2.9566,2.9289,2.8913,2.8449,2.8097,2.777,2.7266,2.6851,2.6578,2.6298,2.5824,2.5239,2.4162,2.3454,2.3102,2.1339,2.0083,1.9233,1.8371,1.7773,1.7383,1.7383,1.7129,1.6697,1.6697,1.6455,1.6075,1.5889,1.5625,1.541,0.0,0.0,0.0,0.0,0.0,0.0,0.0,0.0,0.0,0.0,1.8571,1.8648,1.8822,1.9357,1.9387,1.8612,2.0865,2.3256,2.5476,2.8485,3.1413,3.4135,3.5328,3.5981,3.6132,3.6329,3.5948,3.4958,3.6343,3.664,3.5997,3.6365,3.7216,3.8429,3.7863,3.7557,3.7633,3.9072,3.877,3.7374,3.8472,3.7792,3.6008,3.4969,3.2624,2.9917,2.9917,2.8675,2.6844,2.541,2.4928,2.4903,2.4908,2.5209,2.5554,2.5614,2.6914,2.8397,2.8699,2.8682,0.0,2.928,3.0746,3.1959,3.1674,3.1901,3.2462,3.3425,3.2472,3.1624,3.2131,3.0884,2.9792,2.9792,2.9792,2.9895,3.0139,2.9864,2.9342,2.8594,2.8534,2.8573,2.8448,2.8712,2.9063,2.9528,2.9704,2.9616,2.9189,2.8976,2.8712,2.8348,2.7795,2.7444,2.7281,2.6927,2.6436,2.5837,2.4884,2.4302,2.4038,2.2488,2.0864,1.9266,1.862,1.8057,1.7559,1.7559,1.7373,1.7058,1.7058,1.6816,1.6447,1.632,1.5889,1.541,0.0,0.0,0.0,0.0,0.0,0.0,0.0,0.0,0.0,0.0,0.0,0.0,0.0,1.9301,1.969,1.9639,2.1325,2.3303,2.545,2.7821,3.0341,3.3023,3.4186,3.4981,3.5508,3.6094,3.5775,3.4409,3.5787,3.627,3.6048,3.7319,3.8542,3.9647,3.9608,3.9608,3.9608,3.9685,3.8561,3.6872,3.8324,3.6714,3.3327,3.2599,3.0595,2.8185,2.8185,2.5737,2.2556,2.302,2.2159,2.1144,2.2681,2.3195,0.0,2.6456,2.7879,2.8316,2.7036,0.0,2.9056,3.0943,3.2437,3.3589,3.4249,3.4156,3.3926,3.3989,3.253,3.1228,3.1241,3.0457,2.9792,2.9792,2.9792,3.0101,3.1044,2.9442,2.8497,2.9359,2.7747,2.6798,0.0,2.8298,2.89,2.8913,2.9478,2.9779,2.9767,2.9239,2.8888,2.8863,2.8373,2.7821,2.7329,2.7268,2.7014,2.6449,2.5327,2.5064,2.5469,2.3551,2.142,1.9299,1.9266,1.8777,1.7988,1.7988,1.7978,1.7969,1.7969,1.7715,1.7328,1.6833,1.6132,1.541,0.0,0.0,0.0,0.0,0.0,0.0,0.0,0.0,0.0,0.0,0.0,0.0,0.0,0.0,0.0,0.0,2.0605,2.1829,2.3323,2.5853,2.7888,2.9189,3.1687,3.298,3.2792,3.406,3.4674,3.4607,3.5397,3.5946,3.6306,3.708,3.7663,3.8065,3.8818,3.8931,3.8605,3.8981,3.8129,3.6455,3.6206,3.4703,3.2394,3.0658,2.8097,2.5234,0.0,2.2636,2.1106,2.0162,0.0,0.0,2.0211,2.0387,2.0998,2.4133,2.611,2.7649,2.94,0.0,3.2108,3.3215,3.4487,3.5415,3.5205,3.5083,3.4868,3.441,3.2255,3.0474,3.0406,2.886,2.7857,2.8561,2.9511,3.0219,3.0266,3.0351,2.9848,2.8213,2.7902,0.0,0.0,0.0,0.0,2.8838,2.9076,2.939,2.9779,2.9616,2.9503,2.9503,2.895,2.8524,2.8373,2.7645,2.7228,2.7027,2.6298,2.5799,2.554,2.3971,2.2627,2.1485,2.0574,1.9661,1.8844,1.8844,1.8529,1.8008,1.8008,1.7578,1.6941,1.7109,1.6416,1.541,0.0,0.0,0.0,0.0,0.0,0.0,0.0,0.0,0.0,0.0,0.0,0.0,0.0,0.0,0.0,0.0,0.0,2.1012,2.1928,2.3861,2.5287,2.6057,2.832,2.949,2.9327,3.0583,3.1612,3.2353,3.2674,3.347,3.4632,3.4951,3.5441,3.6044,3.6772,3.6998,3.6835,3.681,3.599,3.4519,3.3169,3.1524,2.9603,2.7358,2.487,0.0,2.0614,1.966,1.902,1.7965,0.0,1.8143,1.8356,1.9514,2.1198,2.3543,2.6006,2.8607,3.1436,3.3021,3.4068,3.4998,3.5848,3.6312,3.5654,3.4874,3.4105,3.3543,3.1014,2.8826,2.8653,2.6966,2.6135,2.7704,2.8634,2.9332,2.9857,3.0262,2.9837,2.8077,2.8001,2.7679,0.0,0.0,0.0,2.8549,2.8976,2.9402,2.9779,2.9792,2.9792,2.9792,2.9428,2.9139,2.8888,2.8235,2.757,2.7014,2.6663,2.6097,2.5277,2.4378,2.3489,2.2626,2.1554,2.0398,1.9299,1.9299,1.8787,1.8008,1.8008,1.7676,1.7174,1.7334,1.6943,1.6299,0.0,0.0,0.0,0.0,0.0,0.0,0.0,0.0,0.0,0.0,0.0,0.0,0.0,0.0,0.0,0.0,0.0,0.0,2.1232,2.1948,2.2746,2.3665,2.4358,2.4973,2.5471,2.6101,2.6911,2.7932,2.7921,2.9013,3.1047,3.1085,3.1951,3.3483,3.3545,3.3834,3.4236,3.3206,3.2114,3.0922,2.9315,2.7369,2.5197,2.305,2.1204,1.956,1.799,1.7036,0.0,0.0,0.0,0.0,0.0,2.0588,2.4118,2.4803,2.7694,3.1091,3.3066,3.4098,3.4968,3.6207,3.6507,3.6297,3.5564,3.3671,3.1946,3.144,2.8774,2.6419,2.6092,0.0,2.469,2.7138,2.7229,2.7729,2.9866,2.9294,2.869,0.0,0.0,0.0,0.0,0.0,0.0,2.8147,2.9139,2.9767,2.9792,2.9792,2.9792,2.9792,2.9792,2.9528,2.8938,2.8913,2.8109,2.6537,2.6537,2.5971,2.4876,2.4838,2.4094,2.2806,2.2281,2.1074,1.9462,1.9429,1.8875,1.8076,1.8008,1.7998,1.793,1.7549,1.7637,1.7832,0.0,0.0,0.0,0.0,0.0,0.0,0.0,0.0,0.0,0.0,0.0,0.0,0.0,0.0,0.0,0.0,0.0,0.0,1.9559,2.0868,2.1403,2.0853,2.2951,2.3995,2.3731,2.471,2.5356,2.5653,2.5633,2.5916,2.6502,2.6892,2.7306,2.7745,2.8599,2.8862,2.8611,2.8749,2.7883,2.6427,2.5586,2.4406,2.3,2.1634,2.0313,1.9096,1.8292,0.0,0.0,0.0,0.0,0.0,0.0,2.3159,2.546,2.7252,3.0141,3.3066,3.4577,3.5804,3.6746,3.709,3.6821,3.6058,3.4382,3.2794,3.1204,2.966,2.6404,2.3803,2.363,2.2797,0.0,2.5173,2.7058,0.0,2.9744,3.0253,0.0,2.9051,0.0,2.8875,2.8172,2.8863,0.0,0.0,2.8988,2.934,2.9767,2.9792,2.9792,2.9792,2.9792,2.9729,2.9578,2.9101,2.8298,2.7115,2.7115,2.6738,2.6059,2.5598,2.5211,2.4839,2.4285,2.3228,2.1761,2.1139,2.0104,1.8911,1.8269,1.7822,1.7568,1.7773,1.751,1.7087,0.0,0.0,0.0,0.0,0.0,0.0,0.0,0.0,0.0,0.0,0.0,0.0,0.0,0.0,0.0,0.0,0.0,0.0,0.0,1.9724,1.9961,1.9715,2.0766,2.1196,2.0916,2.1542,2.1968,2.2154,2.2451,2.2831,2.3279,2.3881,2.4399,2.4874,2.5534,2.5748,2.5715,2.5534,2.4788,0.0,0.0,2.1602,2.0679,1.9614,1.881,1.8188,0.0,0.0,0.0,0.0,0.0,2.2008,2.3865,2.5758,2.7755,3.0162,0.0,3.4726,3.6342,3.7524,3.8153,3.7554,3.6941,3.5818,3.323,3.139,2.9493,2.6931,2.4062,0.0,2.1144,2.0488,2.0975,0.0,0.0,0.0,2.9363,3.0262,3.0392,0.0,2.9591,0.0,2.8913,2.9415,2.9654,0.0,2.9302,2.9453,2.9779,2.9792,2.9792,2.9792,2.9792,2.9792,2.9792,2.9176,2.8612,2.7996,2.7507,2.7153,2.6826,2.5975,2.5598,2.5548,2.4795,2.3914,2.2983,2.229,2.1063,1.9603,1.9107,1.8424,1.7686,1.793,1.7672,1.733,0.0,0.0,0.0,0.0,0.0,0.0,0.0,0.0,0.0,0.0,0.0,0.0,0.0,0.0,0.0,0.0,0.0,0.0,0.0,0.0,1.9013,1.9597,1.8904,1.8473,1.8473,1.843,1.854,1.8921,1.941,2.0078,2.0884,2.1471,2.2235,2.3148,2.3148,2.3379,2.3757,2.2835,2.2179,2.1629,2.0151,1.927,1.87,0.0,0.0,0.0,0.0,0.0,0.0,0.0,2.2428,2.3864,2.6266,2.8421,3.0586,3.3136,3.4771,3.6148,3.7913,3.8766,3.8871,3.7704,3.6686,3.513,3.1959,2.9582,2.7171,2.3999,0.0,2.0172,1.9024,1.8528,1.9419,2.2878,0.0,2.5616,2.8852,2.9732,2.9986,2.9832,2.9917,2.9955,2.9804,2.9917,2.9942,2.9804,2.9792,2.9792,2.9792,2.9792,2.9792,2.9792,2.9792,2.9792,2.9792,2.9289,2.8963,2.8888,2.7959,2.7419,2.7291,2.6276,2.5787,2.5661,2.4732,2.4102,2.3739,2.3153,2.1974,2.0543,2.0343,1.9445,1.8281,1.8187,1.811,1.8008,0.0,0.0,0.0,0.0,0.0,0.0,0.0,0.0,0.0,0.0,2.0323,0.0,0.0,0.0,0.0,0.0,0.0,0.0,0.0,0.0,0.0,1.9878,2.0253,2.0502,2.0502,2.0068,1.9713,1.9457,1.9118,1.8858,1.8659,1.8776,1.8941,1.9106,1.9106,1.916,1.9229,1.9058,1.8907,1.8804,1.8507,1.8334,1.8224,1.8028,0.0,0.0,0.0,0.0,0.0,0.0,2.4042,2.6809,2.938,3.131,3.3009,3.5323,3.6492,3.727,3.8153,3.8078,3.7704,3.7464,3.5295,3.2632,3.0417,2.753,0.0,0.0,2.0183,1.8506,1.8279,1.858,1.9661,2.2132,0.0,0.0,0.0,0.0,2.9277,0.0,0.0,0.0,0.0,3.0595,0.0,0.0,2.9792,2.9792,2.9792,2.9792,2.9792,2.9792,2.9792,2.9792,2.9792,2.9691,2.9402,2.8888,2.87,2.816,2.7268,2.7115,2.6776,2.6336,2.6147,2.5745,2.517,2.4365,2.3593,2.2779,2.162,2.0606,1.9698,1.9245,1.862,1.8008,0.0,0.0,0.0,0.0,0.0,0.0,0.0,0.0,0.0,0.0,2.3585,2.3145,0.0,0.0,0.0,0.0,0.0,0.0,0.0,0.0,0.0,0.0,0.0,0.0,2.0991,2.0749,2.0347,1.9806,0.0,1.9641,1.9081,1.9209,1.9244,1.9244,1.9029,1.893,1.893,1.893,1.893,1.893,1.893,1.893,0.0,0.0,0.0,0.0,0.0,0.0,0.0,0.0,2.2946,2.6036,3.0124,3.2447,3.4003,3.593,3.6926,3.7554,3.8212,3.8167,3.7764,3.709,3.4711,3.1734,2.8712,0.0,0.0,0.0,1.9531,1.8438,1.8165,1.8587,0.0,2.0794,0.0,0.0,0.0,0.0,0.0,0.0,0.0,0.0,0.0,3.0256,3.0344,2.9829,2.9792,2.9792,2.9792,2.9792,2.9792,2.9792,2.9792,2.9792,2.9792,2.9792,2.9654,2.9365,2.8787,2.8222,2.7695,2.7153,2.6738,2.6474,2.6172,2.6059,2.6025,2.5283,2.4563,2.3859,2.316,2.1924,2.0431,2.0176,1.9328,1.8295,0.0,0.0,0.0,0.0,0.0,0.0,0.0,2.1214,2.2514,2.489,2.6042,2.5983,2.4204,2.1769,2.0091,0.0,0.0,0.0,0.0,0.0,0.0,0.0,0.0,0.0,0.0,0.0,0.0,2.0343,2.086,0.0,0.0,0.0,0.0,0.0,2.0122,1.9886,1.9747,1.966,1.9625,0.0,0.0,1.9573,0.0,0.0,0.0,0.0,0.0,0.0,0.0,0.0,2.116,2.3737,2.8697,3.1622,3.3583,3.5187,3.6387,3.736,3.8003,3.8182,3.7868,3.6596,3.3963,3.0791,2.7365,2.4717,0.0,0.0,1.9262,1.8727,1.8204,0.0,1.904,0.0,2.0652,2.2502,0.0,0.0,0.0,0.0,0.0,0.0,0.0,2.9892,0.0,2.9804,2.9792,2.9792,2.9792,2.9792,2.9792,2.9792,2.9792,2.9792,2.9792,2.9792,2.9792,2.9779,2.8888,2.8398,2.8247,2.7381,2.6901,2.6637,2.6151,2.6185,2.6461,2.5996,2.5379,2.4764,2.4643,2.334,2.1507,2.1164,2.0207,1.9043,0.0,0.0,0.0,0.0,0.0,0.0,0.0,2.0813,2.2508,2.5974,2.6324,2.6114,2.571,2.4098,2.2203,0.0,0.0,0.0,0.0,0.0,0.0,0.0,0.0,0.0,0.0,0.0,0.0,2.1453,2.1504,0.0,0.0,0.0,0.0,0.0,0.0,2.0512,1.9846,1.956,0.0,0.0,0.0,0.0,0.0,0.0,0.0,0.0,0.0,0.0,0.0,0.0,0.0,2.0745,2.4096,2.7826,3.1155,3.2481,0.0,0.0,3.733,3.7494,3.7195,3.5908,3.2258,2.8547,2.6961,0.0,0.0,1.9887,1.9262,1.8727,1.8204,1.8198,1.8617,1.9636,2.0352,2.1923,0.0,0.0,0.0,0.0,0.0,0.0,0.0,3.0244,3.0331,2.9829,2.9792,2.9792,2.9792,2.9792,2.9792,2.9792,2.9792,2.9792,2.9792,2.9792,2.9792,2.9792,2.9691,2.9365,2.8813,2.8712,2.816,2.7241,2.719,2.6914,2.6499,2.6436,2.6377,2.6246,2.5686,2.4854,2.3801,2.2411,2.1333,2.049,0.0,0.0,0.0,0.0,0.0,0.0,0.0,2.0736,2.2144,2.5548,2.7281,2.7662,2.622,2.5668,2.3934,0.0,0.0,0.0,0.0,0.0,0.0,0.0,0.0,0.0,0.0,0.0,2.2209,2.2017,2.2017,0.0,0.0,0.0,0.0,0.0,0.0,2.0831,2.0512,1.9957,0.0,0.0,0.0,0.0,0.0,0.0,0.0,0.0,0.0,0.0,0.0,0.0,0.0,0.0,2.0161,2.2824,0.0,0.0,3.2632,3.4412,3.5863,3.6552,3.6537,3.522,3.1719,2.8143,2.6393,0.0,2.0494,1.9842,1.953,1.9132,1.8263,1.8378,1.8658,1.8814,1.9032,2.0225,2.3201,0.0,0.0,0.0,0.0,0.0,0.0,0.0,3.003,2.9817,2.9792,2.9792,2.9792,2.9792,2.9792,2.9792,2.9792,2.9792,2.9792,2.9792,2.9792,2.9792,2.944,2.9113,2.8863,2.8235,2.7695,2.7268,2.6964,2.67,2.6499,2.6499,2.6499,2.6474,2.6248,2.5206,2.3811,2.3804,2.2289,2.0303,0.0,0.0,0.0,0.0,0.0,0.0,1.9929,2.0569,2.1734,2.4642,2.6867,2.7603,2.607,2.5423,2.3883,2.0944,0.0,0.0,0.0,0.0,0.0,0.0,0.0,0.0,0.0,0.0,2.2032,2.1915,2.2032,2.2092,0.0,0.0,2.1809,2.1794,0.0,0.0,0.0,0.0,0.0,0.0,0.0,0.0,0.0,0.0,0.0,0.0,0.0,0.0,0.0,0.0,0.0,0.0,0.0,0.0,0.0,0.0,3.0103,3.2228,3.3649,3.4936,3.5474,3.3739,3.0627,2.7535,0.0,2.2725,2.0295,1.9944,1.9782,1.9424,1.8516,1.8511,1.8606,1.8449,1.8286,1.9108,2.1707,0.0,0.0,0.0,0.0,2.8235,0.0,2.9591,2.9792,2.9792,2.9792,2.9792,2.9792,2.9792,2.9792,2.9792,2.9792,2.9792,2.9792,2.9792,2.9792,2.9779,2.9377,2.9189,2.9151,2.8373,2.7846,2.7507,2.7153,2.6801,2.6499,2.6499,2.6499,2.6499,2.6499,2.5525,2.4205,2.4766,2.3183,2.0825,0.0,0.0,0.0,0.0,0.0,0.0,0.0,2.0273,2.1391,2.337,2.4497,2.5153,2.5218,2.2844,2.1529,2.2212,0.0,0.0,0.0,0.0,0.0,0.0,0.0,0.0,0.0,0.0,2.1414,2.1007,2.1414,2.1613,2.1628,2.2077,2.2296,2.2296,0.0,0.0,0.0,0.0,0.0,0.0,0.0,0.0,2.0184,0.0,0.0,0.0,0.0,0.0,0.0,0.0,0.0,0.0,0.0,1.8457,1.8708,0.0,2.6916,3.0537,3.0552,3.2482,3.3889,3.121,2.8562,2.6221,0.0,2.1926,1.9818,2.0212,1.9982,1.953,1.8987,1.8458,1.8303,1.8905,1.8554,1.8982,2.1192,0.0,0.0,0.0,0.0,2.7507,2.8072,2.9139,2.9792,2.9792,2.9792,2.9792,2.9792,2.9792,2.9792,2.9792,2.9792,2.9792,2.9792,2.9792,2.9792,2.9792,2.9779,2.9779,2.9779,2.9779,2.9151,2.8097,2.8097,2.7469,2.6499,2.6499,2.6499,2.6499,2.6499,2.6122,2.5548,2.5159,2.4013,2.2607,0.0,0.0,0.0,0.0,0.0,0.0,0.0,1.8012,1.8521,2.0064,2.1481,2.2546,2.3029,2.1948,2.1512,2.2229,0.0,0.0,0.0,0.0,0.0,0.0,0.0,0.0,0.0,0.0,2.2085,2.1677,2.2672,2.3138,2.3046,2.3143,2.313,2.3038,2.2516,2.2161,0.0,0.0,0.0,0.0,0.0,2.0369,1.9679,0.0,0.0,0.0,0.0,0.0,0.0,0.0,0.0,0.0,0.0,0.0,0.0,1.9916,2.2877,2.6078,2.7455,2.8798,2.9472,2.8143,2.6183,2.4386,2.3764,2.1806,2.0158,2.028,2.0195,1.9864,1.9062,1.8746,1.8847,1.9456,1.9391,1.9796,0.0,0.0,0.0,0.0,2.7507,2.9063,0.0,0.0,2.9792,2.9792,2.9792,2.9792,2.9792,2.9792,2.9792,2.9792,2.9792,2.9792,2.9792,2.9792,2.9792,2.9792,2.9792,2.9792,2.9779,2.939,2.9001,2.8612,2.8273,2.7908,2.7557,2.7216,2.7052,2.7052,2.7052,2.6304,2.5302,2.6246,2.518,2.3244,0.0,0.0,0.0,0.0,0.0,0.0,0.0,1.7192,1.7516,1.8588,1.9497,2.0515,2.1778,2.0725,2.0463,2.1769,0.0,0.0,0.0,0.0,0.0,0.0,0.0,0.0,0.0,2.1617,2.1786,2.1882,2.282,2.3501,2.3841,2.3944,2.3785,2.3376,2.2919,2.2564,0.0,0.0,0.0,0.0,2.0883,2.0454,2.0002,0.0,0.0,0.0,0.0,0.0,0.0,0.0,0.0,0.0,0.0,0.0,0.0,0.0,1.9974,2.1874,0.0,2.5585,2.6303,2.563,2.4343,0.0,2.2647,2.1249,2.0124,2.0263,2.0193,1.9912,1.9317,1.9043,1.9171,2.0011,1.9794,1.9986,0.0,0.0,0.0,0.0,0.0,0.0,0.0,2.9666,2.9792,2.9792,2.9792,2.9792,2.9792,2.9792,2.9792,2.9792,2.9792,2.9792,2.9792,2.9792,2.9792,2.9792,2.9792,2.9792,2.9779,2.9415,2.9139,2.8863,2.8348,2.8109,0.0,2.7507,2.7281,2.7306,2.7507,2.6783,2.5719,2.7086,2.5979,2.3788,0.0,0.0,0.0,0.0,0.0,0.0,0.0,0.0,0.0,0.0,1.8413,1.9012,2.107,1.9198,1.8657,0.0,0.0,0.0,0.0,0.0,0.0,0.0,0.0,0.0,0.0,2.0582,2.0827,2.1695,2.2262,2.3132,2.4265,2.4729,2.4447,2.3545,2.3494,2.3038,0.0,0.0,0.0,0.0,2.0318,2.0163,0.0,0.0,0.0,0.0,0.0,0.0,0.0,0.0,0.0,0.0,0.0,0.0,0.0,0.0,0.0,0.0,0.0,2.2796,2.4036,0.0,0.0,2.227,2.1409,2.0459,0.0,2.0212,2.0,1.9759,1.9828,1.9398,1.9445,2.0683,1.9992,1.989,0.0,2.2709,0.0,0.0,2.7908,0.0,2.89,2.9478,2.9792,2.9792,2.9792,2.9792,2.9792,2.9792,2.9792,2.9792,2.9792,2.9792,2.9792,2.9792,2.9792,2.9792,2.9792,2.9792,2.9792,2.9792,2.9503,2.8925,2.8448,2.8222,2.8185,2.7632,2.7394,2.7444,2.7959,2.7533,2.6737,2.7767,2.6615,2.4532,0.0,0.0,0.0,0.0,0.0,0.0,0.0,0.0,0.0,0.0,1.7422,1.7728,1.8251,1.8019,1.802,0.0,0.0,0.0,0.0,0.0,0.0,0.0,0.0,0.0,0.0,2.11,2.1628,2.1695,2.3793,2.5149,2.5794,2.683,2.6501,2.5067,2.4491,2.3526,0.0,0.0,0.0,0.0,2.1793,2.1252,0.0,0.0,0.0,0.0,1.8462,1.8371,0.0,0.0,0.0,0.0,0.0,0.0,0.0,0.0,1.8597,1.8595,1.9241,0.0,2.0183,2.0528,2.0516,2.0418,0.0,2.0352,2.0193,0.0,0.0,2.0391,2.1098,2.0716,2.0814,2.2494,2.2442,2.2498,2.3318,0.0,0.0,2.8976,2.9315,2.9453,2.9578,2.9716,2.9792,2.9792,2.9792,2.9792,2.9792,2.9792,2.9792,2.9792,2.9792,2.9792,2.9792,2.9792,2.9792,2.9792,2.9792,2.9792,2.9792,2.9792,2.9716,2.9578,2.9453,2.9402,2.9352,2.8787,2.8499,2.8561,2.865,2.8325,2.7816,2.8462,2.8076,2.6982,0.0,0.0,0.0,0.0,0.0,0.0,0.0,0.0,0.0,0.0,0.0,0.0,0.0,0.0,0.0,0.0,0.0,0.0,0.0,0.0,0.0,0.0,0.0,0.0,1.9906,2.0746,2.1639,2.2562,2.4313,2.5838,2.7214,2.754,2.6945,2.5541,2.412,2.3054,0.0,0.0,0.0,2.2245,2.1536,0.0,0.0,0.0,0.0,0.0,1.8267,1.8063,0.0,1.8423,1.8942,1.9166,0.0,0.0,0.0,0.0,1.8027,1.7923,1.8521,1.8927,1.9316,1.9989,2.0154,2.0227,2.0433,0.0,0.0,0.0,0.0,0.0,2.109,2.0917,2.1259,2.3101,2.306,0.0,0.0,0.0,0.0,2.9227,2.9628,2.9792,2.9792,2.9792,2.9792,2.9792,2.9792,2.9792,2.9792,2.9792,2.9792,2.9792,2.9792,2.9792,2.9792,2.9792,2.9792,2.9792,2.9792,2.9792,2.9792,2.9792,2.9792,2.9779,2.9515,2.9553,2.9741,2.9126,2.8888,2.8913,2.9176,2.8988,2.8549,2.9114,2.8797,2.7853,0.0,0.0,0.0,0.0,0.0,0.0,0.0,0.0,0.0,0.0,0.0,0.0,0.0,0.0,0.0,0.0,0.0,0.0,0.0,0.0,0.0,0.0,0.0,1.8954,1.9987,2.0151,2.1283,2.346,2.4321,2.5922,2.8174,2.7817,2.6932,2.5508,2.3395,2.2398,0.0,0.0,2.1651,2.2009,2.0707,0.0,0.0,0.0,0.0,0.0,0.0,0.0,0.0,1.816,1.8538,1.8672,1.8446,0.0,0.0,0.0,0.0,0.0,1.8523,1.9394,2.0072,2.0445,2.0613,2.0673,2.0554,0.0,0.0,0.0,0.0,0.0,0.0,2.1158,0.0,0.0,0.0,0.0,2.5816,2.6929,2.7908,2.89,2.949,0.0,2.9792,2.9792,2.9792,2.9792,2.9792,2.9792,2.9792,2.9792,2.9792,2.9792,2.9792,2.9792,2.9792,2.9792,2.9792,2.9792,2.9792,2.9792,2.9792,2.9792,2.9792,2.9767,2.9277,2.9289,2.9628,2.9227,2.8963,2.895,2.9566,2.949,2.9076,2.9616,2.9197,2.8176,0.0,0.0,0.0,0.0,0.0,0.0,0.0,0.0,0.0,0.0,0.0,0.0,0.0,0.0,0.0,0.0,0.0,0.0,0.0,0.0,0.0,0.0,1.8923,1.9654,2.0558,2.0386,2.1127,2.2838,2.4597,2.6188,2.7646,2.9083,2.8269,2.5525,2.3934,2.2885,2.2296,2.2192,2.1837,2.136,2.1106,0.0,0.0,0.0,0.0,0.0,0.0,0.0,0.0,1.7075,1.7773,1.8508,1.7354,0.0,0.0,0.0,0.0,0.0,1.9348,2.0357,2.1007,2.0083,2.0288,2.0539,1.9974,0.0,0.0,0.0,0.0,0.0,0.0,2.3431,2.3734,0.0,0.0,2.6971,0.0,0.0,2.8925,2.9578,0.0,2.9792,2.9792,2.9792,2.9792,2.9792,2.9792,2.9792,2.9792,2.9792,2.9792,2.9792,2.9792,2.9792,2.9792,2.9792,2.9792,2.9792,2.9792,2.9792,2.9792,2.9792,2.9792,2.9779,2.9691,2.9428,2.9051,2.949,2.9365,2.895,2.9566,2.9741,2.9666,2.9767,2.9702,2.9248,0.0,0.0,0.0,0.0,0.0,0.0,0.0,0.0,0.0,0.0,0.0,0.0,0.0,0.0,0.0,0.0,0.0,0.0,0.0,0.0,0.0,1.9325,1.9497,2.0002,2.0961,2.1561,2.3005,2.5353,2.6966,2.8397,2.9586,2.8734,2.7135,2.4932,2.346,2.2395,2.1701,2.1701,2.1262,2.0517,0.0,0.0,0.0,0.0,0.0,0.0,0.0,0.0,0.0,0.0,1.7115,1.7503,1.689,0.0,0.0,0.0,0.0,0.0,1.8972,1.9869,2.0485,1.9861,2.0682,2.1524,2.0914,0.0,0.0,0.0,0.0,0.0,0.0,0.0,2.4984,2.7229,0.0,2.8348,2.8813,2.8888,2.8988,0.0,2.9603,2.9792,2.9792,2.9792,2.9792,2.9792,2.9792,2.9792,2.9792,2.9792,2.9792,2.9792,2.9792,2.9792,2.9792,2.9792,2.9641,2.9327,2.9641,2.9478,2.89,2.9515,2.9616,2.934,2.9654,2.9641,2.9415,2.9679,2.9641,2.9415,2.9691,2.9792,2.9792,2.9792,2.9404,2.8691,0.0,0.0,0.0,0.0,0.0,0.0,0.0,0.0,0.0,0.0,0.0,0.0,0.0,0.0,0.0,0.0,0.0,0.0,0.0,0.0,1.8443,1.9882,1.9937,2.069,2.2306,2.3122,2.4879,2.76,2.9085,3.0272,3.1044,2.8087,2.5912,2.444,2.297,2.1989,2.1461,2.1275,2.0737,1.9934,0.0,0.0,0.0,0.0,0.0,0.0,0.0,0.0,0.0,0.0,0.0,0.0,0.0,0.0,0.0,1.6532,1.695,1.7621,1.831,1.9076,1.9618,1.9569,2.0727,2.1945,2.2132,0.0,0.0,0.0,0.0,0.0,0.0,2.5723,0.0,2.7847,2.8687,2.9126,2.9126,2.9126,2.9126,2.9126,2.9528,2.9792,2.9792,2.9792,2.9792,2.9792,2.9792,2.9792,2.9792,2.9666,2.9591,2.9591,2.9591,2.9591,2.9591,2.9729,2.9503,2.89,2.9515,2.9202,2.8147,2.9277,2.9478,2.8925,2.9541,2.9716,2.9603,2.9741,2.9716,2.9603,2.9741,2.9792,2.9792,2.9792,2.9236,2.8378,0.0,0.0,0.0,0.0,0.0,0.0,0.0,0.0,0.0,0.0,0.0,0.0,0.0,0.0,0.0,0.0,0.0,0.0,0.0,0.0,1.8136,1.8883,2.002,2.2228,2.5664,2.4934,2.5518,2.76,2.9561,3.0449,3.0222,2.7823,2.5912,2.444,2.297,2.2262,2.2192,2.1495,2.0737,1.9934,1.9198,0.0,0.0,0.0,0.0,0.0,0.0,0.0,0.0,0.0,0.0,0.0,0.0,0.0,1.6592,1.6039,1.6308,1.6961,1.7731,1.84,1.892,1.9086,1.9622,0.0,2.3016,2.3548,0.0,2.753,0.0,0.0,0.0,2.8381,2.8356,2.8136,2.9013,2.9729,2.9729,2.9729,2.9729,2.9729,2.9767,2.9792,2.9792,2.9792,2.9792,2.9792,2.9792,2.9792,2.9792,2.9289,2.895,2.895,2.895,2.895,2.895,2.9528,2.9503,2.89,2.9515,2.9202,2.8147,2.9277,2.9478,2.8925,2.9541,2.949,2.9001,2.9566,2.9478,2.9001,2.9578,2.9792,2.9792,2.9792,2.9753,2.9365,0.0,0.0,0.0,0.0,0.0,0.0,0.0,0.0,0.0,0.0,0.0,0.0,0.0,0.0,0.0,0.0,0.0,0.0,0.0,0.0,1.8759,2.0353,2.0209,2.1815,2.552,2.6165,2.7634,3.0043,3.0665,3.0681,3.0078,2.7314,2.5473,2.444,2.297,2.2057,2.1549,2.0788,1.9997,1.9237,1.8521,1.8053,0.0,0.0,0.0,0.0,0.0,0.0,0.0,0.0,1.6374,1.6389,1.5946,1.5964,1.6099,1.5873,1.6289,1.6878,1.7202,1.7835,1.8446,1.8518,1.8938,0.0,0.0,2.4373,2.5776,2.8629,2.9654,0.0,0.0,0.0,2.9657,2.9213,2.9804,3.0306,3.0306,3.0005,2.9792,2.9792,2.9792,2.9792,2.9792,2.9792,2.9792,2.9792,2.9792,2.9792,2.9792,2.9239,2.8888,2.8888,2.8562,2.8411,2.8411,2.8637,2.8461,2.7921,2.8825,2.8674,2.7632,2.875,2.895,2.8461,2.939,2.9666,2.9478,2.9704,2.9666,2.949,2.9704,2.9792,2.9792,2.9792,2.9792,2.9663,0.0,0.0,0.0,0.0,0.0,0.0,0.0,0.0,0.0,0.0,0.0,0.0,0.0,0.0,0.0,0.0,0.0,0.0,1.8361,1.8249,1.8852,2.0332,2.0158,2.1328,2.409,2.6012,2.8036,3.0199,2.994,2.9538,2.8975,2.6034,2.4722,2.4763,2.2876,2.2118,2.2138,2.064,1.9862,1.9532,1.8302,1.7935,0.0,0.0,0.0,0.0,0.0,0.0,0.0,0.0,1.6396,1.6246,1.5913,1.5799,1.5799,1.5799,1.618,1.6613,1.6641,1.7112,1.7663,0.0,0.0,0.0,2.3495,2.5154,2.6841,3.0057,3.1087,0.0,0.0,0.0,0.0,0.0,2.9993,3.0357,3.0357,3.003,2.9792,2.9792,2.9792,2.9792,2.9792,2.9792,2.9792,2.9792,2.9616,2.9515,2.9515,2.8812,2.8411,2.8411,2.8047,2.7846,2.7846,2.8021,2.7921,2.7544,2.8134,2.7921,2.7102,2.8536,2.88,2.816,2.9302,2.9792,2.9792,2.9792,2.9792,2.9792,2.9792,2.9792,2.9792,2.9792,2.9792,2.9753,0.0,0.0,0.0,0.0,0.0,0.0,0.0,0.0,0.0,0.0,0.0,0.0,0.0,0.0,0.0,0.0,0.0,0.0,1.8631,1.8351,1.82,1.8204,1.9792,2.1,2.1655,2.4223,2.6151,2.7404,2.6992,2.6746,2.6624,2.39,2.3684,2.5458,2.2743,2.2622,2.4271,2.1282,2.0471,2.1004,1.8724,1.8268,1.8826,0.0,0.0,0.0,0.0,0.0,0.0,0.0,1.6581,1.6246,1.5913,1.5799,1.5814,1.5799,1.5903,1.6035,1.6092,1.6195,1.6497,0.0,0.0,0.0,2.4392,2.5819,2.7539,3.2202,0.0,3.0843,2.9624,2.8864,0.0,2.8849,2.9415,2.9792,2.9792,2.9792,2.9792,2.9792,2.9792,2.9792,2.9792,2.9792,2.9792,2.9779,2.9252,2.8888,2.8888,2.7883,2.7281,2.7281,2.7316,2.7268,2.7268,2.7821,2.8084,2.8084,2.7544,2.7027,2.6575,2.8762,2.9164,2.816,2.9302,2.9792,2.9792,2.9792,2.9792,2.9792,2.9792,2.9792,2.9792,2.9792,2.9792,2.9624,0.0,0.0,0.0,0.0,0.0,0.0,0.0,0.0,0.0,0.0,0.0,0.0,0.0,0.0,0.0,0.0,0.0,0.0,1.8623,1.8528,1.8446,1.833,1.8997,1.9594,2.0064,2.1799,2.4213,2.7267,2.6288,2.5965,2.6158,2.446,2.3858,2.4232,2.3358,2.2957,2.2868,2.1431,2.0987,2.1089,1.9845,1.9478,1.9592,0.0,0.0,0.0,0.0,0.0,0.0,0.0,0.0,0.0,1.5983,1.6084,1.6353,1.5919,1.6533,1.7163,1.633,1.6849,0.0,1.7903,0.0,0.0,0.0,2.5349,0.0,0.0,3.1445,3.0648,3.0193,2.9868,0.0,2.8975,2.9415,2.9792,2.9792,2.9792,2.9792,2.9792,2.9792,2.9792,2.9792,2.9792,2.9616,2.9214,2.8988,2.8725,2.8373,2.767,2.7281,2.7281,2.6939,2.6738,2.6738,2.6901,2.6977,2.6989,2.7216,2.7241,2.7115,2.8122,2.8423,2.816,2.9302,2.9792,2.9792,2.9792,2.9792,2.9792,2.9792,2.9792,2.9792,2.9792,2.9792,2.9753,0.0,0.0,0.0,0.0,0.0,0.0,0.0,0.0,0.0,0.0,1.6087,0.0,0.0,0.0,0.0,0.0,0.0,0.0,0.0,0.0,1.8513,1.833,1.8639,1.9139,1.9903,2.0747,2.2387,2.4863,2.4339,2.4058,2.4009,2.384,2.3811,2.3908,2.4113,2.3685,2.2789,2.1987,2.1478,2.1123,2.0318,2.006,2.0074,0.0,0.0,0.0,0.0,0.0,0.0,0.0,0.0,0.0,1.6011,1.6054,1.6323,1.6189,1.6636,1.7049,1.661,1.729,0.0,1.8714,2.0501,2.2698,2.482,0.0,0.0,0.0,0.0,3.044,3.021,2.9897,0.0,2.9303,2.9566,2.9792,2.9792,2.9792,2.9792,2.9792,2.9792,2.9704,2.9478,2.9453,2.9214,2.8649,2.8361,2.8134,2.7795,2.7256,2.6989,2.6989,2.6663,2.6499,2.6499,2.6499,2.6499,2.6499,2.6839,2.6989,2.7014,2.7758,2.8109,2.816,2.9302,2.9792,2.9792,2.9792,2.9792,2.9792,2.9792,2.9792,2.9792,2.9792,2.9792,2.9792,0.0,0.0,0.0,0.0,0.0,0.0,0.0,0.0,0.0,0.0,1.7291,1.6537,0.0,0.0,0.0,0.0,0.0,0.0,0.0,0.0,1.8443,1.8179,1.8559,1.9371,2.0572,2.0598,2.0793,2.1155,2.1693,2.1645,2.107,2.2543,2.3495,2.3967,2.4573,2.4303,2.3342,2.2432,2.1674,2.1021,2.0285,2.0147,2.0262,1.926,0.0,0.0,0.0,0.0,0.0,0.0,0.0,0.0,1.6053,1.5857,1.5994,1.6547,1.6431,1.6315,1.6996,0.0,0.0,1.9586,2.1631,0.0,2.6816,2.8872,3.0103,2.977,0.0,3.0223,2.9884,2.9315,2.9076,2.9691,2.9741,2.9729,2.9779,2.9741,2.9716,2.9716,2.9666,2.9428,2.8863,2.8813,2.8587,2.8072,2.757,2.7291,2.7241,2.6763,2.6461,2.6411,2.6461,2.6449,2.6348,2.6449,2.6461,2.6411,2.6411,2.6449,2.6537,2.7607,2.816,2.831,2.9352,2.9792,2.9792,2.9792,2.9792,2.9792,2.9792,2.9792,2.9792,2.9792,2.9792,2.9792,0.0,0.0,0.0,0.0,0.0,0.0,0.0,0.0,0.0,0.0,0.0,0.0,0.0,0.0,0.0,0.0,0.0,0.0,0.0,0.0,1.8166,1.7902,1.8424,1.9099,1.9902,1.9932,1.9954,2.0032,2.0685,2.109,2.1259,2.2345,2.2507,2.1949,2.2611,2.2256,2.1136,2.0406,2.0147,2.0234,2.0082,2.0022,1.9988,1.9205,1.8839,0.0,0.0,0.0,0.0,0.0,0.0,0.0,1.6328,1.6332,1.6532,1.6651,1.7007,1.7395,1.7723,1.8208,0.0,0.0,2.2786,2.5686,2.7998,2.8571,2.8681,2.9038,2.9517,2.9897,2.9805,2.9315,2.9076,2.9691,2.9415,2.9277,2.9729,2.9402,2.9076,2.9076,2.8737,2.8411,2.8298,2.8285,2.8059,2.7507,2.7392,2.7128,2.6688,2.6562,2.6285,2.5799,2.626,2.6084,2.5184,2.6059,2.6273,2.5787,2.5787,2.6047,2.6537,2.7607,2.8586,2.9453,2.9679,2.9792,2.9792,2.9792,2.9792,2.9792,2.9792,2.9792,2.9792,2.9792,2.9792,2.9792,0.0,0.0,0.0,0.0,0.0,0.0,0.0,0.0,0.0,0.0,0.0,0.0,0.0,0.0,0.0,0.0,0.0,0.0,0.0,0.0,0.0,1.8277,1.9264,1.9769,1.9693,1.9892,1.9892,1.9708,2.0049,2.0327,0.0,2.1678,2.1788,2.1066,2.2289,2.1735,1.9888,2.0156,2.008,1.9762,1.9762,1.993,2.0099,1.9229,1.8767,1.8546,1.8381,0.0,0.0,0.0,0.0,0.0,0.0,0.0,1.7471,1.7237,1.7428,1.78,1.83,0.0,0.0,2.1388,0.0,2.5975,2.7419,2.772,2.7871,2.8423,2.8988,2.9377,2.9377,2.9101,2.89,2.8976,2.8737,2.8637,2.8938,2.8725,2.8536,2.8536,2.8285,2.7996,2.7733,2.7708,2.7482,2.6964,2.6927,2.6801,2.6512,2.6235,2.59,2.5598,2.5649,2.5398,2.48,2.5636,2.5774,2.5222,2.5473,2.5933,2.6524,2.7331,2.8172,2.9001,2.9264,2.9377,2.9402,2.9679,2.9792,2.9792,2.9792,2.9792,2.9792,2.9792,2.9792,2.9792,0.0,0.0,0.0,0.0,0.0,0.0,0.0,0.0,0.0,0.0,0.0,0.0,0.0,0.0,0.0,0.0,0.0,0.0,0.0,0.0,0.0,0.0,2.0319,2.0649,1.9927,2.0176,2.0141,1.9803,1.9729,0.0,0.0,0.0,0.0,2.0587,2.2091,2.143,1.9256,2.021,2.0131,1.94,1.9437,1.9781,2.0142,1.9377,1.8859,1.8564,1.8942,1.9096,1.9145,1.9467,0.0,0.0,0.0,0.0,1.8331,1.7979,1.7788,1.7896,1.8788,0.0,2.0177,2.2528,2.4079,0.0,2.6147,2.6637,2.7042,2.7695,2.8335,2.8712,2.8624,2.8561,2.8348,2.7896,2.7821,2.7858,2.7946,2.7959,2.7959,2.7959,2.7795,2.7532,2.7168,2.6967,2.6703,2.6373,2.626,2.621,2.621,2.5724,2.5423,2.5322,2.4996,2.47,2.4499,2.5146,2.5197,2.4682,2.5209,2.5812,2.6499,2.6864,2.7406,2.8134,2.8549,2.88,2.8913,2.934,2.9553,2.9641,2.9541,2.9566,2.9628,2.9541,2.9566,2.9641,0.0,0.0,0.0,0.0,0.0,0.0,0.0,0.0,0.0,0.0,0.0,0.0,0.0,0.0,0.0,0.0,0.0,0.0,0.0,0.0,0.0,2.026,2.073,2.0958,2.0829,2.0483,2.028,2.0212,0.0,0.0,0.0,0.0,0.0,1.9842,0.0,0.0,1.9178,1.8765,1.8698,1.8909,1.9262,1.9454,1.9561,1.9765,1.9807,1.9776,1.9841,1.9849,1.9866,1.993,1.9749,0.0,0.0,0.0,1.8424,1.8537,1.8147,1.7969,0.0,0.0,2.0315,0.0,2.291,2.3276,0.0,0.0,2.5448,0.0,2.7494,2.8072,2.7595,2.714,2.6801,2.6725,2.6713,2.6889,2.7318,2.7394,2.7394,2.7394,2.6527,2.6101,2.6562,2.5711,2.531,2.5686,2.5297,2.5046,2.5046,2.4938,2.4707,2.423,2.4607,2.4324,2.3346,2.4374,2.4657,2.4117,2.4657,2.5473,2.6474,2.6013,2.6653,2.8109,2.8185,2.8486,2.8863,2.8499,2.8612,2.8963,2.8511,2.8624,2.895,2.8511,2.8637,2.9001,0.0,0.0,0.0,0.0,0.0,0.0,0.0,0.0,0.0,0.0,0.0,0.0,0.0,0.0,0.0,0.0,0.0,0.0,0.0,0.0,0.0,2.051,2.1294,2.1508,2.1023,2.0797,2.0566,2.0297,0.0,0.0,0.0,2.0703,2.0752,0.0,0.0,0.0,0.0,0.0,1.873,1.9107,1.8833,1.8893,1.9137,1.9262,1.922,1.921,2.0,2.0451,2.067,2.067,2.0847,2.0838,1.9618,0.0,0.0,0.0,1.8951,0.0,1.9551,1.9691,2.0016,0.0,2.1707,2.2176,2.3816,0.0,2.4594,2.5372,2.5686,2.5912,2.6276,2.6138,2.5921,2.5586,2.5548,2.5624,2.5875,2.5912,2.5912,2.5912,2.546,2.5259,2.5523,2.5109,2.4888,2.5146,2.4913,2.4662,2.4381,2.4356,2.4104,2.3496,2.3722,2.3609,2.3108,2.3923,2.4243,2.4004,2.4243,2.4607,2.5129,2.5435,2.6339,2.7645,2.7645,2.7783,2.8009,2.8084,2.8247,2.8448,2.8197,2.8247,2.8436,2.8197,2.826,2.8461,0.0,0.0,0.0,0.0,0.0,0.0,0.0,0.0,0.0,0.0,0.0,0.0,0.0,0.0,0.0,0.0,0.0,0.0,0.0,0.0,0.0,2.0965,2.1818,2.2005,2.1338,2.1102,2.0829,0.0,0.0,0.0,2.0703,2.0703,2.1066,0.0,2.1006,0.0,0.0,0.0,0.0,0.0,0.0,0.0,0.0,0.0,0.0,0.0,2.0235,0.0,0.0,0.0,2.1718,2.1765,2.0232,2.0143,0.0,0.0,0.0,0.0,0.0,0.0,1.9367,2.016,2.0542,2.1016,0.0,0.0,2.3552,0.0,2.4,2.4094,2.4902,2.4881,2.4632,2.4211,2.4274,2.4362,2.4362,2.4612,2.4788,2.4788,2.4662,2.4637,2.4775,2.4399,2.4211,2.4349,2.4224,2.3941,2.3389,2.3489,2.3376,2.2907,2.2895,2.2957,2.3108,2.3534,2.3853,2.4004,2.3853,2.3929,2.423,2.4883,2.5724,2.6678,2.6954,2.7115,2.714,2.7519,2.777,2.7883,2.7745,2.777,2.7883,2.7733,2.777,2.7896,0.0,0.0,0.0,0.0,0.0,0.0,0.0,0.0,0.0,0.0,0.0,0.0,0.0,0.0,1.9951,2.0002,0.0,0.0,0.0,0.0,0.0,2.22,2.2279,0.0,2.2223,2.1415,0.0,0.0,0.0,0.0,2.0703,2.0703,2.1066,2.1665,2.1006,2.0333,1.9708,0.0,0.0,0.0,0.0,0.0,0.0,0.0,0.0,0.0,0.0,0.0,0.0,0.0,0.0,0.0,0.0,1.9991,1.9318,0.0,0.0,0.0,0.0,1.8848,0.0,1.9364,0.0,0.0,0.0,0.0,2.1877,2.2405,2.3019,2.3453,2.3507,2.2947,2.2472,2.2447,2.2857,2.3195,2.3195,2.4111,2.4788,2.4788,2.4356,2.4243,2.4738,2.3346,2.2631,2.3158,2.2706,2.2196,2.1644,2.2121,2.2355,2.2347,2.2347,2.2581,2.3095,2.3133,2.3421,2.3991,2.3409,2.371,2.4725,2.4293,2.4393,2.4976,2.6084,2.6537,2.6537,2.6562,2.6889,2.7268,2.6788,2.6901,2.7268,2.6776,2.6914,2.7318,0.0,0.0,0.0,0.0,0.0,0.0,0.0,0.0,0.0,0.0,0.0,0.0,0.0,1.9935,2.013,2.06,2.0907,0.0,0.0,0.0,0.0,2.2282,2.2296,2.2296,2.2296,2.1447,0.0,0.0,0.0,2.0034,2.0703,2.0703,2.0823,2.1051,2.0808,2.0554,2.0318,1.9887,0.0,0.0,0.0,0.0,0.0,0.0,0.0,0.0,0.0,0.0,0.0,0.0,0.0,0.0,0.0,0.0,0.0,0.0,0.0,0.0,0.0,0.0,0.0,1.9446,1.9269,1.9051,1.9733,2.0439,2.0992,2.1084,2.137,2.1838,2.2629,2.2908,2.3017,2.3017,2.3163,2.3144,2.2713,2.3745,2.4376,2.3966,2.4062,2.4257,2.4464,2.3157,2.2397,2.2556,2.2096,2.1543,2.1018,2.182,2.1983,2.1307,2.1945,2.238,2.2581,2.2259,2.2535,2.3409,2.2844,2.2982,2.371,2.3916,2.3904,2.3785,2.5272,2.59,2.59,2.59,2.6273,2.6763,2.6575,2.6612,2.6763,2.6562,2.6612,2.6788,0.0,0.0,0.0,0.0,0.0,0.0,0.0,0.0,0.0,0.0,0.0,0.0,0.0,0.0,2.0479,2.0959,2.0991,2.1245,2.1827,2.1705,2.1733,2.2046,2.2209,2.2296,2.2296,2.1447,0.0,0.0,0.0,0.0,0.0,2.0363,2.0363,2.0363,2.0363,2.0363,0.0,0.0,0.0,1.9633,0.0,0.0,1.8012,0.0,0.0,0.0,0.0,0.0,0.0,0.0,0.0,0.0,0.0,0.0,0.0,0.0,0.0,0.0,1.9623,0.0,0.0,0.0,0.0,1.9058,1.8978,1.9525,2.0059,2.016,2.0407,2.0964,2.1978,2.2522,2.2895,2.3096,2.3116,2.2976,2.2536,2.3376,2.3917,2.346,2.3941,2.4165,2.3712,2.2907,2.2216,2.1798,2.1418,2.0993,2.0427,2.143,2.1694,2.0993,2.1656,2.2121,2.2309,2.1945,2.2133,2.2832,2.2644,2.2656,2.2844,2.3421,2.3471,2.3158,2.4261,2.4883,2.5109,2.5661,2.6034,2.6223,2.6411,2.6499,2.6499,2.6499,2.6499,2.6499,0.0,0.0,0.0,0.0,0.0,0.0,0.0,0.0,0.0,0.0,0.0,0.0,0.0,0.0,0.0,2.0975,2.0959,2.0959,2.0991,2.1353,2.1567,2.1582,0.0,0.0,0.0,2.1431,2.0991,0.0,0.0,0.0,0.0,0.0,1.9708,1.9708,1.9708,1.9708,1.9708,0.0,1.9708,1.9588,0.0,1.8117,1.8627,0.0,0.0,0.0,1.893,1.9123,0.0,1.9312,0.0,0.0,0.0,0.0,0.0,0.0,0.0,0.0,0.0,0.0,0.0,0.0,0.0,0.0,1.8029,1.8338,1.9033,1.9543,2.0168,2.0838,2.1485,2.162,2.1842,2.2442,2.258,2.2594,2.2597,2.3096,2.3417,2.3417,2.4006,2.3877,2.255,2.2511,2.206,2.0783,2.0679,2.0427,1.9823,2.084,2.1443,2.1496,2.1496,2.1719,2.2259,2.2259,2.2272,2.2297,2.2782,2.2769,2.2334,2.2832,2.3095,2.3108,2.312,2.3446,2.4104,2.5757,2.6109,2.5649,2.6248,2.6474,2.6499,2.6499,2.6499,2.6499,0.0,0.0,0.0,0.0,0.0,0.0,0.0,0.0,0.0,0.0,0.0,0.0,0.0,0.0,1.9745,2.0433,2.0243,2.0328,2.0975,2.0781,2.0813,2.115,2.1568,2.166,2.1369,2.1134,2.0829,2.05,1.9962,1.9708,1.9708,1.9708,1.9708,0.0,1.9708,1.9708,1.9708,1.9708,0.0,1.9633,1.8777,1.8521,0.0,0.0,0.0,0.0,0.0,1.793,1.8495,0.0,1.8243,1.8572,0.0,0.0,0.0,0.0,0.0,0.0,2.0482,0.0,0.0,0.0,0.0,0.0,1.9007,1.884,1.8666,1.8324,1.8792,1.9316,1.9495,1.9929,2.0459,2.1129,2.2044,2.2673,2.2675,2.3594,2.4094,2.3673,2.4117,2.4165,2.3344,2.243,2.1563,2.0758,2.0302,1.9974,1.9811,2.01,2.0464,2.0905,2.0918,2.0993,2.1144,2.1144,2.1358,2.1707,2.1496,2.1681,2.2322,2.2443,2.2732,2.3133,2.3547,2.3615,2.3409,2.4318,2.5046,2.5611,2.5774,2.6122,2.6499,2.6499,2.6499,2.6499,0.0,0.0,0.0,0.0,0.0,0.0,0.0,0.0,0.0,0.0,0.0,0.0,0.0,0.0,1.9775,2.0015,1.9854,1.9925,2.043,2.0348,2.0433,2.0715,2.1118,2.1244,2.1023,2.0813,2.0566,2.0297,1.9909,1.9708,1.9708,1.9708,1.9708,0.0,0.0,0.0,0.0,0.0,0.0,0.0,1.8672,0.0,0.0,1.8057,1.8057,0.0,0.0,0.0,1.8548,1.735,1.7585,0.0,0.0,0.0,0.0,0.0,0.0,0.0,0.0,0.0,0.0,0.0,0.0,0.0,1.9357,1.8872,1.8382,1.7683,1.7706,1.7953,1.8222,1.8612,1.9181,2.0124,2.0951,2.164,2.2204,2.2933,2.336,2.3282,2.3566,2.3508,2.2869,2.2087,2.1274,2.0386,2.0003,1.9915,2.0163,1.9936,2.0075,2.0679,2.0465,2.0453,2.0691,2.0691,2.0855,2.1169,2.1081,2.1343,2.197,2.2209,2.2581,2.312,2.3459,2.3409,2.3145,2.3753,2.4506,2.5322,2.5774,2.6197,2.6499,2.6499,2.6499,2.6499,0.0,0.0,0.0,0.0,0.0,0.0,0.0,0.0,0.0,0.0,0.0,0.0,0.0,0.0,0.0,0.0,1.9753,1.9708,1.9708,2.0035,2.0229,2.0229,2.0682,2.0894,2.0861,2.0483,2.028,2.0229,1.9874,1.9708,1.9708,1.9708,1.9708,1.9708,0.0,0.0,0.0,0.0,0.0,1.9513,1.8318,1.8557,0.0,0.0,1.8606,1.9525,1.8267,1.8392,1.8867,1.711,1.7332,0.0,0.0,0.0,0.0,0.0,2.1326,0.0,0.0,0.0,0.0,0.0,2.1577,0.0,1.9456,1.8754,1.8251,1.7506,1.7059,1.6999,1.7602,1.775,1.8168,1.9464,1.9699,2.0172,2.15,2.1695,2.1919,2.2523,2.2583,2.234,2.1657,2.1578,2.108,1.9893,1.9816,2.0072,2.0673,2.0127,2.0037,2.0578,2.0125,2.0138,2.0591,2.0666,2.0666,2.0603,2.1094,2.1368,2.1506,2.1995,2.2531,2.3108,2.3108,2.3108,2.3145,2.3753,2.433,2.4888,2.5996,2.6436,2.6499,2.6499,2.6499,2.6499,0.0,0.0,0.0,0.0,0.0,0.0,0.0,0.0,0.0,0.0,0.0,0.0,0.0,0.0,0.0,0.0,2.0004,1.9708,1.9708,1.9764,1.9836,1.9836,2.021,2.0296,1.9962,2.0176,2.0141,1.9836,1.9729,1.9708,1.9708,1.9708,1.9708,1.9708,0.0,0.0,0.0,0.0,0.0,1.9029,1.8763,1.8825,1.9029,1.8782,1.9111,1.9603,1.8792,1.8616,1.8705,1.8053,1.8004,1.846,0.0,0.0,0.0,2.174,0.0,0.0,0.0,0.0,0.0,0.0,2.1464,0.0,2.0277,1.9484,1.8602,1.7846,1.7634,1.7639,1.782,1.7987,1.8407,1.9301,1.9593,2.0172,2.15,2.1695,2.1739,2.1874,2.1889,2.1637,2.0966,2.0903,2.0592,1.9857,1.9791,2.0072,2.074,2.0169,1.9849,1.9962,2.0339,2.0352,1.9974,2.0465,2.0465,1.9974,2.0075,2.0614,2.1493,2.1606,2.2196,2.3108,2.3108,2.3108,2.3145,2.3753,2.433,2.485,2.5523,2.6084,2.6499,2.6499,2.6499,2.6499,0.0,0.0,0.0,0.0,0.0,0.0,0.0,0.0,0.0,0.0,0.0,0.0,0.0,0.0,0.0,0.0,0.0,0.0,0.0,1.9708,1.9708,1.9708,1.9892,1.9909,1.9693,1.9909,1.9909,1.9708,1.9708,1.9708,1.9708,1.9708,1.9528,1.9211,1.9558,0.0,0.0,0.0,1.8746,1.8468,1.8139,0.0,1.8849,1.8529,1.8947,1.9618,1.8942,1.8493,1.8225,1.8393,1.8605,0.0,1.9701,2.0312,2.0912,0.0,2.1943,2.2003,0.0,0.0,0.0,2.2296,0.0,0.0,0.0,2.0275,1.9532,1.8803,1.8218,1.7869,1.7893,1.7971,1.8287,1.9026,1.9089,1.9514,2.0819,2.0541,2.0453,2.1126,2.0617,2.034,2.067,2.0401,2.0072,1.9775,1.9781,1.995,2.0287,1.9978,1.9798,1.9798,2.0087,2.01,1.9798,2.0087,2.0087,1.9798,1.9798,2.0388,2.1493,2.1493,2.2096,2.3108,2.3108,2.3108,2.3145,2.3753,2.433,2.4838,2.5385,2.5984,2.6499,2.6499,2.6499,2.6499,0.0,0.0,0.0,0.0,0.0,0.0,0.0,0.0,0.0,0.0,0.0,0.0,0.0,0.0,0.0,0.0,0.0,0.0,0.0,0.0,1.9708,1.9708,1.9708,1.9708,1.9708,1.9708,1.9708,1.9708,1.9708,1.9708,1.9708,1.9708,1.9405,1.8912,1.9468,0.0,0.0,0.0,0.0,1.823,0.0,1.7625,1.8536,1.7984,1.852,1.9492,1.9041,1.8536,1.8162,1.8717,1.9138,1.9473,1.9539,2.0175,0.0,0.0,0.0,0.0,0.0,0.0,0.0,0.0,0.0,2.2276,0.0,0.0,0.0,1.9751,1.8897,1.8351,1.851,1.8459,1.8584,1.912,1.9053,1.9217,2.0089,1.9496,1.9327,2.0382,1.945,1.9181,2.0374,2.0019,1.976,1.9864,1.982,1.9787,1.9823,1.9807,1.9699,1.9497,1.9698,1.9748,1.966,1.9748,1.9798,1.9798,1.9798,2.0388,2.1493,2.1493,2.2096,2.3108,2.3108,2.3108,2.3145,2.364,2.4155,2.472,2.5347,2.5984,2.6499,2.6499,2.6499,2.6499,2.1007,2.026,0.0,0.0,0.0,0.0,0.0,0.0,0.0,0.0,0.0,0.0,0.0,0.0,0.0,0.0,0.0,0.0,2.2239,0.0,0.0,1.9708,1.9708,1.9708,1.9708,1.9708,1.9708,1.9708,1.9708,1.9708,1.9708,1.9708,1.9663,1.9588,1.9678,0.0,0.0,0.0,1.849,0.0,1.7227,1.6941,0.0,1.7396,1.8037,1.9043,1.9441,1.9543,1.9465,0.0,1.9624,1.9733,0.0,2.0286,2.0534,2.1352,0.0,0.0,0.0,0.0,0.0,0.0,2.2801,2.2902,2.1512,0.0,2.0917,2.0115,0.0,1.998,2.0696,0.0,0.0,2.0305,2.0551,2.0528,2.0019,1.9891,1.9845,1.9812,1.9151,1.8986,1.9753,1.9753,1.9956,2.0533,2.0047,1.9761,1.9875,1.9841,1.9367,1.8405,1.9309,1.9572,1.9096,1.9572,1.9798,1.9798,1.9798,2.0388,2.1493,2.1493,2.2096,2.3108,2.3108,2.3108,2.3108,2.317,2.3547,2.4192,2.5197,2.5984,2.6499,2.6499,2.6499,2.6499,2.1023,2.0482,0.0,0.0,0.0,0.0,0.0,0.0,0.0,0.0,0.0,0.0,0.0,0.0,0.0,0.0,0.0,2.0933,0.0,0.0,0.0,0.0,1.9708,1.9708,1.9708,1.9708,1.9708,1.9708,1.9708,1.9708,1.9708,1.9708,1.9498,1.9136,1.9528,0.0,1.9501,0.0,1.8729,0.0,0.0,1.7394,0.0,1.7312,1.7967,1.8968,1.9512,1.9708,1.9708,1.9708,1.9708,1.9744,0.0,0.0,0.0,2.0682,0.0,0.0,0.0,0.0,0.0,0.0,0.0,0.0,2.1972,2.1837,2.1735,2.14,0.0,0.0,0.0,0.0,0.0,0.0,2.0834,2.0652,2.0298,1.9407,1.91,1.9955,1.9708,1.9602,2.001,1.9839,1.9828,2.0094,1.9856,1.9709,1.978,1.9499,1.9123,1.867,1.9104,1.9221,1.9008,1.9547,1.9798,1.9798,1.9798,2.0225,2.1043,2.137,2.192,2.2644,2.2957,2.3108,2.3108,2.3108,2.3446,2.4042,2.4494,2.5197,2.5996,2.5996,2.621,2.6499,0.0,0.0,0.0,0.0,0.0,0.0,0.0,0.0,0.0,0.0,0.0,0.0,2.2459,2.2408,0.0,0.0,2.2513,2.1872,0.0,0.0,2.0277,0.0,0.0,0.0,0.0,1.9708,1.9708,1.9708,1.9708,1.9708,1.9708,1.9708,1.9453,1.9001,0.0,1.9525,1.9235,0.0,1.9012,1.9099,1.8392,1.7787,1.7333,1.7463,1.8007,1.8765,1.9442,1.9708,1.9708,1.9708,1.9708,1.9708,1.9708,1.9708,1.9782,0.0,0.0,0.0,2.1023,2.153,2.1874,2.1814,2.2197,2.255,2.2347,2.2448,2.2533,2.233,2.2023,0.0,0.0,0.0,2.1444,2.1224,0.0,2.0907,2.042,1.9463,1.9147,2.0079,2.0242,2.0289,2.0302,2.0035,1.9836,1.9708,1.9702,1.9643,1.9491,1.9158,1.8839,1.8525,1.8843,1.8933,1.8782,1.9472,1.9798,1.9798,1.9798,2.0138,2.0717,2.127,2.1794,2.2347,2.2869,2.3108,2.3108,2.3108,2.3358,2.3766,2.3766,2.4431,2.5398,2.5548,2.5996,2.6499,2.145,2.0441,0.0,0.0,0.0,0.0,0.0,0.0,0.0,0.0,0.0,0.0,0.0,0.0,0.0,0.0,0.0,2.3578,2.4159,0.0,2.1729,0.0,0.0,2.0363,0.0,1.9708,1.9708,1.9708,1.9708,1.9708,1.9708,1.9708,1.9693,1.9678,1.9693,2.0049,2.0565,1.9395,1.9267,1.9746,1.8573,1.7787,1.7374,1.7887,1.8106,1.8263,1.9332,1.9708,1.9708,1.9708,1.9708,1.9708,1.9708,1.9708,1.9782,2.0193,2.0297,0.0,2.1337,2.2123,2.2594,2.2348,2.282,2.3173,2.2448,2.2852,2.3156,2.2448,2.2852,2.3105,2.2398,2.2262,0.0,0.0,2.1789,0.0,0.0,2.0643,2.0811,2.0014,2.0543,2.0781,2.0348,2.0297,2.0124,1.9744,1.9705,1.9472,1.8959,1.8902,1.8438,1.7391,1.8423,1.8744,1.8242,1.9271,1.9798,1.9798,1.9798,2.0138,2.0717,2.127,2.1794,2.2347,2.2869,2.3108,2.3108,2.3108,2.3108,2.3133,2.3133,2.3822,2.4876,2.541,2.5996,2.6499,0.0,0.0,0.0,0.0,0.0,0.0,0.0,2.0181,0.0,0.0,2.3188,0.0,0.0,2.5734,2.5819,0.0,0.0,2.4852,2.4341,2.3671,0.0,0.0,0.0,2.15,0.0,0.0,0.0,2.0763,2.0303,2.0089,2.0089,1.9821,1.9708,1.9708,0.0,1.9828,0.0,0.0,0.0,0.0,0.0,1.8789,1.8949,1.8351,1.8106,1.8204,1.8912,1.9406,1.9708,1.9708,1.9708,1.9708,1.9708,1.9708,1.9744,1.9856,1.9909,2.0035,2.06,2.1151,2.1631,2.1784,2.2262,2.2615,2.2347,2.2868,2.319,2.2448,2.3053,2.3491,2.2714,2.2742,0.0,0.0,0.0,0.0,0.0,1.9955,1.9938,2.0672,2.0899,2.0846,2.0457,2.0193,2.0047,2.0093,1.964,1.9388,1.9427,1.8752,1.8371,1.837,1.8438,1.8544,1.8719,1.9447,1.9798,1.9798,1.9798,2.0138,2.0717,2.127,2.1794,2.2347,2.2869,2.3108,2.3108,2.3108,2.3108,2.3145,2.3521,2.4167,2.4813,2.4988,2.5674,2.6499,2.3537,0.0,0.0,0.0,0.0,0.0,0.0,0.0,0.0,0.0,2.4644,0.0,2.7118,0.0,2.7167,0.0,2.6646,2.5957,2.4637,2.4577,0.0,2.2128,2.2478,0.0,0.0,0.0,0.0,0.0,2.0685,2.0466,2.0297,2.0035,1.9839,1.9708,0.0,1.9708,1.9708,1.9708,1.9708,0.0,0.0,1.9323,1.9464,1.8671,1.854,1.8767,1.9074,1.9406,1.9708,1.9708,1.9708,1.9708,1.9708,1.9708,1.9708,1.9708,1.9708,1.9836,2.0382,2.078,2.115,2.172,2.2077,2.2296,2.2296,2.2868,2.319,2.2448,2.3151,2.3652,2.2851,2.2972,2.32,0.0,0.0,0.0,0.0,1.9793,1.9672,2.0653,2.095,2.0919,2.0545,2.0508,2.0336,1.9926,1.9704,1.9611,1.9696,1.8669,1.8362,1.8872,1.8439,1.8468,1.8995,1.9748,2.0112,2.0112,2.0313,2.0515,2.0717,2.1443,2.187,2.2071,2.2782,2.3108,2.3108,2.3108,2.3108,2.3145,2.3521,2.4155,2.4813,2.4988,2.5674,2.6499,2.3546,0.0,0.0,0.0,2.199,2.1877,2.2586,2.2936,2.3339,0.0,2.5034,2.6113,2.7278,2.7369,2.7379,2.7293,2.7485,2.6887,2.5197,2.5878,0.0,0.0,2.2793,2.2143,2.0778,0.0,0.0,0.0,0.0,2.086,2.0395,2.033,2.0089,1.9708,1.9708,0.0,1.9708,1.9708,1.9708,1.9708,1.9708,1.9402,1.8993,1.8945,1.9368,1.9918,1.9731,1.969,1.9708,1.9708,1.9708,1.9708,1.9708,1.9708,1.9708,1.9708,1.9708,1.9889,2.0731,2.0975,2.1197,2.2049,2.2282,2.2296,2.2296,2.2868,2.319,2.2448,2.3148,2.3665,2.2877,2.3009,2.3247,0.0,0.0,0.0,0.0,2.0189,2.0035,2.0103,2.072,2.0989,2.0567,2.1132,2.0887,1.9399,1.9862,2.0064,0.0,1.8669,1.8376,1.8927,1.8452,1.8469,1.9083,2.0163,2.0704,2.0742,2.127,2.1257,2.0805,2.1832,2.2046,2.1631,2.2656,2.3108,2.3108,2.3108,2.3108,2.3108,2.3133,2.3835,2.4888,2.5448,2.6021,2.6499,2.4133,2.4253,2.4275,0.0,2.3134,2.2767,2.378,2.355,2.3884,2.5635,2.6461,2.7281,2.8386,2.8511,2.8185,2.7356,2.7485,0.0,0.0,0.0,0.0,2.4209,2.4096,2.3259,2.1485,2.2066,2.2385,2.2385,0.0,2.2037,2.161,2.0717,2.0089,1.9708,0.0,1.9708,1.9708,1.9708,1.9708,1.9708,1.9708,1.9916,2.019,1.9671,1.9909,2.0374,1.9436,1.9369,1.9708,1.9708,1.9708,1.9708,1.9708,1.9708,1.9708,1.9708,1.9708,1.9803,2.0347,2.0732,2.1134,2.1643,2.2032,2.2296,2.2296,2.2868,2.319,2.2448,2.3304,2.3982,2.321,2.3555,2.3937,0.0,0.0,0.0,0.0,0.0,2.0424,2.1569,2.0876,2.0495,2.0972,2.0659,2.0449,2.0528,1.9688,1.934,1.9684,1.8669,1.8549,1.9551,1.8672,1.8857,2.0264,2.0553,2.0893,2.1307,2.1418,2.1631,2.1895,2.2184,2.2431,2.2694,2.2982,2.3108,2.3108,2.3108,2.3108,2.3145,2.3572,2.4443,2.5473,2.6059,2.6361,2.6499,2.5185,2.5614,0.0,2.5914,2.5799,2.5586,2.5149,2.4719,2.4927,2.6324,2.719,2.7783,2.8172,2.8599,2.8386,2.7077,2.7343,0.0,2.6699,0.0,0.0,2.509,2.4216,2.3131,2.1724,2.2034,0.0,2.2673,0.0,2.237,2.2066,2.1065,2.0278,1.9708,0.0,1.9854,2.0139,2.0139,2.0139,2.0109,1.9828,1.9932,0.0,1.9824,1.9929,2.0176,1.9502,1.9442,1.9708,1.9708,1.9708,1.9708,1.9708,1.9708,1.9708,1.9708,1.9708,1.9782,2.0177,2.05,2.083,2.1445,2.1794,2.2046,2.2237,2.2617,2.2801,2.2381,2.2988,2.3468,2.3072,2.3533,2.3876,0.0,0.0,0.0,0.0,0.0,0.0,2.2161,2.1536,2.1181,2.1634,2.0794,2.0289,2.051,1.9862,1.941,1.9361,1.8554,1.8508,1.9409,1.9087,1.9472,2.0679,2.1408,2.1782,2.1845,2.2096,2.2246,2.2322,2.2531,2.2681,2.2757,2.2995,2.3108,2.3108,2.3108,2.3108,2.3183,2.401,2.4732,2.536,2.6197,2.6499,2.6499,2.6318,0.0,0.0,0.0,0.0,2.8874,2.6967,2.6519,2.6529,2.6858,2.7677,2.8009,2.7444,2.8185,2.8072,2.6524,2.6979,2.7001,2.6246,2.6188,2.5994,2.5612,2.3751,2.2388,2.171,2.1276,2.1454,0.0,2.2423,2.2504,2.2472,2.1568,2.0707,0.0,0.0,0.0,0.0,2.0703,2.0643,2.0509,1.9929,1.9708,1.9708,1.9708,1.9708,1.9708,1.9708,1.9708,1.9708,1.9708,1.9708,1.9708,1.9708,1.9708,1.9708,1.9708,1.9708,1.9782,2.0124,2.0263,2.0467,2.1243,2.1476,2.1628,2.2034,2.218,2.2209,2.2209,2.247,2.2708,2.2708,2.32,2.3404,0.0,2.2106,2.1725,0.0,0.0,0.0,0.0,2.2212,0.0,2.2279,2.1261,2.0444,2.0064,2.0175,1.9845,1.8954,1.84,1.8385,1.8972,1.9455,2.0087,2.0893,2.2309,2.2832,2.2535,2.2907,2.2857,2.2406,2.2882,2.2844,2.2447,2.2895,2.3108,2.3108,2.3108,2.3145,2.3333,2.4449,2.4888,2.5046,2.6122,2.6499,2.6499,2.6546,0.0,0.0,0.0,2.8477,2.9418,3.0109,2.9539,2.9025,2.8965,2.886,2.8574,2.8021,2.772,2.708,2.585,2.587,2.6006,2.619,0.0,0.0,2.5589,2.3751,2.2388,2.171,2.1504,2.193,0.0,2.3424,2.3918,2.4445,2.2718,2.1652,0.0,0.0,0.0,2.0703,2.0703,2.0378,1.9854,1.9753,1.9708,1.9708,1.9708,1.9708,1.9708,1.9708,1.9708,1.9708,1.9708,1.9708,1.9708,1.9708,1.9708,1.9708,1.9708,1.9708,1.9726,1.9782,2.0052,2.0348,2.05,2.0813,2.1118,2.1213,2.1477,2.1718,2.1718,2.2241,2.2708,2.2708,2.3021,2.3235,2.3093,2.2767,2.2487,2.2492,0.0,0.0,0.0,0.0,2.163,2.2229,2.1562,2.0993,2.0814,2.0289,1.9659,1.8939,1.84,1.8385,1.8972,1.9098,2.0061,2.2008,2.2309,2.2874,2.3703,2.3283,2.3058,2.2957,2.3058,2.3058,2.297,2.3058,2.3108,2.3108,2.3108,2.3384,2.3954,2.5034,2.546,2.5536,2.6248,2.6499,2.6499,2.9134,0.0,0.0,0.0,3.0529,3.1448,3.1593,3.1805,3.1523,3.0433,2.9403,2.8595,2.8027,2.7561,2.6876,2.5846,2.5749,2.5761,2.5767,2.5186,2.4895,2.5014,2.3525,2.2388,2.171,2.1501,2.184,2.2801,2.3127,2.3586,2.4147,2.3106,2.2256,2.1603,0.0,2.1216,0.0,2.0838,2.0494,2.0183,1.9824,1.9708,1.9708,1.9708,1.9708,1.9708,1.9708,1.9708,1.9708,1.9708,1.9708,1.9708,1.9708,1.9708,1.9708,1.9708,1.9708,1.9708,1.9708,1.9839,2.0052,2.0246,2.0466,2.0699,2.0943,2.115,2.1291,2.1291,2.1742,2.2255,2.263,2.2717,2.2786,2.2923,2.2691,2.2487,2.2487,2.2374,2.2296,0.0,0.0,0.0,2.2262,2.1989,2.1561,2.1039,2.0447,1.9621,1.8545,1.8243,1.8239,1.8562,1.9434,2.0526,2.187,2.2749,2.3314,2.3521,2.3233,2.3108,2.3108,2.3108,2.3108,2.3108,2.3108,2.3108,2.3133,2.3434,2.3753,2.4104,2.5172,2.5598,2.5661,2.6285,2.6499,2.6499,0.0,3.1929,0.0,0.0,3.2511,3.3229,3.2678,3.3407,3.3388,3.1682,2.9944,2.8724,2.8338,2.7593,2.6863,2.6237,2.5999,2.5698,2.5232,2.4638,2.4326,2.433,2.315,2.2304,2.1919,2.1428,2.1568,2.2397,2.2546,2.2966,2.3565,2.3291,2.2643,2.1695,2.1844,2.1739,2.1455,2.1081,2.0752,2.0453,1.9899,1.9708,1.9708,1.9708,1.9708,1.9708,1.9708,1.9708,1.9708,1.9708,1.9708,1.9708,1.9708,1.9708,1.9708,1.9708,1.9708,1.9708,1.9708,1.9708,1.9782,2.0089,2.0176,2.0278,2.0632,2.0797,2.0845,2.0845,2.1181,2.1655,2.2238,2.2254,2.2215,2.2432,2.2381,2.2296,2.2296,2.2296,2.2296,0.0,0.0,0.0,2.2296,2.2296,2.1959,2.1197,2.0699,1.9854,1.8487,1.8335,1.8344,1.8543,1.9938,2.1069,2.1832,2.315,2.364,2.3283,2.3158,2.3108,2.3108,2.3108,2.3108,2.3108,2.3108,2.317,2.3333,2.3941,2.4243,2.4431,2.5398,2.5774,2.5837,2.6323,2.6499,2.6499,3.2542,0.0,3.3844,3.2586,3.2798,3.3376,3.4146,3.4109,3.3748,3.2987,3.0877,2.9493,2.9624,2.7803,2.6696,2.7034,2.6367,2.5511,2.4625,2.4026,2.3719,2.3784,2.2486,2.2046,2.2577,2.1389,2.1296,2.2397,2.2412,2.3012,2.4108,2.3613,2.2766,2.1724,2.2343,2.1919,2.0823,2.138,2.0902,1.9798,1.9738,1.9708,1.9708,1.9708,1.9708,1.9708,1.9708,1.9708,1.9708,1.9708,1.9708,1.9708,1.9708,1.9708,1.9708,1.9708,1.9708,1.9708,1.9708,1.9708,1.9708,1.9747,1.9747,1.9764,1.9818,2.0089,2.0365,2.0365,2.0732,2.1071,2.1149,2.143,2.1657,2.1702,2.2046,2.2296,2.2296,2.2296,2.2296,2.2296,0.0,0.0,2.2296,2.2296,2.2092,2.1582,2.1166,2.0501,1.9498,1.905,1.9079,1.9643,2.0335,2.1405,2.2932,2.3108,2.3421,2.3916,2.3358,2.3108,2.3108,2.3108,2.3108,2.3108,2.3108,2.3396,2.3966,2.4519,2.5021,2.5498,2.6172,2.6411,2.6411,2.6474,2.6499,2.6499,3.4352,3.4083,3.3792,3.3475,3.336,3.3544,3.4098,3.4596,3.4669,3.4021,3.2301,3.0993,3.0697,2.8712,2.753,2.7835,2.6359,2.5167,2.4542,2.3472,2.2759,2.2453,2.1963,2.1657,2.1561,2.1375,2.1521,2.1969,2.307,2.3683,2.3861,2.4359,2.3958,2.2832,2.2748,2.2403,2.1874,2.1754,2.1156,2.0303,2.0303,2.0049,1.9708,1.9708,1.9708,1.9708,1.9708,1.9708,1.9708,1.9708,1.9708,1.9708,1.9708,1.9708,1.9708,1.9708,1.9708,1.9708,1.9708,1.9708,1.9708,1.9708,1.9708,1.9708,1.9708,1.9821,1.9929,1.9929,2.0278,2.0682,2.0943,2.1134,2.1322,2.1552,2.1764,2.1884,2.1884,2.1884,2.1884,2.1884,0.0,2.1988,2.2268,2.2296,2.2408,2.2666,2.1644,2.0584,1.9641,1.9146,1.9182,1.9793,2.0386,2.1333,2.2594,2.2945,2.3221,2.3446,2.3221,2.3108,2.3108,2.3108,2.3296,2.3665,2.3973,2.4249,2.4531,2.5071,2.541,2.5649,2.6273,2.6499,2.6499,2.6499,2.6499,2.6499,3.5504,3.4741,3.4163,3.4416,3.3994,3.3733,3.3965,3.461,3.4741,3.393,3.3098,3.2336,3.1665,2.9445,2.8188,2.8652,2.667,2.5158,2.4528,2.3205,2.2287,2.1911,2.1776,2.1681,2.1617,2.1866,2.1989,2.1989,2.3266,2.3716,2.3362,2.4396,2.4307,2.331,2.3077,2.2644,2.2076,2.1824,2.1215,2.0434,2.0434,2.0138,1.9705,1.9705,1.9693,1.9738,1.9914,1.9864,1.9768,2.0176,2.0031,1.9694,1.9698,1.9708,1.9708,1.9708,1.9708,1.9708,1.9708,1.9708,1.9708,1.9708,1.9708,1.9708,1.9708,1.9708,1.9708,1.9708,1.9927,2.0227,2.0549,2.0715,2.0943,2.1353,2.1521,2.1658,2.1794,2.1688,2.1658,2.1794,2.1688,2.1794,2.2237,2.2296,2.2516,2.3038,2.1967,2.1015,2.0371,1.9595,1.9497,2.0245,2.0706,2.1443,2.2506,2.2907,2.3108,2.3108,2.3283,2.3358,2.3358,2.3534,2.3822,2.4268,2.4657,2.4876,2.5039,2.5435,2.5699,2.59,2.6512,2.6738,2.6738,2.6738,2.6738,2.6713,3.5504,3.5489,3.5489,3.5472,3.4677,3.4013,3.3993,3.4027,3.3581,3.2281,3.2928,3.3245,3.2557,2.9795,2.8441,2.9488,2.7499,2.5714,2.4554,2.3312,2.2589,2.2603,2.2018,2.2294,2.3537,2.2996,2.2703,2.2703,2.2703,2.2724,2.2718,2.3347,2.3302,2.2733,2.3325,2.2515,2.076,2.1427,2.0959,1.9812,1.9812,1.9768,1.9695,1.9695,1.9691,1.9798,2.0434,2.0264,1.9895,2.1228,2.0813,1.9713,1.9705,1.9708,1.9708,1.9708,1.9708,1.9708,1.9708,1.9708,1.9708,1.9708,1.9708,1.9708,1.9708,1.9708,1.9708,1.9708,1.9693,1.9708,1.9711,2.0052,2.0466,2.0926,2.1337,2.1764,2.2223,2.1899,2.1779,2.2237,2.1884,2.1794,2.2237,2.2296,2.2296,2.2313,2.2116,2.2014,2.2082,2.0609,2.027,2.1352,2.1456,2.2008,2.3083,2.3108,2.3108,2.3108,2.3715,2.3991,2.4004,2.4556,2.4775,2.4775,2.4788,2.5109,2.5586,2.5598,2.5971,2.6537,2.709,2.7268,2.7268,2.7268,2.7268,2.7228,3.5504,3.5504,3.5279,3.461,3.4211,3.3774,3.3136,3.3066,3.2772,3.2008,3.1763,3.1432,3.0853,2.9643,2.879,2.8532,2.6624,2.513,2.4411,2.3124,2.208,2.1328,2.1494,2.1441,2.1026,2.1657,2.2011,2.2011,2.2938,2.3592,2.3999,2.3729,2.3274,2.271,2.2914,2.2382,2.1396,2.1606,2.1226,2.0474,2.0474,2.044,2.038,2.038,2.0659,2.1042,2.0777,2.0558,2.0368,2.0401,2.0095,1.9706,1.9696,1.9704,1.9708,1.9708,1.9708,1.9708,1.9708,1.9708,1.9708,1.9708,1.9708,1.9708,1.9708,1.9708,1.9708,1.9708,1.9708,1.9708,1.9708,1.9803,2.0035,2.0449,2.091,2.1228,2.1385,2.1522,2.1536,2.1431,2.1681,2.1858,2.1829,2.1997,2.2229,2.2554,2.192,2.1672,2.2014,2.1393,2.1356,2.2076,2.2411,2.2945,2.3715,2.4073,2.4249,2.4261,2.4437,2.4556,2.4569,2.5109,2.5347,2.5372,2.5774,2.6072,2.6223,2.6223,2.6336,2.6549,2.7102,2.7281,2.7281,2.7281,2.7281,2.7291,3.5504,3.5213,3.4725,3.4095,3.3415,3.2749,3.2177,3.2069,3.1806,3.099,3.1134,3.0844,2.9748,2.9652,2.937,2.8545,2.6404,2.511,2.5087,2.3354,2.2021,2.1371,2.1511,2.1248,2.0534,2.1304,2.1828,2.2077,2.3138,2.3737,2.3887,2.3459,2.3054,2.2694,2.2694,2.2323,2.1697,2.1697,2.1362,2.0779,2.0529,2.04,2.0392,2.0632,2.0974,2.1298,2.1151,2.1076,2.0991,2.0406,2.0153,2.003,1.9835,1.9733,1.9708,1.9708,1.9708,1.9708,1.9708,1.9708,1.9708,1.9708,1.9708,1.9708,1.9708,1.9708,1.9708,1.9708,1.9708,1.9708,1.9708,1.9708,1.9821,2.0229,2.0682,2.1039,2.1197,2.1306,2.1337,2.1244,2.1532,2.1737,2.1745,2.2131,2.2498,2.2785,2.281,2.2709,2.2471,2.2101,2.2139,2.269,2.3186,2.371,2.4305,2.4612,2.4788,2.4788,2.4988,2.5222,2.5448,2.5808,2.5925,2.5971,2.6336,2.6499,2.6499,2.6499,2.6612,2.6839,2.719,2.7406,2.757,2.7356,2.7419,2.7557,3.5504,3.4758,3.4061,3.391,3.2464,3.1254,3.1106,3.1066,3.0645,2.9526,3.077,3.1051,2.9127,2.9628,2.9889,2.9258,2.6774,2.5534,2.6267,2.3893,2.2397,2.2348,2.1904,2.1644,2.1568,2.1602,2.1946,2.2626,2.3187,2.3209,2.2694,2.2649,2.2603,2.2581,2.2581,2.223,2.1639,2.1639,2.1342,2.082,2.0194,1.9937,1.9991,2.0634,2.0803,2.084,2.1492,2.1707,2.1619,2.1114,2.0843,2.0602,2.0117,1.9849,1.9708,1.9708,1.9738,1.9768,1.9708,1.9738,1.9768,1.9708,1.9708,1.9708,1.9708,1.9708,1.9708,1.9708,1.9708,1.9708,1.9708,1.9708,1.9821,2.0229,2.0682,2.1134,2.1506,2.1308,2.123,2.1526,2.1494,2.1588,2.1975,2.2607,2.3,2.3018,2.4326,2.4574,2.3334,2.2824,2.279,2.3241,2.3815,2.4356,2.4838,2.4888,2.4933,2.4913,2.5423,2.5971,2.6499,2.6499,2.6499,2.6499,2.6499,2.6499,2.6499,2.6499,2.6826,2.7281,2.7318,2.767,2.8097,2.7595,2.772,2.8084,3.5504,3.5326,3.4691,3.3171,3.2558,3.1792,3.0355,2.972,2.9433,2.9416,2.8839,2.8337,2.8033,2.8182,2.8311,2.8313,2.7324,2.6321,2.5474,2.4419,2.3207,2.1769,2.2029,2.1603,2.0283,2.0758,2.1331,2.1922,2.2086,2.2331,2.2694,2.217,2.17,2.1248,2.1248,2.1151,2.1004,2.1004,2.121,2.1472,2.1328,2.1247,2.1267,2.1433,2.1476,2.1481,2.1634,2.1713,2.169,2.1536,2.1145,2.0688,2.0565,2.0148,1.9708,1.9708,2.0064,2.0363,1.9824,2.0064,2.0348,1.9842,1.9708,1.9708,1.9708,1.9708,1.9708,1.9708,1.9708,1.9708,1.9708,1.9708,1.9821,2.0229,2.0682,2.1023,2.1118,2.1761,2.2005,2.1438,2.2232,2.2678,2.2263,2.2562,2.2902,2.3204,2.3193,2.3418,2.4,2.4205,2.4176,2.39,2.4758,2.5285,2.541,2.5883,2.6109,2.6109,2.6235,2.6361,2.6499,2.6499,2.6499,2.6499,2.6499,2.6499,2.6499,2.6499,2.6826,2.7318,2.7745,2.8247,2.8712,2.8549,2.8587,2.8675,3.5504,3.5133,3.4476,3.3415,3.289,3.2154,3.085,3.0351,2.9876,2.9092,2.8689,2.8247,2.7769,2.8395,2.8816,2.8617,2.7732,2.6915,2.6251,2.5003,2.3712,2.2433,2.2367,2.1676,2.0251,2.0808,2.116,2.124,2.1561,2.1748,2.1823,2.1476,2.1245,2.121,2.121,2.1379,2.168,2.168,2.1856,2.2123,2.1828,2.1544,2.1318,2.1592,2.152,2.1293,2.1293,2.1653,2.2035,2.1195,2.1038,2.1073,2.0524,2.003,1.9708,1.9708,2.0168,2.0613,2.0258,2.0423,2.0539,1.9872,1.9708,1.9708,1.9708,1.9708,1.9708,1.9708,1.9708,1.9708,1.9708,1.9708,1.9764,2.0,2.0398,2.0682,2.0682,2.145,2.1939,2.1771,2.2753,2.3401,2.335,2.376,2.4123,2.4338,2.4555,2.471,2.4717,2.5649,2.5774,2.4904,2.5626,2.6021,2.6021,2.6336,2.6499,2.6499,2.6499,2.6499,2.6499,2.6499,2.6499,2.6499,2.6499,2.6499,2.6499,2.6499,2.6964,2.7657,2.7708,2.8222,2.8863,2.8612,2.8675,2.8888,3.5504,3.4806,3.4177,3.4027,3.3345,3.2541,3.1723,3.1419,3.0643,2.8924,2.906,2.8897,2.7822,2.9129,2.9829,2.9169,2.8231,2.7654,2.7517,2.5589,2.4158,2.3436,2.2687,2.1794,2.0717,2.1157,2.1201,2.0859,2.141,2.1471,2.1091,2.0979,2.121,2.1697,2.1697,2.2077,2.2694,2.2694,2.274,2.2785,2.2216,2.1629,2.1126,2.1544,2.139,2.0906,2.082,2.1561,2.2321,2.0785,2.0789,2.1256,2.0324,1.9832,1.9586,1.969,2.019,2.0682,2.058,2.0613,2.0583,2.0127,2.0007,1.9992,1.9872,1.9839,1.9828,1.9723,1.9708,1.9738,1.9842,1.9768,1.9756,1.9918,2.0148,2.0297,2.0297,2.1038,2.179,2.2313,2.3256,2.4133,2.4694,2.5244,2.5589,2.5693,2.6465,2.6512,2.5488,2.6666,2.6987,2.6063,2.6324,2.6499,2.6499,2.6499,2.6499,2.6499,2.6499,2.6537,2.6612,2.6537,2.6537,2.6612,2.6524,2.6499,2.6499,2.6587,2.7216,2.8059,2.7682,2.816,2.8963,2.8536,2.8649,2.9026,3.5504,3.5359,3.4986,3.4143,3.3876,3.3285,3.1827,3.0578,2.9784,2.9621,2.8104,2.7198,2.765,2.8588,2.8941,2.8252,2.9305,2.9294,2.7615,2.6078,2.4679,2.3464,2.2687,2.1794,2.0717,2.0779,2.1056,2.1536,2.1574,2.1882,2.2397,2.1819,2.1615,2.1697,2.1697,2.2077,2.2694,2.2694,2.2987,2.3465,2.3341,2.2928,2.2337,2.1875,2.1625,2.1496,2.0979,2.1259,2.1815,2.1529,2.0872,2.0236,2.0559,1.992,1.9106,1.9628,2.021,2.0567,2.0009,2.0273,2.0808,2.1276,2.138,2.1246,2.0677,2.0539,2.0374,1.9828,1.9708,1.9869,2.0453,2.0079,1.9999,2.0911,2.0617,2.0297,2.0297,2.1855,2.29,2.2672,2.4207,2.533,2.5427,2.5399,2.5589,2.6162,2.5614,2.5601,2.6408,2.6122,2.6278,2.7041,2.6719,2.6499,2.6499,2.6499,2.6499,2.6499,2.6499,2.6738,2.7178,2.6713,2.6751,2.7165,2.67,2.6499,2.6524,2.7002,2.7532,2.8147,2.8524,2.9076,2.9641,2.9566,2.9591,2.9654,3.5504,3.5504,3.5359,3.4872,3.4806,3.4272,3.2642,3.1864,3.0862,2.9315,2.8208,2.7451,2.71,2.7802,2.8351,2.8508,2.9343,2.9634,2.9158,2.7116,2.5493,2.4529,2.3367,2.2714,2.2646,2.1689,2.168,2.2719,2.2013,2.1832,2.2146,2.151,2.139,2.1697,2.1697,2.2077,2.2717,2.3054,2.3541,2.4096,2.3744,2.3437,2.3123,2.2095,2.1496,2.1137,2.0497,2.0683,2.121,2.121,2.0842,2.0431,2.0712,2.0373,1.9922,2.0196,2.0749,2.1173,2.0852,2.1261,2.1754,2.171,2.1695,2.162,2.1321,2.1246,2.1156,2.0827,2.0767,2.0857,2.1186,2.0692,2.0527,2.1387,2.0649,2.036,2.1455,2.2393,2.3428,2.4657,2.5899,2.6946,2.7679,2.726,2.7036,2.7365,2.6446,2.6115,2.6671,2.6297,2.6336,2.6851,2.6914,2.6801,2.6499,2.6499,2.6499,2.6499,2.6801,2.7065,2.7281,2.7318,2.7318,2.7304,2.7052,2.6939,2.6952,2.7216,2.7783,2.8574,2.8787,2.9289,2.9792,2.9792,2.9792,2.9792,3.5504,3.5504,3.5504,3.5504,3.5326,3.4681,3.3301,3.2753,3.1555,2.9035,2.8407,2.7808,2.6795,2.7462,2.8266,2.8939,2.9478,3.0016,3.0479,2.8197,2.6465,2.5674,2.404,2.3456,2.4081,2.291,2.2715,2.361,2.2923,2.2436,2.2132,2.2004,2.2,2.2156,2.2297,2.2566,2.2942,2.3399,2.3909,2.4321,2.3819,2.3629,2.3519,2.2198,2.151,2.1115,2.0144,2.022,2.0771,2.0622,2.0472,2.0398,2.0519,2.0552,2.0563,2.0682,2.1289,2.1932,2.1921,2.2313,2.2613,2.2254,2.2143,2.2099,2.1949,2.1919,2.1874,2.1724,2.1695,2.1739,2.1889,2.138,2.1156,2.1814,2.107,2.0936,2.2478,2.3227,2.435,2.6348,2.748,2.839,2.9216,2.864,2.8151,2.7933,2.7149,2.6661,2.6661,2.6574,2.6549,2.6688,2.7102,2.7178,2.6876,2.6876,2.6876,2.6889,2.7268,2.7544,2.767,2.7971,2.7871,2.7469,2.7469,2.7442,2.7341,2.7557,2.816,2.89,2.9038,2.9402,2.9792,2.9792,2.9792,2.9792,3.5504,3.5504,3.5504,3.5504,3.4725,3.3893,3.3187,3.1681,3.0303,2.943,2.8196,2.7362,2.7253,2.8253,2.8939,2.9002,3.0421,3.1095,3.0552,2.8968,2.7545,2.6368,2.4412,2.342,2.3476,2.4014,2.4105,2.3693,2.4733,2.4626,2.348,2.4683,2.4594,2.348,2.4119,2.4082,2.353,2.3573,2.3625,2.367,2.3625,2.3603,2.348,2.2193,2.2053,2.2314,2.0459,2.022,2.0709,2.008,1.9548,1.9219,1.9712,1.9968,2.0167,2.0651,2.1665,2.2642,2.2625,2.2658,2.2823,2.3325,2.346,2.331,2.2748,2.2628,2.2448,2.1814,2.1695,2.1874,2.2508,2.2089,2.1844,2.2523,2.2538,2.2523,2.2673,2.4799,2.6378,2.6572,2.8304,2.9174,2.8467,2.8154,2.7684,2.6887,2.6642,2.6492,2.6492,2.6508,2.6725,2.7241,2.7291,2.7507,2.7984,2.7984,2.7984,2.7984,2.8021,2.831,2.875,2.8323,2.8084,2.8047,2.8047,2.7758,2.7369,2.8386,2.8813,2.895,2.9515,2.9754,2.9792,2.9792,2.9792,2.9792,3.5504,3.5504,3.5311,3.4691,3.4124,3.3338,3.2105,3.1324,3.0446,2.9241,2.8632,2.8239,2.8053,2.8437,2.9138,3.0273,3.0606,3.0791,3.0938,2.9303,2.7505,2.5668,2.537,2.5286,2.5324,2.5184,2.5236,2.5499,2.554,2.531,2.4829,2.4979,2.4769,2.4277,2.454,2.4511,2.4271,2.4246,2.4455,2.4807,2.438,2.4192,2.406,2.3206,2.2512,2.1862,2.0758,2.0282,2.0144,1.9901,1.9673,1.9547,1.9748,2.0129,2.07,2.1683,2.2314,2.2696,2.2688,2.2978,2.331,2.3535,2.3595,2.3535,2.3295,2.3251,2.3176,2.2921,2.2877,2.3086,2.3759,2.3325,2.3236,2.4313,2.3789,2.3684,2.4949,2.5959,2.7051,2.8293,2.9022,2.9464,2.952,2.8488,2.7685,2.736,2.6811,2.6499,2.6499,2.6813,2.7381,2.8273,2.8298,2.8235,2.8109,2.8109,2.8109,2.8109,2.8448,2.8687,2.89,2.9089,2.895,2.8612,2.8612,2.8461,2.8335,2.8712,2.9101,2.949,2.9704,2.9792,2.9792,2.9792,2.9792,2.9792,3.51,3.5019,3.4739,3.3739,3.315,3.2478,3.1365,3.0932,3.0378,2.9315,2.9289,2.9189,2.8688,2.8971,2.9718,3.0974,3.0747,3.0729,3.1164,2.9824,2.7866,2.5295,2.6199,2.6678,2.6498,2.6064,2.5963,2.6238,2.5766,2.5321,2.4903,2.4923,2.4819,2.4644,2.4871,2.4965,2.4994,2.4921,2.5173,2.557,2.5098,2.4746,2.4404,2.3621,2.2605,2.1485,2.0703,2.0137,1.9798,1.9798,1.9952,2.0105,2.0105,2.0559,2.1283,2.2383,2.2694,2.2694,2.2694,2.3143,2.3551,2.3377,2.3465,2.3595,2.3595,2.3595,2.3655,2.3879,2.3924,2.4133,2.4784,2.4717,2.4837,2.5764,2.5495,2.557,2.6761,2.7425,2.8263,2.9472,2.9607,2.9704,2.9877,2.8812,2.7887,2.7351,2.7194,2.7078,2.7002,2.7331,2.7971,2.8863,2.8888,2.88,2.8637,2.8637,2.8637,2.8637,2.9013,2.9202,2.9214,2.9616,2.9478,2.89,2.9076,2.9101,2.89,2.9088,2.944,2.9792,2.9792,2.9792,2.9792,2.9792,2.9792,2.9792,3.4177,3.3993,3.3705,3.2749,3.1815,3.1217,3.118,3.0381,2.9792,2.9792,3.0167,3.0048,2.9038,3.0077,3.0812,3.0845,3.1009,3.1128,3.1178,3.06,2.8809,2.555,2.6746,2.7185,2.6498,2.6484,2.6153,2.5506,2.542,2.4722,2.3434,2.4777,2.5097,2.4536,2.5218,2.555,2.563,2.5615,2.5615,2.5615,2.5591,2.5158,2.4361,2.3171,2.2239,2.1446,2.0232,1.9811,1.9798,1.9798,2.0258,2.0795,2.0795,2.121,2.1828,2.2498,2.2694,2.2709,2.2709,2.3135,2.3465,2.2867,2.3157,2.361,2.361,2.361,2.3804,2.447,2.4619,2.4829,2.5495,2.6153,2.6626,2.6617,2.7739,2.8368,2.7705,2.9265,3.0283,2.9669,3.0031,2.995,2.9097,2.9002,2.8312,2.6624,2.7755,2.8395,2.8121,2.8109,2.836,2.8888,2.89,2.9176,2.9779,2.9792,2.9792,2.9792,2.9792,2.9792,2.9792,2.9792,2.9478,2.8925,2.9541,2.9465,2.8938,2.9553,2.9792,2.9792,2.9792,2.9792,2.9792,2.9792,2.9792,2.9792,3.3206,3.3553,3.3484,3.1888,3.1389,3.097,3.0317,2.9972,3.0037,3.0696,3.09,3.1208,3.1778,3.2199,3.27,3.332,3.2434,3.0924,2.8888,2.8587,2.7925,2.6708,2.8147,2.8139,2.6329,2.643,2.6144,2.5421,2.5411,2.5191,2.4805,2.5191,2.5586,2.5908,2.6095,2.651,2.6986,2.6497,2.6303,2.6255,2.5732,2.5077,2.4339,2.3513,2.2481,2.1428,2.0682,2.045,2.0497,2.0497,2.0622,2.0721,2.0258,2.0502,2.1043,2.1296,2.1983,2.2654,2.2678,2.3473,2.4261,2.4089,2.4156,2.441,2.4911,2.5001,2.5061,2.5247,2.5689,2.6213,2.6881,2.7545,2.8158,2.8633,2.9052,2.922,2.9037,2.9864,3.0222,2.9491,2.9927,2.995,2.9097,2.9421,2.9201,2.7978,2.8097,2.8363,2.8649,2.865,2.895,2.9515,2.9528,2.9616,2.9792,2.9792,2.9792,2.9792,2.9792,2.9792,2.9792,2.9792,2.9691,2.9541,2.9716,2.9691,2.9553,2.9729,2.9792,2.9792,2.9792,2.9792,2.9792,2.9792,2.9792,2.9792,3.2254,3.25,3.2429,3.0908,3.0658,3.0457,2.9908,2.9792,2.9998,3.0558,3.1291,3.1766,3.1785,3.2444,3.2979,3.3182,3.2095,3.0458,2.8165,2.8033,2.7677,2.6942,2.8567,2.8607,2.675,2.6538,2.598,2.4951,2.4639,2.4496,2.4496,2.4809,2.537,2.6095,2.6363,2.6904,2.757,2.7165,2.7001,2.6927,2.6203,2.5447,2.4682,2.378,2.2739,2.1744,2.1219,2.1021,2.1082,2.1104,2.1289,2.145,2.105,2.0979,2.1119,2.1367,2.1816,2.233,2.2903,2.3788,2.4758,2.5589,2.5382,2.5098,2.5501,2.5615,2.558,2.5579,2.6041,2.6612,2.698,2.8042,2.8996,2.9422,2.9969,3.0142,2.9553,3.0011,3.0148,2.9391,2.961,2.969,2.9535,2.9589,2.9408,2.8905,2.8375,2.8448,2.9189,2.9277,2.9428,2.9779,2.9792,2.9792,2.9792,2.9792,2.9792,2.9792,2.9792,2.9792,2.9792,2.9792,2.9792,2.9792,2.9792,2.9792,2.9792,2.9792,2.9792,2.9792,2.9792,2.9792,2.9792,2.9792,2.9792,2.9792,3.136,3.1143,3.0895,2.996,2.9792,2.9792,2.9792,2.9792,2.983,2.9895,3.1402,3.1865,3.0216,3.1586,3.2249,3.1389,3.0752,2.9838,2.8541,2.8423,2.7854,2.6649,2.8322,2.8727,2.7578,2.6919,2.5875,2.4474,2.3756,2.3343,2.3335,2.406,2.4766,2.5425,2.6095,2.6759,2.7408,2.7458,2.7484,2.7433,2.6695,2.6014,2.5246,2.383,2.2874,2.2234,2.1681,2.1536,2.1587,2.1641,2.2092,2.2583,2.2533,2.2119,2.176,2.2178,2.2062,2.2008,2.3236,2.4058,2.5041,2.6992,2.6584,2.5777,2.5911,2.5866,2.5745,2.5749,2.6107,2.6423,2.6379,2.7976,2.9257,2.9257,3.0397,3.0822,2.9462,2.9804,2.9947,2.9297,2.9164,2.9407,3.0189,2.9568,2.9247,2.9486,2.8707,2.8699,2.9729,2.9792,2.9792,2.9792,2.9792,2.9792,2.9792,2.9792,2.9792,2.9792,2.9792,2.9792,2.9792,2.9792,2.9792,2.9792,2.9792,2.9792,2.9792,2.9792,2.9792,2.9792,2.9792,2.9792,2.9792,2.9702,2.9663,2.9663,3.0394,3.0696,3.0895,2.996,2.9792,2.9792,2.9792,2.9792,3.0075,3.0796,3.1254,3.1646,3.1974,3.2357,3.2522,3.2321,3.1123,2.9771,2.8272,2.7779,2.7515,2.7443,2.8466,2.8742,2.8063,2.7996,2.7286,2.5931,2.5758,2.5427,2.4922,2.5091,2.5259,2.5398,2.5563,2.5728,2.5905,2.6496,2.6747,2.6669,2.5933,2.5536,2.519,2.3264,2.2441,2.2234,2.1681,2.1801,2.2214,2.2219,2.2313,2.2366,2.1896,2.1916,2.2081,2.1792,2.2282,2.3011,2.3363,2.4232,2.5272,2.6274,2.661,2.7032,2.8417,2.7792,2.7093,2.7606,2.7652,2.7642,2.763,2.8404,2.9059,2.9059,2.9327,2.9431,2.9104,2.9202,2.9113,2.8729,2.9481,2.9981,2.9923,3.0135,3.0222,3.0183,2.9716,2.9528,2.9779,2.9792,2.9792,2.9792,2.9792,2.9792,2.9792,2.9792,2.9792,2.9792,2.9792,2.9792,2.9792,2.9792,2.9792,2.9792,2.9792,2.9792,2.9792,2.9792,2.9792,2.9792,2.9792,2.9792,2.9702,2.8806,2.8466,2.8466,3.0714,3.0573,3.0471,3.0209,2.9967,2.9792,2.9792,2.9792,2.9972,3.0482,3.0932,3.1217,3.1267,3.1646,3.1756,3.1304,3.0548,2.9639,2.8536,2.8684,2.8711,2.8581,2.9504,3.0069,3.01,2.9958,2.8872,2.6826,2.6826,2.6492,2.5882,2.6259,2.6035,2.5425,2.5755,2.5728,2.5425,2.581,2.5987,2.5906,2.5175,2.4879,2.4726,2.3228,2.2681,2.2631,2.2343,2.2498,2.2782,2.2463,2.2546,2.2712,2.2068,2.2083,2.2309,2.2284,2.2722,2.3338,2.4032,2.4856,2.5783,2.6793,2.7033,2.724,2.8154,2.7741,2.7156,2.7169,2.7268,2.7283,2.6916,2.7897,2.8768,2.8768,2.934,2.963,2.9233,2.8944,2.8711,2.8515,2.9075,2.9489,2.9605,2.984,2.9935,2.9703,2.9504,2.9503,2.9779,2.9792,2.9792,2.9792,2.9792,2.9792,2.9792,2.9792,2.9792,2.9792,2.9792,2.9792,2.9792,2.9792,2.9792,2.9792,2.9792,2.9792,2.9792,2.9792,2.9792,2.9792,2.9792,2.9792,2.9663,2.8518,2.8096,2.8096,3.1386,3.0608,3.0105,3.0658,3.0369,3.003,2.9942,2.993,2.9892,2.9804,3.0482,3.0658,2.9895,3.0482,3.0658,2.9869,2.9792,2.9553,2.8925,2.9682,2.9954,2.9513,3.0564,3.1389,3.1965,3.1765,3.047,2.8033,2.7891,2.7539,2.6947,2.7411,2.6902,2.5578,2.6046,2.5799,2.5007,2.5147,2.5203,2.5147,2.4538,2.4292,2.4205,2.3395,2.3108,2.3108,2.3108,2.3165,2.3199,2.2723,2.2901,2.3181,2.2736,2.2598,2.2673,2.2995,2.3246,2.3611,2.4637,2.5362,2.6138,2.7287,2.7253,2.6894,2.6894,2.6935,2.6803,2.6307,2.651,2.6634,2.6009,2.7284,2.8438,2.8438,2.9419,2.9925,2.9254,2.8752,2.8477,2.8582,2.872,2.8947,2.9355,2.9473,2.9356,2.8925,2.8988,2.9289,2.9767,2.9792,2.9792,2.9792,2.9792,2.9792,2.9792,2.9792,2.9792,2.9792,2.9792,2.9792,2.9792,2.9792,2.9792,2.9792,2.9792,2.9792,2.9792,2.9585,2.9624,2.9753,2.9378,2.9339,2.9365,2.8016,2.755,2.755,3.1386,3.0909,3.067,3.1198,3.1223,3.1022,3.057,3.0507,3.0331,2.9854,2.9895,2.9934,2.9792,2.9895,2.9934,2.9792,2.9792,2.9553,2.8925,2.9038,2.9241,2.9478,3.0392,3.0915,3.0999,3.19,3.1886,3.0923,3.0345,2.9752,2.9144,2.8492,2.7513,2.6242,2.5578,2.4593,2.3442,2.4134,2.4452,2.4423,2.435,2.4292,2.4205,2.3395,2.3108,2.3108,2.3108,2.3105,2.3177,2.362,2.347,2.3203,2.3646,2.3766,2.369,2.3233,2.3797,2.4506,2.423,2.4867,2.5684,2.5892,2.6268,2.6587,2.6587,2.6648,2.6884,2.7347,2.7314,2.7183,2.709,2.7664,2.8153,2.8153,2.8324,2.8411,2.8279,2.8216,2.833,2.8773,2.9533,2.9806,2.9434,2.9842,2.9749,2.895,2.939,2.9704,2.9792,2.9792,2.9792,2.9792,2.9792,2.9792,2.9792,2.9792,2.9792,2.9792,2.9792,2.9792,2.9792,2.9792,2.9792,2.9792,2.9792,2.9792,2.9702,2.8727,2.8897,2.9624,2.7678,2.7493,2.8096,2.6025,2.5241,2.5241,3.2265,3.1637,3.1223,3.175,3.1599,3.1223,3.0696,3.062,3.0419,2.9867,2.9792,2.9792,2.9792,2.9792,2.9792,2.9792,2.9792,2.9679,2.9428,2.9883,3.0264,3.0428,3.0969,3.1426,3.1806,3.1547,3.1562,3.1845,3.1293,3.0746,3.0061,2.9231,2.8123,2.6806,2.5932,2.5003,2.4079,2.444,2.4415,2.412,2.412,2.3927,2.3603,2.3258,2.3308,2.3584,2.3584,2.3785,2.4036,2.4017,2.3828,2.3665,2.3916,2.4004,2.3954,2.369,2.4393,2.5209,2.4958,2.5473,2.6109,2.6109,2.6298,2.6499,2.6499,2.6557,2.6742,2.7353,2.7373,2.7369,2.7682,2.8197,2.8561,2.8561,2.8837,2.9051,2.9051,2.8762,2.8612,2.8863,2.9237,2.9523,2.9599,2.983,2.9833,2.9441,2.9641,2.9792,2.9792,2.9792,2.9792,2.9792,2.9792,2.9792,2.9792,2.9792,2.9792,2.9792,2.9792,2.9792,2.9792,2.9157,2.8846,2.8819,2.8211,2.7959,2.7919,2.7412,2.7504,2.7839,2.6894,2.6419,2.6149,2.5157,2.4787,2.4872]}]]